[[{"header":{"parameterUnit":"m.s-1","parameterCategory":1,"la1":30.6,"la2":28.766,"lo1":-90.7593,"lo2":-88.6598,"dy":0.0162,"dx":0.0183,"nx":116,"ny":114,"refTime":"2023-10-11T12:00:00:Z","depth":0,"parameterNumber":2,"parameterNumberName":"U-component_of_WINDS"},"data":[0.0,0.0,0.0,0.0,0.0,0.0,0.0,0.0,0.0,0.0,0.0,0.0,0.0,0.0,0.0,0.0,0.0,0.0,0.0,0.0,0.0,0.0,0.0,0.0,0.0,0.0,0.0,0.0,0.0,0.0,0.0,0.0,0.0,0.0,0.0,0.0,0.0,0.0,0.0,0.0,0.0,0.0,0.0,0.0,0.0,0.0,0.0,0.0,0.0,0.0,0.0,0.0,0.0,0.0,0.0,0.0,0.0,0.0,0.0,0.0,0.0,0.0,0.0,0.0,0.0,0.0,0.0,0.0,0.0,0.0,0.0,0.0,0.0,0.0,0.0,0.0,0.0,0.0,0.0,0.0,0.0,0.0,0.0,0.0,0.0,0.0,0.0,0.0,0.0,0.0,0.0,0.0,0.0,0.0,0.0,0.0,0.0,0.0,0.0,0.0,0.0,0.0,0.0,0.0,0.0,0.0,0.0,0.0,0.0,0.0,0.0,0.0,0.0,0.0,0.0,0.0,0.0,0.0,0.0,0.0,0.0,0.0,0.0,0.0,0.0,0.0,0.0,0.0,0.0,0.0,0.0,0.0,0.0,0.0,0.0,0.0,0.0,0.0,0.0,0.0,0.0,0.0,0.0,0.0,0.0,0.0,0.0,0.0,0.0,0.0,0.0,0.0,0.0,0.0,0.0,0.0,0.0,0.0,0.0,0.0,0.0,0.0,0.0,0.0,0.0,0.0,0.0,0.0,0.0,0.0,0.0,0.0,0.0,0.0,0.0,0.0,0.0,0.0,0.0,0.0,0.0,0.0,0.0,0.0,0.0,0.0,0.0,0.0,0.0,0.0,0.0,0.0,0.0,0.0,0.0,0.0,0.0,0.0,0.0,0.0,0.0,0.0,0.0,0.0,0.0,0.0,0.0,0.0,0.0,0.0,0.0,0.0,0.0,0.0,0.0,0.0,0.0,0.0,0.0,0.0,0.0,0.0,0.0,0.0,0.0,0.0,0.0,0.0,0.0,0.0,0.0,0.0,0.0,0.0,0.0,0.0,0.0,0.0,0.0,0.0,0.0,0.0,0.0,0.0,0.0,0.0,0.0,0.0,0.0,0.0,0.0,0.0,0.0,0.0,0.0,0.0,0.0,0.0,0.0,0.0,0.0,0.0,0.0,0.0,0.0,0.0,0.0,0.0,0.0,0.0,0.0,0.0,0.0,0.0,0.0,0.0,0.0,0.0,0.0,0.0,0.0,0.0,0.0,0.0,0.0,0.0,0.0,0.0,0.0,0.0,0.0,0.0,0.0,0.0,0.0,0.0,0.0,0.0,0.0,0.0,0.0,0.0,0.0,0.0,0.0,0.0,0.0,0.0,0.0,0.0,0.0,0.0,0.0,0.0,0.0,0.0,0.0,0.0,0.0,0.0,0.0,0.0,0.0,0.0,0.0,0.0,0.0,0.0,0.0,0.0,0.0,0.0,0.0,0.0,0.0,0.0,0.0,0.0,0.0,0.0,0.0,0.0,0.0,0.0,0.0,0.0,0.0,0.0,0.0,0.0,0.0,0.0,0.0,0.0,0.0,0.0,0.0,0.0,0.0,0.0,0.0,0.0,0.0,0.0,0.0,0.0,0.0,0.0,0.0,0.0,0.0,0.0,0.0,0.0,0.0,0.0,0.0,0.0,0.0,0.0,0.0,0.0,0.0,0.0,0.0,0.0,0.0,0.0,0.0,0.0,0.0,0.0,0.0,0.0,0.0,0.0,0.0,0.0,0.0,0.0,0.0,0.0,0.0,0.0,0.0,0.0,0.0,0.0,0.0,0.0,0.0,0.0,0.0,0.0,0.0,0.0,0.0,0.0,0.0,0.0,0.0,0.0,0.0,0.0,0.0,0.0,0.0,0.0,0.0,0.0,0.0,0.0,0.0,0.0,0.0,0.0,0.0,0.0,0.0,0.0,0.0,0.0,0.0,0.0,0.0,0.0,0.0,0.0,0.0,0.0,0.0,0.0,0.0,0.0,0.0,0.0,0.0,0.0,0.0,0.0,0.0,0.0,0.0,0.0,0.0,0.0,0.0,0.0,0.0,0.0,0.0,0.0,0.0,0.0,0.0,0.0,0.0,0.0,0.0,0.0,0.0,0.0,0.0,0.0,0.0,0.0,0.0,0.0,0.0,0.0,0.0,0.0,0.0,0.0,0.0,0.0,0.0,0.0,0.0,0.0,0.0,0.0,0.0,0.0,0.0,0.0,0.0,0.0,0.0,0.0,0.0,0.0,0.0,0.0,0.0,0.0,0.0,0.0,0.0,0.0,0.0,0.0,0.0,0.0,0.0,0.0,0.0,0.0,0.0,0.0,0.0,0.0,0.0,0.0,0.0,0.0,0.0,0.0,0.0,0.0,0.0,0.0,0.0,0.0,0.0,0.0,0.0,0.0,0.0,0.0,0.0,0.0,0.0,0.0,0.0,0.0,0.0,0.0,0.0,0.0,0.0,0.0,0.0,0.0,0.0,0.0,0.0,0.0,0.0,0.0,0.0,0.0,0.0,0.0,0.0,0.0,0.0,0.0,0.0,0.0,0.0,0.0,0.0,0.0,0.0,0.0,0.0,0.0,0.0,0.0,0.0,0.0,0.0,0.0,0.0,0.0,0.0,0.0,0.0,0.0,0.0,0.0,0.0,0.0,0.0,0.0,0.0,0.0,0.0,0.0,0.0,0.0,0.0,0.0,0.0,0.0,0.0,0.0,0.0,0.0,0.0,0.0,0.0,0.0,0.0,0.0,0.0,0.0,0.0,0.0,0.0,0.0,0.0,0.0,0.0,0.0,0.0,0.0,0.0,0.0,0.0,0.0,0.0,0.0,0.0,0.0,0.0,0.0,0.0,0.0,0.0,0.0,0.0,0.0,0.0,0.0,0.0,0.0,0.0,0.0,0.0,0.0,0.0,0.0,0.0,0.0,0.0,0.0,0.0,0.0,0.0,0.0,0.0,0.0,0.0,0.0,0.0,0.0,0.0,0.0,0.0,0.0,0.0,0.0,0.0,0.0,0.0,0.0,0.0,0.0,0.0,0.0,0.0,0.0,0.0,0.0,0.0,0.0,0.0,0.0,0.0,0.0,0.0,0.0,0.0,0.0,0.0,0.0,0.0,0.0,0.0,0.0,0.0,0.0,0.0,0.0,0.0,0.0,0.0,0.0,0.0,0.0,0.0,0.0,0.0,0.0,0.0,0.0,0.0,0.0,0.0,0.0,0.0,0.0,0.0,0.0,0.0,0.0,0.0,0.0,0.0,0.0,0.0,0.0,0.0,0.0,0.0,0.0,0.0,0.0,0.0,0.0,0.0,0.0,0.0,0.0,0.0,0.0,0.0,0.0,0.0,0.0,0.0,0.0,0.0,0.0,0.0,0.0,0.0,0.0,0.0,0.0,0.0,0.0,0.0,0.0,0.0,0.0,0.0,0.0,0.0,0.0,0.0,0.0,0.0,0.0,0.0,0.0,0.0,0.0,0.0,0.0,0.0,0.0,0.0,0.0,0.0,0.0,0.0,0.0,0.0,0.0,0.0,0.0,0.0,0.0,0.0,0.0,0.0,0.0,0.0,0.0,0.0,0.0,0.0,0.0,0.0,0.0,0.0,0.0,0.0,0.0,0.0,0.0,0.0,0.0,0.0,0.0,0.0,0.0,0.0,0.0,0.0,0.0,0.0,0.0,0.0,0.0,0.0,0.0,0.0,0.0,0.0,0.0,0.0,0.0,0.0,0.0,0.0,0.0,0.0,0.0,0.0,0.0,0.0,0.0,0.0,0.0,0.0,0.0,0.0,0.0,0.0,0.0,0.0,0.0,0.0,0.0,0.0,0.0,0.0,0.0,0.0,0.0,0.0,0.0,0.0,0.0,0.0,0.0,0.0,0.0,0.0,0.0,0.0,0.0,0.0,0.0,0.0,0.0,0.0,0.0,0.0,0.0,0.0,0.0,0.0,0.0,0.0,0.0,0.0,0.0,0.0,0.0,0.0,0.0,0.0,0.0,0.0,0.0,0.0,0.0,0.0,0.0,0.0,0.0,0.0,0.0,0.0,0.0,0.0,0.0,0.0,0.0,0.0,0.0,0.0,0.0,0.0,0.0,0.0,0.0,0.0,0.0,0.0,0.0,0.0,0.0,0.0,0.0,0.0,0.0,0.0,0.0,0.0,0.0,0.0,0.0,0.0,0.0,0.0,0.0,0.0,0.0,0.0,0.0,0.0,0.0,0.0,0.0,0.0,0.0,0.0,0.0,0.0,0.0,0.0,0.0,0.0,0.0,0.0,0.0,0.0,0.0,0.0,0.0,0.0,0.0,0.0,0.0,0.0,0.0,0.0,0.0,0.0,0.0,0.0,0.0,0.0,0.0,0.0,0.0,0.0,0.0,0.0,0.0,0.0,0.0,0.0,0.0,0.0,0.0,0.0,0.0,0.0,0.0,0.0,0.0,0.0,0.0,0.0,0.0,0.0,0.0,0.0,0.0,0.0,0.0,0.0,0.0,0.0,0.0,0.0,0.0,0.0,0.0,0.0,0.0,0.0,0.0,0.0,0.0,0.0,0.0,0.0,0.0,0.0,0.0,0.0,0.0,0.0,0.0,0.0,0.0,0.0,0.0,0.0,0.0,0.0,0.0,0.0,0.0,0.0,0.0,0.0,0.0,0.0,0.0,0.0,0.0,0.0,0.0,0.0,0.0,0.0,0.0,0.0,0.0,0.0,0.0,0.0,0.0,0.0,0.0,0.0,0.0,0.0,0.0,0.0,0.0,0.0,0.0,0.0,0.0,0.0,0.0,0.0,0.0,0.0,0.0,0.0,0.0,0.0,0.0,0.0,0.0,0.0,0.0,0.0,0.0,0.0,0.0,0.0,0.0,0.0,0.0,0.0,0.0,0.0,0.0,0.0,0.0,0.0,0.0,0.0,0.0,0.0,0.0,0.0,0.0,0.0,0.0,0.0,0.0,0.0,0.0,0.0,0.0,0.0,0.0,0.0,0.0,0.0,0.0,0.0,0.0,0.0,0.0,0.0,0.0,0.0,0.0,0.0,0.0,0.0,0.0,0.0,0.0,0.0,0.0,0.0,0.0,0.0,0.0,0.0,0.0,0.0,0.0,0.0,0.0,0.0,0.0,0.0,0.0,0.0,0.0,0.0,0.0,0.0,0.0,0.0,0.0,0.0,0.0,0.0,0.0,0.0,0.0,0.0,0.0,0.0,0.0,0.0,0.0,0.0,0.0,0.0,0.0,0.0,0.0,0.0,0.0,0.0,0.0,0.0,0.0,0.0,0.0,0.0,0.0,0.0,0.0,0.0,0.0,0.0,0.0,0.0,0.0,0.0,0.0,0.0,0.0,0.0,0.0,0.0,0.0,0.0,0.0,0.0,0.0,0.0,0.0,0.0,0.0,0.0,0.0,0.0,0.0,0.0,0.0,0.0,0.0,0.0,0.0,0.0,0.0,0.0,0.0,0.0,0.0,0.0,0.0,0.0,0.0,0.0,0.0,0.0,0.0,0.0,0.0,0.0,0.0,0.0,0.0,0.0,0.0,0.0,0.0,0.0,0.0,0.0,0.0,0.0,0.0,0.0,0.0,0.0,0.0,0.0,0.0,0.0,0.0,0.0,0.0,0.0,0.0,0.0,0.0,0.0,0.0,0.0,0.0,0.0,0.0,0.0,0.0,0.0,0.0,0.0,0.0,0.0,0.0,0.0,0.0,0.0,0.0,0.0,0.0,0.0,0.0,0.0,0.0,0.0,0.0,0.0,0.0,0.0,0.0,0.0,0.0,0.0,0.0,0.0,0.0,0.0,0.0,0.0,0.0,0.0,0.0,0.0,0.0,0.0,0.0,0.0,0.0,0.0,0.0,0.0,0.0,0.0,0.0,0.0,0.0,0.0,0.0,0.0,0.0,0.0,0.0,0.0,0.0,0.0,0.0,0.0,0.0,0.0,0.0,0.0,0.0,0.0,0.0,0.0,0.0,0.0,0.0,0.0,0.0,0.0,0.0,0.0,0.0,0.0,0.0,0.0,0.0,0.0,0.0,0.0,0.0,0.0,0.0,0.0,0.0,0.0,0.0,0.0,0.0,0.0,0.0,5.9767,0.0,0.0,0.0,0.0,0.0,0.0,0.0,0.0,0.0,0.0,0.0,0.0,0.0,0.0,0.0,0.0,0.0,0.0,0.0,0.0,0.0,0.0,0.0,0.0,0.0,0.0,0.0,0.0,0.0,0.0,0.0,0.0,0.0,0.0,0.0,0.0,0.0,0.0,0.0,0.0,0.0,0.0,0.0,0.0,0.0,0.0,0.0,0.0,0.0,0.0,0.0,0.0,0.0,0.0,0.0,0.0,0.0,0.0,0.0,0.0,0.0,0.0,0.0,0.0,0.0,0.0,0.0,0.0,0.0,0.0,0.0,0.0,0.0,0.0,0.0,0.0,0.0,0.0,0.0,0.0,0.0,0.0,0.0,0.0,0.0,0.0,0.0,0.0,0.0,0.0,0.0,0.0,0.0,0.0,0.0,0.0,0.0,0.0,0.0,0.0,0.0,0.0,0.0,0.0,0.0,0.0,0.0,0.0,0.0,0.0,0.0,0.0,0.0,0.0,0.0,0.0,6.0572,0.0,0.0,0.0,0.0,0.0,0.0,0.0,0.0,0.0,0.0,0.0,0.0,0.0,0.0,0.0,0.0,0.0,0.0,0.0,0.0,0.0,0.0,0.0,0.0,0.0,0.0,0.0,0.0,0.0,0.0,0.0,0.0,0.0,0.0,0.0,0.0,0.0,0.0,0.0,0.0,0.0,0.0,0.0,0.0,0.0,0.0,0.0,0.0,0.0,0.0,0.0,0.0,0.0,0.0,0.0,0.0,0.0,0.0,0.0,0.0,0.0,0.0,0.0,0.0,0.0,0.0,0.0,0.0,0.0,0.0,0.0,0.0,0.0,0.0,0.0,0.0,0.0,0.0,0.0,0.0,0.0,0.0,0.0,0.0,0.0,0.0,0.0,0.0,0.0,0.0,0.0,0.0,0.0,0.0,0.0,0.0,0.0,0.0,0.0,0.0,0.0,0.0,0.0,0.0,0.0,0.0,0.0,0.0,6.1962,6.249,6.313,6.3104,6.3295,6.3526,6.2661,6.2538,6.2921,6.2921,0.0,0.0,0.0,0.0,0.0,0.0,0.0,0.0,0.0,0.0,0.0,0.0,0.0,0.0,0.0,0.0,0.0,0.0,0.0,0.0,0.0,0.0,0.0,0.0,0.0,0.0,0.0,0.0,0.0,0.0,0.0,0.0,0.0,0.0,0.0,0.0,0.0,0.0,0.0,0.0,0.0,0.0,0.0,0.0,0.0,0.0,0.0,0.0,0.0,0.0,0.0,0.0,0.0,0.0,0.0,0.0,0.0,0.0,0.0,0.0,0.0,0.0,0.0,0.0,0.0,0.0,0.0,0.0,0.0,0.0,0.0,0.0,0.0,0.0,0.0,0.0,0.0,0.0,0.0,0.0,0.0,0.0,0.0,0.0,0.0,0.0,5.6735,5.7126,0.0,0.0,0.0,0.0,0.0,0.0,0.0,0.0,0.0,0.0,0.0,0.0,0.0,6.184,6.2585,6.2678,6.2782,6.2976,6.3002,6.313,6.3295,6.3207,6.3988,6.5344,6.5175,0.0,6.305,6.305,0.0,0.0,0.0,0.0,0.0,0.0,0.0,0.0,0.0,0.0,0.0,0.0,0.0,0.0,0.0,0.0,0.0,0.0,0.0,0.0,0.0,0.0,0.0,0.0,0.0,0.0,0.0,0.0,0.0,0.0,0.0,0.0,0.0,0.0,0.0,0.0,0.0,0.0,0.0,0.0,0.0,0.0,0.0,0.0,0.0,0.0,0.0,0.0,0.0,0.0,0.0,0.0,0.0,0.0,0.0,0.0,0.0,0.0,0.0,0.0,0.0,0.0,0.0,0.0,0.0,0.0,0.0,0.0,0.0,0.0,0.0,0.0,0.0,0.0,0.0,0.0,0.0,0.0,0.0,0.0,0.0,0.0,0.0,0.0,0.0,5.7449,5.7808,5.7722,5.8317,5.8628,0.0,0.0,0.0,0.0,0.0,0.0,0.0,0.0,0.0,6.2567,6.2605,6.2785,6.3207,6.3207,6.3707,6.4693,6.4693,6.5218,6.6167,6.6141,6.6499,6.723,6.7203,6.678,6.6062,6.6008,6.5953,6.6001,0.0,0.0,0.0,0.0,6.7897,6.7736,0.0,0.0,0.0,0.0,0.0,0.0,0.0,0.0,0.0,0.0,0.0,0.0,0.0,0.0,0.0,0.0,0.0,0.0,0.0,0.0,0.0,0.0,0.0,0.0,0.0,0.0,0.0,0.0,0.0,0.0,0.0,0.0,0.0,0.0,0.0,0.0,0.0,0.0,0.0,0.0,0.0,0.0,0.0,0.0,0.0,0.0,0.0,0.0,0.0,0.0,0.0,0.0,0.0,0.0,0.0,0.0,0.0,0.0,0.0,0.0,0.0,0.0,0.0,0.0,0.0,0.0,0.0,0.0,0.0,0.0,0.0,0.0,0.0,0.0,0.0,0.0,0.0,5.8326,5.8461,5.8186,5.8791,5.9178,0.0,0.0,0.0,0.0,0.0,0.0,6.2142,6.2744,6.336,6.3835,6.3873,6.4091,6.4589,6.4589,6.5282,6.6551,6.6551,6.7205,6.8398,6.8629,6.8859,6.9052,6.9283,6.9513,6.9602,6.8674,6.8349,6.8551,6.8781,6.8973,6.9174,6.9344,6.9391,6.9391,0.0,0.0,0.0,0.0,0.0,0.0,0.0,0.0,0.0,0.0,0.0,0.0,0.0,0.0,0.0,0.0,0.0,0.0,0.0,0.0,0.0,0.0,0.0,0.0,0.0,0.0,0.0,0.0,0.0,0.0,0.0,0.0,0.0,0.0,0.0,0.0,0.0,0.0,0.0,0.0,0.0,0.0,0.0,0.0,0.0,0.0,0.0,0.0,0.0,0.0,0.0,0.0,0.0,0.0,0.0,0.0,0.0,0.0,0.0,0.0,0.0,0.0,0.0,0.0,0.0,0.0,0.0,0.0,0.0,0.0,0.0,0.0,0.0,0.0,0.0,0.0,0.0,0.0,0.0,5.8586,5.8949,0.0,0.0,0.0,0.0,6.2216,6.273,6.3039,6.3039,6.3077,6.3898,6.5628,6.5666,6.6461,6.8129,6.8129,6.8205,6.8282,6.8282,6.8321,6.8436,6.9244,7.0052,7.0821,7.1629,7.2476,7.3014,6.9717,6.8806,6.9519,7.0364,7.1142,7.1927,7.2663,7.2932,7.2932,0.0,0.0,0.0,0.0,0.0,0.0,0.0,0.0,0.0,0.0,0.0,0.0,0.0,0.0,0.0,0.0,0.0,0.0,0.0,0.0,0.0,0.0,0.0,0.0,0.0,0.0,0.0,0.0,0.0,0.0,0.0,0.0,0.0,0.0,0.0,0.0,0.0,0.0,0.0,0.0,0.0,0.0,0.0,0.0,0.0,0.0,0.0,0.0,0.0,0.0,0.0,0.0,0.0,0.0,0.0,0.0,0.0,0.0,0.0,0.0,0.0,0.0,0.0,0.0,0.0,0.0,0.0,0.0,0.0,0.0,0.0,0.0,0.0,0.0,0.0,0.0,0.0,0.0,0.0,5.9851,6.0887,0.0,6.1355,6.2015,6.2442,6.2459,6.3963,6.4845,6.4845,6.587,6.6807,6.7448,6.7487,6.8025,6.9244,6.9244,6.9783,7.086,7.086,7.1129,7.1706,7.2014,7.2322,7.2591,7.2899,7.3206,7.3399,7.2206,7.1832,7.2112,7.2419,7.2727,7.3005,7.3176,7.3253,7.3261,0.0,0.0,0.0,0.0,0.0,0.0,0.0,0.0,0.0,0.0,0.0,0.0,0.0,0.0,0.0,0.0,0.0,0.0,0.0,0.0,0.0,0.0,0.0,0.0,0.0,0.0,0.0,0.0,0.0,0.0,0.0,0.0,0.0,0.0,0.0,0.0,0.0,0.0,0.0,0.0,0.0,0.0,6.0044,0.0,0.0,0.0,0.0,0.0,0.0,0.0,0.0,0.0,0.0,0.0,0.0,0.0,0.0,0.0,0.0,0.0,0.0,0.0,0.0,0.0,0.0,0.0,0.0,0.0,0.0,0.0,0.0,0.0,0.0,0.0,0.0,0.0,0.0,0.0,6.13,6.098,6.2161,6.2985,6.2924,6.3558,6.4123,6.442,6.5866,6.6692,6.6692,6.8064,6.8975,6.9244,6.9552,7.009,7.0975,7.0975,7.1552,7.2629,7.2629,7.2937,7.3514,7.3783,7.3899,7.3937,7.4207,7.4361,7.4361,7.4361,7.4361,7.4322,7.4014,7.4091,7.4322,7.4226,7.4196,7.4196,0.0,0.0,0.0,0.0,0.0,0.0,0.0,0.0,0.0,0.0,0.0,0.0,0.0,0.0,0.0,0.0,0.0,0.0,0.0,0.0,0.0,0.0,0.0,0.0,0.0,0.0,0.0,0.0,0.0,0.0,0.0,0.0,0.0,0.0,0.0,0.0,0.0,0.0,0.0,0.0,0.0,0.0,6.0132,0.0,0.0,0.0,0.0,0.0,0.0,0.0,0.0,0.0,0.0,0.0,0.0,0.0,0.0,0.0,0.0,0.0,0.0,0.0,0.0,0.0,0.0,0.0,0.0,0.0,0.0,0.0,0.0,0.0,0.0,0.0,0.0,0.0,6.177,6.21,6.2239,6.1955,6.2611,6.3676,6.5067,6.56,6.6588,6.8213,6.8448,6.8513,6.8513,6.936,7.0167,7.0975,7.1783,7.2668,7.3553,7.3553,7.3553,7.3591,7.3591,7.3591,7.363,7.4399,7.4784,7.4822,7.5707,7.6092,7.6092,7.6092,7.6092,7.5976,7.5091,7.5245,7.6015,7.6015,7.6015,7.6015,0.0,0.0,0.0,0.0,0.0,0.0,0.0,0.0,0.0,0.0,0.0,0.0,0.0,0.0,0.0,0.0,0.0,0.0,0.0,0.0,0.0,0.0,0.0,0.0,0.0,0.0,0.0,0.0,0.0,0.0,0.0,0.0,0.0,0.0,0.0,0.0,0.0,0.0,0.0,0.0,0.0,0.0,6.0622,0.0,0.0,0.0,0.0,0.0,0.0,0.0,0.0,0.0,0.0,0.0,0.0,0.0,0.0,0.0,0.0,0.0,0.0,0.0,0.0,0.0,0.0,0.0,0.0,0.0,0.0,0.0,0.0,0.0,0.0,0.0,0.0,6.3702,6.2387,6.3106,6.397,6.4505,6.536,6.6288,6.7333,6.7599,6.8141,6.9217,6.9898,7.0475,7.1129,7.1975,7.2552,7.2783,7.3014,7.3553,7.4361,7.4361,7.4707,7.5322,7.5322,7.5322,7.5322,7.6207,7.6592,7.663,7.7438,7.7823,7.7823,7.7823,7.7823,7.7669,7.6207,7.5784,7.6015,7.6015,7.6015,7.6015,0.0,0.0,0.0,0.0,0.0,0.0,0.0,0.0,0.0,0.0,0.0,0.0,0.0,0.0,0.0,0.0,0.0,0.0,0.0,0.0,0.0,0.0,0.0,0.0,0.0,0.0,0.0,0.0,0.0,0.0,0.0,0.0,0.0,0.0,0.0,0.0,0.0,0.0,0.0,0.0,0.0,0.0,6.1858,6.1858,6.1722,6.1555,6.1555,6.1381,6.1141,6.0919,0.0,0.0,0.0,0.0,0.0,0.0,0.0,0.0,0.0,0.0,0.0,0.0,0.0,0.0,0.0,0.0,0.0,0.0,0.0,0.0,0.0,0.0,0.0,0.0,6.5868,6.5963,6.5001,6.5465,6.6116,6.6661,6.7187,6.8048,6.9267,6.941,6.9975,7.1206,7.1706,7.2206,7.2706,7.3553,7.4014,7.4014,7.4361,7.4784,7.5245,7.563,7.6053,7.6553,7.6899,7.7053,7.7053,7.7553,7.7784,0.0,7.8284,7.8477,7.8477,7.8477,7.8477,0.0,0.0,0.0,0.0,0.0,7.7053,7.7053,0.0,0.0,0.0,0.0,0.0,0.0,0.0,0.0,0.0,0.0,0.0,0.0,0.0,0.0,0.0,0.0,0.0,0.0,0.0,0.0,0.0,0.0,0.0,0.0,0.0,0.0,0.0,0.0,0.0,0.0,0.0,0.0,0.0,0.0,0.0,0.0,0.0,0.0,0.0,0.0,0.0,0.0,6.332,6.332,6.332,6.332,6.332,6.332,6.3232,6.2825,0.0,0.0,0.0,0.0,0.0,0.0,0.0,0.0,0.0,0.0,0.0,0.0,0.0,0.0,0.0,0.0,0.0,0.0,0.0,0.0,0.0,0.0,0.0,0.0,6.8105,6.8541,6.8559,6.8723,6.8733,6.8597,6.8586,6.9306,7.1014,7.1206,7.186,7.3514,7.363,7.3668,7.3783,0.0,0.0,0.0,0.0,7.6207,7.6284,7.7053,7.7438,7.7438,7.8169,7.8477,7.8515,7.8707,7.8784,7.8784,7.8977,7.9054,7.9054,7.9054,7.9054,7.9015,7.8631,7.8477,7.8477,7.8477,7.8477,7.8477,0.0,0.0,0.0,0.0,0.0,0.0,0.0,0.0,0.0,0.0,0.0,0.0,0.0,0.0,0.0,0.0,0.0,0.0,0.0,0.0,0.0,0.0,0.0,0.0,0.0,0.0,0.0,0.0,0.0,0.0,0.0,0.0,0.0,0.0,0.0,0.0,0.0,0.0,0.0,0.0,0.0,0.0,6.332,6.332,6.332,6.332,6.332,6.332,6.3295,6.3207,6.3143,6.3143,6.3065,0.0,0.0,0.0,0.0,0.0,0.0,0.0,0.0,0.0,0.0,0.0,0.0,0.0,0.0,0.0,0.0,0.0,0.0,0.0,0.0,6.8033,6.9347,7.0326,7.0409,7.1601,7.1986,7.0563,7.0409,7.1063,7.2822,7.3014,7.3399,7.4399,7.4476,7.4784,7.5476,7.5668,7.6053,7.6784,7.6938,7.7361,7.8015,7.8169,7.8246,7.8246,0.0,0.0,7.8554,7.9939,8.0592,8.0669,8.2016,8.2593,8.2593,8.2593,8.2593,8.2324,7.9554,7.8477,7.8477,7.8477,7.8477,7.8477,0.0,0.0,0.0,0.0,0.0,0.0,0.0,0.0,0.0,0.0,0.0,0.0,0.0,0.0,0.0,0.0,0.0,0.0,0.0,0.0,0.0,0.0,0.0,0.0,0.0,0.0,0.0,0.0,0.0,0.0,0.0,0.0,0.0,0.0,0.0,0.0,0.0,0.0,0.0,0.0,0.0,0.0,6.5166,6.4743,6.4589,6.4589,6.4589,6.4589,6.4589,6.4589,6.4589,6.4589,6.4589,6.4564,6.4449,0.0,0.0,0.0,0.0,0.0,0.0,0.0,0.0,0.0,0.0,0.0,0.0,0.0,0.0,6.7493,0.0,0.0,6.9391,7.0123,7.1304,7.215,7.2206,7.2937,7.3168,7.2322,7.2206,7.2706,7.3976,7.4091,7.4437,7.5284,7.5361,7.5745,7.6592,7.663,7.7015,7.7861,7.79,7.8092,7.8477,7.9361,7.9785,7.9823,8.0631,8.1054,8.1093,8.1939,8.2362,8.2401,8.3247,8.3593,8.3593,8.3593,8.3593,8.3439,8.1708,8.1054,8.1054,8.1054,8.1054,8.1054,0.0,0.0,0.0,0.0,0.0,0.0,0.0,0.0,0.0,0.0,0.0,0.0,0.0,0.0,0.0,0.0,0.0,0.0,0.0,0.0,0.0,0.0,0.0,0.0,0.0,0.0,0.0,0.0,0.0,0.0,0.0,0.0,0.0,0.0,0.0,0.0,0.0,0.0,0.0,0.0,0.0,0.0,6.7282,6.6628,6.6167,6.5897,6.5897,6.5897,6.5897,6.5897,6.5897,6.5897,6.5897,6.6013,6.6038,6.5618,6.5605,0.0,0.0,0.0,0.0,0.0,0.0,0.0,0.0,0.0,6.7574,6.8074,6.8291,6.8808,7.0105,7.0892,7.1573,7.2322,7.3168,7.3745,7.3745,7.3899,7.4014,7.4014,7.386,7.4053,7.4861,7.4938,7.5322,7.6207,7.6245,7.663,7.7476,7.7515,7.79,7.8707,7.89,7.9092,7.9246,8.0785,8.1593,8.1593,8.2939,8.3593,8.3593,8.3939,8.4093,8.4093,8.4439,8.4593,8.4593,8.4593,8.4593,8.4593,8.4593,8.4593,8.4516,8.3824,8.3593,8.3593,0.0,0.0,0.0,0.0,0.0,0.0,0.0,0.0,0.0,0.0,0.0,0.0,0.0,0.0,0.0,0.0,0.0,0.0,0.0,0.0,0.0,0.0,0.0,0.0,0.0,0.0,0.0,0.0,0.0,0.0,0.0,0.0,0.0,0.0,0.0,0.0,0.0,0.0,0.0,0.0,0.0,0.0,6.8244,6.8167,6.7205,6.5897,6.5897,6.5897,6.5897,6.5897,6.5897,6.5897,6.5897,6.6397,6.6936,6.6884,0.0,6.801,6.786,6.7899,6.7927,6.8042,6.8091,6.8167,0.0,0.0,6.9472,7.0354,7.1151,7.1958,7.287,7.314,7.3217,7.336,7.4053,7.4591,7.4591,7.5245,7.5707,7.5707,7.5053,7.4899,7.5784,7.5861,7.6207,7.7092,7.713,7.7515,7.8323,7.8361,7.8746,7.9631,8.04,8.1131,8.1862,8.2824,8.3324,8.3324,8.3516,8.3593,8.3632,8.5132,8.5824,8.5901,8.744,8.8132,8.8132,8.8132,8.8132,8.8132,8.8132,8.8132,8.7748,8.4709,8.3593,8.3593,0.0,0.0,0.0,0.0,0.0,0.0,0.0,0.0,0.0,0.0,0.0,0.0,0.0,0.0,0.0,0.0,0.0,0.0,0.0,0.0,0.0,0.0,0.0,0.0,0.0,0.0,0.0,0.0,0.0,0.0,0.0,0.0,0.0,0.0,0.0,0.0,0.0,0.0,0.0,0.0,0.0,0.0,6.909,6.859,6.7975,6.7359,6.7359,6.7359,0.0,0.0,6.7359,6.7359,6.7359,6.759,6.7859,6.7859,6.8129,0.0,6.8371,6.8729,6.9113,6.9113,6.9871,7.0602,7.0629,7.1255,7.1919,7.2322,7.2706,7.3091,7.3437,7.3899,7.4207,0.0,7.4899,7.5476,7.5476,7.5784,7.6015,7.6015,7.613,7.6361,7.6707,7.6746,7.7092,7.7938,7.7977,7.8592,7.9939,8.0015,8.0631,8.1977,8.2362,8.2708,8.3054,8.3901,8.4593,8.5055,8.5555,8.6094,8.6594,8.7286,8.7594,8.7632,8.8363,8.8709,8.8709,8.8709,8.8709,8.8709,8.8709,8.8709,8.8517,8.7094,8.6555,8.6555,0.0,0.0,0.0,0.0,0.0,0.0,0.0,0.0,0.0,0.0,0.0,0.0,0.0,0.0,0.0,0.0,0.0,0.0,0.0,0.0,0.0,0.0,0.0,0.0,0.0,0.0,0.0,0.0,0.0,0.0,0.0,0.0,0.0,0.0,0.0,0.0,0.0,0.0,0.0,0.0,0.0,0.0,6.9975,6.9321,6.909,6.9052,6.859,6.8398,0.0,0.0,6.8398,6.8398,6.8398,6.8552,6.8821,6.9013,6.9436,6.9821,6.9821,7.0283,7.0744,7.0744,7.1668,7.2552,7.2552,7.3053,7.3553,7.3783,7.3822,7.3899,7.4168,7.4668,7.5053,7.5053,7.5592,7.6015,7.6015,7.6207,7.6361,7.6361,7.7092,7.7707,7.7977,7.7784,7.7977,7.8784,7.9092,7.9862,8.1362,8.167,8.2362,8.3555,8.4055,8.4286,8.4286,8.5401,8.6247,8.6824,8.744,8.8094,8.8709,8.894,8.9171,8.9402,8.9633,8.9748,8.9748,8.9979,9.0056,9.0056,9.0056,9.0056,9.0056,9.0056,8.9479,8.8709,0.0,0.0,0.0,0.0,0.0,0.0,0.0,0.0,0.0,0.0,0.0,0.0,0.0,0.0,0.0,0.0,0.0,0.0,0.0,0.0,0.0,0.0,0.0,0.0,0.0,0.0,0.0,0.0,0.0,0.0,0.0,0.0,0.0,0.0,0.0,0.0,0.0,0.0,0.0,0.0,0.0,0.0,7.086,7.0821,7.0821,7.0591,6.8975,0.0,0.0,0.0,6.8398,6.8398,6.8398,6.8975,0.0,7.0591,7.2014,7.336,7.336,7.336,7.3399,7.3399,7.3437,7.3476,7.3476,7.3476,7.3745,7.4514,7.4668,7.4938,7.5784,7.5938,7.5976,7.5976,7.5976,7.6015,7.6015,7.6746,7.7246,7.7246,7.7977,7.8784,0.0,7.8977,7.8823,7.9708,8.0554,8.1362,8.2208,8.3054,8.3555,8.3593,8.517,8.6017,8.6017,8.7709,8.8594,8.8632,8.8632,8.8671,8.8709,8.9517,9.0325,9.1171,9.2018,9.2364,9.2441,9.321,9.3557,9.3557,9.3557,9.3557,9.3557,9.3557,9.1479,8.8709,0.0,0.0,0.0,0.0,0.0,0.0,0.0,0.0,0.0,0.0,0.0,0.0,0.0,0.0,0.0,0.0,0.0,0.0,0.0,0.0,0.0,6.0781,6.0781,6.1589,6.3281,6.332,6.4166,6.5897,6.6167,6.659,6.709,6.7398,6.7859,6.8436,6.9321,6.9706,6.9744,7.0552,7.0898,7.0898,7.0898,7.0898,7.0898,7.0898,7.0898,7.0821,0.0,0.0,0.0,0.0,0.0,0.0,7.0937,0.0,7.2283,7.2552,7.3053,7.3514,7.3514,7.3514,7.3514,7.3514,7.3899,7.4322,7.4322,7.4745,7.5245,7.5515,7.5553,7.5668,7.5938,7.6015,7.6015,7.6015,7.6015,7.6207,7.6784,7.713,7.7476,7.8015,7.8861,0.0,0.0,0.0,0.0,8.14,8.2285,8.3131,8.3978,8.4824,8.5517,8.6094,8.7209,8.7825,8.7825,8.8402,8.8979,8.9517,9.0671,9.1479,9.2018,9.2287,9.2595,9.2864,9.3172,9.3287,9.3326,9.3595,9.371,9.371,9.371,9.371,9.371,9.371,9.2979,9.2018,0.0,0.0,0.0,0.0,0.0,0.0,0.0,0.0,0.0,0.0,0.0,0.0,0.0,0.0,0.0,0.0,0.0,0.0,0.0,0.0,6.0265,6.0597,6.1041,6.1897,6.3281,6.3628,6.4474,6.5897,6.5897,6.6167,6.6667,6.6667,6.6974,6.7552,6.8706,6.9244,6.9321,7.0437,7.0898,7.0898,7.0898,7.0898,7.0898,7.0898,7.0898,0.0,0.0,0.0,0.0,0.0,0.0,0.0,7.2668,7.3245,7.3937,7.3937,7.4168,7.4399,7.4399,7.4399,7.4399,7.4399,7.4784,7.5168,7.5168,7.5592,7.6015,7.6015,7.6015,7.6015,7.6015,7.6015,7.6092,7.6399,7.6476,7.6746,7.7592,7.7977,7.8515,7.9323,8.0169,8.1054,0.0,0.0,0.0,8.2747,8.3555,8.4439,8.5286,8.6094,8.6978,8.7825,8.8671,8.9133,8.9133,8.9748,9.0441,9.1287,9.2402,9.321,9.371,9.371,9.371,9.371,9.4018,9.4172,9.4172,9.448,9.4634,9.4634,9.4634,9.4634,9.4634,9.4634,9.4634,9.4557,0.0,0.0,0.0,0.0,0.0,0.0,0.0,0.0,0.0,0.0,0.0,0.0,0.0,0.0,0.0,0.0,0.0,0.0,0.0,0.0,0.0,6.0293,6.1403,6.2435,6.3281,6.4128,6.4974,6.5897,6.5897,6.5897,6.5974,6.5974,6.5974,6.609,6.7744,6.8475,6.859,7.0206,7.0898,7.0898,7.0898,7.0898,7.0898,7.0898,0.0,0.0,0.0,0.0,0.0,0.0,0.0,7.3591,7.363,7.4168,7.4784,7.4784,7.5361,7.6015,7.6015,7.6015,7.6015,7.6015,7.6015,7.6015,7.6015,7.6015,7.6015,7.6015,7.6015,7.6015,0.0,0.0,7.6361,7.7207,7.7361,7.763,7.8438,7.9323,8.0208,0.0,0.0,0.0,0.0,0.0,0.0,8.3862,0.0,8.5401,8.6209,8.7055,8.7902,8.8748,8.9594,9.0056,9.0056,9.171,9.2979,9.3749,9.3749,9.3787,9.3826,9.3826,9.3826,9.3864,9.4711,9.5057,9.5134,9.5942,9.6288,9.6288,9.6288,9.6288,9.6288,9.6288,9.6288,9.6057,0.0,0.0,0.0,0.0,0.0,0.0,0.0,0.0,0.0,0.0,0.0,0.0,0.0,0.0,0.0,0.0,0.0,0.0,0.0,0.0,0.0,0.0,0.0,0.0,0.0,0.0,0.0,0.0,0.0,6.6205,6.6782,6.6782,6.7128,6.7821,6.8898,6.936,6.9436,7.0475,7.0898,7.0898,0.0,7.0898,7.0898,0.0,0.0,0.0,0.0,0.0,0.0,0.0,0.0,7.4514,7.5168,7.5515,7.5668,7.5668,7.5822,7.6015,7.6015,7.6015,7.6015,7.6015,7.6015,7.6015,7.6015,7.6015,7.6015,7.6015,7.6015,7.6207,0.0,0.0,0.0,7.8054,7.8169,0.0,7.9361,8.0208,0.0,8.19,0.0,8.3593,8.4478,8.5324,0.0,0.0,8.6632,8.7132,8.7979,8.8825,8.9363,8.9594,9.1056,9.1825,9.1825,9.2864,9.3826,9.4672,9.4672,9.5018,9.5634,9.5634,9.5634,9.5634,9.5865,9.598,9.598,9.6211,9.6288,9.6288,9.6288,9.6288,9.6288,9.6288,9.6288,9.6249,0.0,0.0,0.0,0.0,0.0,0.0,0.0,0.0,0.0,0.0,0.0,0.0,0.0,0.0,0.0,0.0,0.0,0.0,0.0,0.0,0.0,0.0,0.0,0.0,0.0,0.0,0.0,0.0,0.0,0.0,0.0,6.6936,6.7359,6.7898,6.9129,6.9706,6.9744,0.0,0.0,0.0,0.0,0.0,0.0,0.0,0.0,0.0,0.0,0.0,0.0,0.0,0.0,7.5361,7.5861,7.6015,7.6015,7.6015,7.6015,7.6015,7.6015,7.6015,7.6015,7.6015,7.6015,7.6015,7.6015,7.6015,7.6015,7.6015,7.6284,7.6707,7.7207,7.7592,7.8092,0.0,0.0,0.0,8.0708,8.1323,8.2093,0.0,8.417,0.0,8.5901,8.6748,8.7594,0.0,8.8171,8.8325,8.9171,9.0017,9.0671,9.1018,9.2326,9.321,9.3595,9.4018,9.4711,9.5557,9.5557,9.5826,9.6288,9.6288,9.6288,9.6288,0.0,9.6288,9.6288,9.6288,9.6288,9.6288,9.6288,9.6288,9.6288,9.6288,9.6288,9.6288,0.0,0.0,0.0,0.0,0.0,0.0,0.0,0.0,0.0,0.0,0.0,0.0,0.0,0.0,0.0,0.0,0.0,0.0,0.0,0.0,0.0,0.0,0.0,0.0,0.0,0.0,0.0,0.0,0.0,0.0,0.0,0.0,0.0,0.0,0.0,0.0,0.0,0.0,0.0,0.0,0.0,0.0,0.0,0.0,0.0,0.0,0.0,0.0,0.0,0.0,7.6015,7.6015,7.6015,7.6015,7.6015,7.6015,7.6015,7.6015,7.6015,7.6015,7.6015,7.6015,7.6015,7.6015,7.6015,7.6092,7.6169,7.6169,7.6861,7.7476,7.7592,7.8207,7.8938,7.9823,0.0,8.0516,8.2093,8.2401,8.3131,8.4863,8.5786,8.6594,8.7478,8.8363,8.921,9.0017,8.9517,8.9517,9.021,9.0979,9.1825,9.2787,9.3518,9.4287,9.5172,9.5172,9.5557,9.6288,9.6288,9.6288,9.6288,9.6288,9.6288,9.6288,9.6288,0.0,9.6288,9.6288,9.6288,9.6288,9.6288,9.6288,9.6288,9.6288,9.6288,9.6288,0.0,0.0,0.0,0.0,0.0,0.0,0.0,0.0,0.0,0.0,5.3314,5.3686,0.0,0.0,0.0,0.0,0.0,0.0,0.0,0.0,0.0,0.0,0.0,0.0,0.0,0.0,0.0,0.0,0.0,0.0,0.0,0.0,0.0,0.0,0.0,0.0,0.0,0.0,0.0,0.0,0.0,0.0,0.0,0.0,0.0,0.0,0.0,0.0,0.0,0.0,7.6015,7.6015,7.6015,7.6015,7.6015,7.6015,7.6015,7.6015,7.6015,7.6015,7.6015,7.6015,7.6015,7.6015,7.6015,7.6553,0.0,7.7053,7.7707,7.8515,7.9246,7.9477,7.9862,8.0746,8.0862,8.1208,8.217,8.2901,8.3978,0.0,8.6632,8.7517,8.8402,8.921,0.0,0.0,9.1518,9.1902,9.2056,9.2172,9.2979,9.4518,9.4711,9.5172,9.6057,9.6057,9.6134,9.6288,9.6288,9.6288,9.6288,9.6288,9.6288,9.6288,9.6288,0.0,9.6288,9.6288,9.6288,9.6288,9.6288,9.6288,9.6288,9.6288,9.6288,9.6288,0.0,0.0,0.0,0.0,0.0,0.0,0.0,0.0,5.3359,5.3225,5.323,5.3566,5.4375,5.5264,0.0,0.0,0.0,0.0,0.0,0.0,0.0,0.0,0.0,0.0,0.0,0.0,0.0,6.4589,0.0,0.0,0.0,6.6898,0.0,0.0,0.0,0.0,0.0,0.0,0.0,0.0,0.0,0.0,0.0,0.0,0.0,0.0,0.0,0.0,0.0,0.0,7.6015,7.6015,7.6015,7.6015,7.6015,7.6015,7.6015,7.6015,7.6015,7.6015,7.6015,7.6015,7.6015,7.613,7.6553,7.6976,0.0,7.7823,7.8592,7.9285,7.9708,8.0169,0.0,8.1016,8.1093,8.1554,8.2785,8.3324,8.4401,8.6517,8.7555,8.8402,0.0,9.0479,9.1441,9.1864,9.2633,9.3133,9.3133,9.3557,9.4364,9.5634,9.5672,9.5865,9.6288,9.6288,9.6288,9.6288,9.6288,9.6288,9.6288,9.6288,9.6288,9.6288,9.6288,0.0,9.6288,9.6288,9.6288,9.6288,9.6288,9.6288,9.6365,9.6788,9.6903,9.698,0.0,0.0,0.0,0.0,0.0,0.0,0.0,5.34,5.3396,5.3188,5.3225,5.3445,5.4069,5.511,5.5956,0.0,0.0,0.0,0.0,0.0,0.0,0.0,0.0,0.0,0.0,0.0,0.0,6.4206,6.518,0.0,0.0,0.0,0.0,0.0,6.8513,0.0,0.0,0.0,0.0,0.0,0.0,0.0,0.0,0.0,0.0,0.0,0.0,0.0,0.0,0.0,7.6015,7.6015,7.6015,7.6015,7.6015,7.6015,7.6015,7.6015,7.6015,7.6015,7.6015,7.6015,7.6015,7.6245,7.7092,7.7438,7.7784,7.8592,7.9477,8.0092,8.0092,8.0631,8.1093,0.0,8.1246,8.1862,8.3401,8.3747,8.4824,8.7363,8.8286,0.0,9.0364,9.171,0.0,9.3018,9.3787,9.4172,9.398,9.4788,9.5595,9.6288,9.6288,9.6288,9.6288,9.6288,9.6288,9.6288,9.6288,9.6288,9.6288,9.6288,9.6288,9.6288,9.6322,0.0,0.0,9.6553,9.6592,9.6596,9.6749,9.6826,9.6903,9.7629,9.7858,9.7973,0.0,0.0,0.0,0.0,0.0,0.0,0.0,5.34,5.3277,5.3188,5.3225,5.3225,5.3298,5.4693,5.5611,0.0,0.0,0.0,0.0,0.0,0.0,0.0,0.0,0.0,0.0,0.0,0.0,6.2988,6.4116,0.0,0.0,0.0,0.0,0.0,0.0,6.8205,6.9706,0.0,0.0,0.0,0.0,0.0,0.0,0.0,0.0,0.0,0.0,0.0,0.0,0.0,0.0,7.6015,7.6015,7.6015,7.6015,7.6015,7.6015,7.6015,7.6015,7.6015,7.6015,7.6015,7.6015,7.6245,7.7092,7.7861,7.8631,7.9515,8.0362,8.0977,8.0977,8.1054,0.0,0.0,0.0,8.2516,8.3478,8.4286,8.5747,8.8286,0.0,0.0,9.2018,9.2402,9.3133,9.4634,9.5557,9.5711,9.4903,9.5711,9.6211,9.6288,9.6288,9.6288,9.6288,9.6288,9.6288,9.6288,9.6288,9.6288,9.6288,9.6288,9.6288,9.6288,9.6481,9.6487,0.0,9.733,9.7606,9.748,9.825,9.8557,9.8595,9.8907,9.9035,9.9065,0.0,0.0,0.0,0.0,0.0,0.0,0.0,5.34,5.3359,5.3225,5.3225,5.3225,5.3225,5.4216,5.506,0.0,0.0,0.0,0.0,0.0,0.0,0.0,0.0,0.0,0.0,0.0,0.0,6.2013,6.357,0.0,0.0,0.0,0.0,0.0,0.0,6.7475,6.8167,0.0,0.0,0.0,0.0,0.0,0.0,0.0,0.0,0.0,0.0,0.0,7.4168,7.5553,0.0,0.0,7.6015,7.6015,0.0,0.0,7.6015,7.6015,7.6015,7.6015,7.6015,7.6015,7.6399,7.7015,7.7823,7.8669,7.9515,8.04,8.0862,8.1093,8.1093,8.1093,8.1093,8.1093,8.1785,8.2593,8.3478,8.4786,8.6401,8.844,8.9133,0.0,0.0,0.0,9.3941,9.5634,9.6095,9.6134,9.5788,9.6095,9.6288,9.6288,9.6288,9.6288,9.6288,9.6288,9.6358,9.6448,9.6358,9.6459,9.6715,9.6425,9.6459,9.6754,9.7199,9.7422,0.0,9.8479,9.8828,9.8757,9.9106,9.9222,9.9299,9.994,10.0199,10.0224,0.0,0.0,0.0,0.0,0.0,5.34,5.3359,5.34,5.3359,5.3225,5.3225,5.3225,5.3225,5.3702,5.4473,5.55,0.0,0.0,0.0,0.0,0.0,0.0,0.0,0.0,0.0,0.0,0.0,6.1362,6.2671,6.3751,0.0,0.0,6.5628,6.5897,0.0,0.0,0.0,0.0,0.0,0.0,0.0,0.0,0.0,0.0,0.0,0.0,0.0,0.0,0.0,0.0,0.0,0.0,0.0,0.0,0.0,0.0,7.6015,7.6015,7.6015,7.6015,7.6015,7.6015,7.6669,7.7515,7.8323,7.9169,8.0054,8.0939,8.1093,8.1093,8.1093,8.1093,8.117,8.14,8.2131,8.2978,8.3862,8.544,8.7055,8.8517,0.0,9.0979,0.0,9.3826,9.498,9.6211,9.6288,9.6288,9.6288,9.6288,9.6288,9.6288,9.6288,9.6288,9.6288,9.6288,9.639,9.659,9.6454,9.6607,9.6982,9.6899,9.7074,9.7432,9.8154,9.8566,0.0,9.9617,9.9946,9.9902,10.0213,10.0291,10.0407,10.1017,10.131,10.1388,0.0,0.0,0.0,0.0,0.0,0.0,0.0,5.34,5.3277,5.3225,5.3225,5.3225,5.3225,5.3225,5.3849,5.5464,0.0,0.0,0.0,0.0,0.0,0.0,0.0,0.0,0.0,0.0,0.0,0.0,0.0,0.0,6.4589,6.4628,6.5051,6.5897,0.0,0.0,0.0,0.0,0.0,0.0,0.0,0.0,0.0,0.0,0.0,0.0,0.0,0.0,0.0,0.0,0.0,0.0,0.0,0.0,0.0,0.0,7.6015,7.6015,7.6015,7.6015,7.6015,7.6015,7.6669,7.7515,7.8323,7.9169,8.0054,8.0939,8.1093,8.1093,8.1093,8.1093,8.1362,8.217,8.3016,8.3901,8.4747,8.6324,8.7709,0.0,9.0171,9.1864,9.3518,9.5249,9.6288,9.6288,9.6288,0.0,9.6288,9.6288,9.6288,9.6288,9.6288,9.6288,9.6288,9.6288,9.639,9.659,9.659,9.6732,9.7043,9.7898,9.8287,9.8348,9.9419,9.9734,0.0,10.0704,10.1019,10.0889,10.1705,10.2094,10.2078,10.2417,10.2523,10.2499,0.0,0.0,0.0,0.0,0.0,0.0,0.0,5.34,5.3277,5.3225,5.3225,5.3225,5.3225,5.3225,5.3849,5.5464,0.0,0.0,0.0,0.0,0.0,0.0,0.0,0.0,0.0,0.0,0.0,0.0,0.0,0.0,0.0,0.0,6.4743,6.5051,6.5628,6.6051,0.0,0.0,0.0,0.0,0.0,0.0,0.0,0.0,0.0,0.0,0.0,0.0,0.0,0.0,0.0,0.0,0.0,0.0,0.0,0.0,7.6015,7.6015,7.6015,7.6015,7.613,7.6746,7.7515,7.8323,7.9208,8.0054,8.0785,8.1054,8.1093,8.1093,8.1093,8.1093,8.1362,8.217,8.3016,8.3901,8.4786,8.6863,0.0,8.8671,9.1171,9.3364,0.0,0.0,9.6288,9.6288,9.6288,9.6288,9.6288,9.6288,9.6288,9.6288,9.6288,9.6288,9.6288,9.642,9.6628,9.6888,9.747,9.7966,9.8384,9.89,9.9327,9.9722,10.0487,10.0813,0.0,10.1914,10.2215,10.2218,10.2491,10.2608,10.2608,10.2694,10.2704,10.2704,0.0,0.0,0.0,0.0,0.0,0.0,0.0,5.34,5.3277,5.3225,5.3225,5.3225,5.3225,5.3225,5.3849,5.5464,0.0,0.0,0.0,0.0,0.0,0.0,0.0,0.0,0.0,0.0,0.0,0.0,0.0,0.0,0.0,0.0,0.0,0.0,6.5513,0.0,0.0,0.0,0.0,0.0,0.0,0.0,6.9744,0.0,0.0,0.0,0.0,0.0,0.0,0.0,0.0,0.0,0.0,0.0,0.0,0.0,7.6015,7.6015,7.6015,7.6015,7.6207,7.7092,7.79,7.8707,7.9592,8.0477,8.1093,8.1093,8.1093,8.1093,8.1093,8.1362,8.1823,8.267,8.3516,8.4401,8.5247,8.7286,0.0,9.0441,0.0,0.0,0.0,9.598,9.6288,9.6288,9.6288,9.6322,9.6425,9.6425,9.6454,9.6545,9.6454,9.6454,9.6545,9.6715,9.7043,9.7596,9.8141,9.8782,9.9502,9.9995,10.0398,10.0798,10.1512,10.1914,0.0,10.2593,10.2789,10.2789,10.2789,10.2789,10.2789,10.2789,10.2789,10.2789,0.0,0.0,0.0,0.0,0.0,0.0,0.0,0.0,0.0,5.3225,5.3225,5.3225,5.3225,5.3225,5.3849,5.5464,0.0,0.0,0.0,0.0,0.0,0.0,0.0,0.0,0.0,0.0,0.0,0.0,5.9605,6.0342,6.143,0.0,0.0,0.0,0.0,0.0,0.0,0.0,0.0,0.0,0.0,0.0,0.0,0.0,0.0,0.0,0.0,0.0,0.0,0.0,0.0,0.0,0.0,0.0,0.0,0.0,0.0,0.0,0.0,7.6053,7.6284,7.7169,7.7977,7.8823,7.9708,0.0,0.0,0.0,0.0,0.0,0.0,8.1747,8.2593,8.3439,8.4324,8.5209,8.6055,8.7748,0.0,0.0,9.3749,0.0,9.6134,9.6288,9.6288,9.6288,9.6325,9.639,9.656,9.6619,9.6759,9.7027,9.6786,9.6786,9.7005,9.7104,9.7596,9.8587,9.8719,9.9344,10.0407,10.1188,10.1618,0.0,10.2398,0.0,0.0,10.2789,10.2789,10.2789,10.2789,10.2789,10.2789,10.2789,10.2789,10.2789,0.0,0.0,0.0,0.0,0.0,0.0,0.0,0.0,0.0,0.0,5.3225,5.3225,5.3225,5.3225,5.3849,0.0,0.0,0.0,0.0,0.0,0.0,0.0,0.0,0.0,0.0,0.0,0.0,5.9215,5.9605,6.0076,6.0599,6.2465,0.0,0.0,0.0,0.0,0.0,0.0,0.0,0.0,0.0,0.0,0.0,0.0,0.0,0.0,7.1129,7.2206,0.0,0.0,0.0,0.0,0.0,0.0,0.0,0.0,7.6015,7.6015,7.6015,0.0,7.7169,7.8015,7.8861,7.9708,0.0,0.0,0.0,0.0,0.0,0.0,0.0,0.0,8.2593,8.3439,8.4324,8.5401,8.6901,8.9133,0.0,0.0,0.0,0.0,9.6211,9.6288,9.6288,9.6288,9.6454,9.6537,9.659,9.6812,9.6988,9.7238,9.7165,9.7091,9.7005,9.779,9.8361,9.8641,10.0108,10.1016,10.1188,10.2086,10.2515,0.0,0.0,0.0,10.2789,10.2789,10.2789,10.2789,10.2789,10.2789,10.2789,10.2789,10.2789,10.2789,0.0,0.0,0.0,0.0,0.0,0.0,0.0,0.0,0.0,0.0,0.0,0.0,0.0,0.0,0.0,0.0,0.0,0.0,0.0,0.0,0.0,0.0,0.0,0.0,0.0,0.0,0.0,0.0,0.0,5.9906,0.0,0.0,0.0,0.0,0.0,0.0,0.0,0.0,0.0,0.0,6.6359,0.0,0.0,0.0,0.0,0.0,7.0898,7.2014,0.0,7.3514,7.463,7.6015,0.0,0.0,0.0,0.0,7.6015,7.6015,7.6015,7.663,7.7476,7.8284,7.9169,8.0054,0.0,0.0,0.0,0.0,0.0,0.0,0.0,0.0,0.0,8.4055,8.4901,8.6055,8.7748,0.0,0.0,9.348,9.448,9.5326,0.0,9.6288,9.6361,9.642,9.6537,9.6666,9.692,9.7051,9.7238,9.7472,9.7472,9.7643,9.791,9.8501,9.9161,9.9941,10.1016,10.1696,10.2086,10.2593,10.2789,0.0,0.0,0.0,10.2789,10.2789,10.2789,10.2789,10.2789,10.2789,10.2789,10.2789,10.2789,10.2789,0.0,0.0,0.0,0.0,0.0,0.0,0.0,0.0,0.0,0.0,0.0,0.0,0.0,0.0,0.0,0.0,0.0,0.0,0.0,0.0,0.0,0.0,0.0,0.0,0.0,0.0,0.0,0.0,0.0,0.0,0.0,0.0,0.0,0.0,0.0,0.0,0.0,0.0,0.0,0.0,6.6013,0.0,0.0,0.0,0.0,0.0,0.0,0.0,0.0,7.3514,7.463,7.6015,7.6015,0.0,0.0,0.0,0.0,0.0,7.6169,7.6823,7.763,7.8323,7.9246,8.0208,0.0,0.0,0.0,0.0,0.0,0.0,0.0,0.0,0.0,8.4786,8.5786,0.0,8.8671,9.0441,9.2095,9.3518,9.4595,0.0,9.6249,9.6325,9.6425,9.6598,9.6676,9.6897,9.7286,9.733,9.7472,9.7675,9.7831,9.8338,9.9197,9.9197,9.9978,10.15,10.1618,10.2086,10.2789,10.2789,10.2789,10.2789,0.0,0.0,10.2789,10.2789,10.2789,10.2789,10.2789,10.2789,10.2789,10.2789,10.2789,10.2789,0.0,0.0,0.0,0.0,0.0,0.0,0.0,0.0,0.0,0.0,0.0,0.0,0.0,0.0,0.0,0.0,0.0,0.0,0.0,0.0,0.0,0.0,0.0,0.0,0.0,0.0,0.0,0.0,0.0,0.0,5.988,6.218,6.4089,0.0,0.0,0.0,0.0,0.0,0.0,0.0,6.6628,0.0,0.0,0.0,0.0,0.0,0.0,0.0,0.0,7.3514,7.463,7.6015,7.6015,0.0,0.0,0.0,0.0,0.0,7.6899,7.7707,7.8361,7.8477,7.9708,8.0939,0.0,0.0,0.0,0.0,0.0,0.0,0.0,0.0,0.0,0.0,0.0,8.8632,0.0,0.0,9.3403,9.3672,0.0,9.6134,9.6288,9.6454,9.6568,9.659,9.6988,9.7216,9.7301,9.7533,9.7659,9.7714,9.8416,9.9236,10.0095,10.0095,10.0603,10.15,10.2203,10.2711,10.2789,10.2789,10.2789,10.2789,0.0,10.2789,10.2789,10.2789,10.2789,10.2789,10.2789,10.2789,10.2789,10.2789,10.2789,10.2789,0.0,0.0,0.0,0.0,0.0,0.0,0.0,0.0,0.0,0.0,0.0,0.0,0.0,0.0,0.0,0.0,0.0,0.0,0.0,0.0,0.0,0.0,0.0,0.0,0.0,0.0,0.0,0.0,0.0,5.9571,5.988,6.218,6.4243,6.5897,0.0,0.0,0.0,0.0,0.0,0.0,0.0,0.0,0.0,0.0,0.0,0.0,0.0,0.0,0.0,0.0,7.463,7.6015,7.6015,0.0,0.0,0.0,0.0,0.0,7.7053,7.79,7.8592,7.9092,8.0169,8.1093,0.0,0.0,0.0,0.0,0.0,0.0,0.0,0.0,0.0,0.0,0.0,0.0,0.0,0.0,0.0,0.0,0.0,9.6288,9.6288,9.6481,9.6648,9.6812,9.711,9.7355,9.7522,9.7611,9.7714,9.7714,9.8533,9.9431,10.029,10.0681,10.1383,10.2203,10.2593,10.2789,10.2789,10.2789,10.2789,10.2789,0.0,10.2789,10.2789,10.2789,10.2789,10.2789,10.2789,10.2789,10.2789,10.2789,10.2789,10.2789,0.0,0.0,0.0,0.0,0.0,0.0,0.0,0.0,0.0,0.0,0.0,0.0,0.0,0.0,0.0,0.0,0.0,0.0,0.0,0.0,0.0,0.0,0.0,0.0,0.0,0.0,5.8572,5.8698,5.9064,5.9656,6.0545,6.2344,6.4155,0.0,0.0,0.0,0.0,0.0,0.0,0.0,0.0,0.0,0.0,0.0,0.0,0.0,0.0,0.0,0.0,0.0,0.0,0.0,0.0,0.0,0.0,7.6015,7.613,7.6476,7.7361,7.8169,7.9015,0.0,0.0,0.0,0.0,0.0,0.0,0.0,0.0,0.0,0.0,8.4786,0.0,8.744,8.8402,0.0,0.0,0.0,0.0,0.0,0.0,9.6325,9.6358,9.6576,9.6812,9.7069,9.726,9.7487,9.7667,9.7714,9.7714,9.7714,9.8729,9.9627,10.029,10.1305,10.2086,10.2789,10.2789,10.2789,10.2789,10.2789,10.2789,10.2789,10.2789,10.2789,10.2789,10.2789,10.2789,10.2789,10.2789,10.2789,10.2789,10.2789,10.2789,10.2789,0.0,0.0,0.0,0.0,0.0,0.0,0.0,0.0,0.0,0.0,0.0,0.0,0.0,0.0,0.0,0.0,0.0,0.0,0.0,0.0,0.0,0.0,0.0,0.0,0.0,5.8492,5.8572,5.8698,5.9064,6.0361,6.2595,6.2768,6.3932,6.5897,0.0,0.0,0.0,0.0,0.0,0.0,0.0,0.0,0.0,0.0,0.0,0.0,0.0,0.0,0.0,0.0,0.0,0.0,0.0,0.0,7.6015,7.6015,7.6553,7.7361,7.8169,7.9054,0.0,0.0,0.0,0.0,0.0,0.0,0.0,0.0,0.0,0.0,0.0,0.0,8.7517,8.844,8.9286,9.0441,9.2172,0.0,9.4018,9.4903,9.5788,9.6394,9.6568,9.6837,9.7069,9.7271,9.7533,9.7667,9.7714,9.7714,9.7714,9.7714,9.9314,10.0212,10.029,10.1891,10.2711,10.2789,10.2789,10.2789,10.2789,10.2789,10.2789,10.2789,10.2789,10.2789,10.2789,10.2789,10.2789,10.2789,10.2789,10.2789,10.2789,10.2789,10.2789,10.2789,0.0,0.0,0.0,0.0,0.0,0.0,0.0,0.0,0.0,0.0,0.0,0.0,0.0,0.0,0.0,0.0,0.0,0.0,0.0,0.0,0.0,0.0,0.0,5.8179,5.84,5.8437,5.8529,5.8698,5.929,6.0572,6.2503,6.2929,0.0,0.0,0.0,0.0,0.0,0.0,0.0,0.0,0.0,0.0,0.0,0.0,0.0,0.0,0.0,0.0,0.0,0.0,7.5284,7.6015,7.6015,7.6015,7.6015,7.6015,7.663,7.7476,7.8284,7.9131,0.0,0.0,0.0,0.0,0.0,0.0,0.0,0.0,0.0,0.0,0.0,0.0,8.7671,8.8556,8.9825,9.1287,9.3018,9.398,9.4826,9.5711,9.6095,9.6394,9.6598,9.6863,9.709,9.7286,9.7544,9.7714,9.7714,9.7714,9.7948,9.8494,9.9666,10.0485,10.0993,10.2203,10.2789,10.2789,10.2789,10.2789,10.2789,10.2789,10.2789,10.2789,10.2789,10.2789,10.2789,10.2789,10.2789,10.2906,10.3413,10.3608,10.3687,10.4194,10.4389,10.4389,0.0,0.0,0.0,0.0,0.0,0.0,0.0,0.0,0.0,0.0,0.0,0.0,0.0,0.0,0.0,0.0,0.0,0.0,0.0,0.0,0.0,0.0,0.0,5.8133,5.8393,5.8437,5.8486,5.8698,5.9589,6.0804,6.2302,0.0,0.0,0.0,0.0,0.0,0.0,0.0,0.0,0.0,6.9206,6.986,0.0,0.0,0.0,0.0,0.0,0.0,0.0,0.0,7.5515,7.6015,7.6015,7.6015,7.6053,7.6322,7.7015,7.7861,7.8669,7.9554,8.0362,8.0939,0.0,0.0,0.0,0.0,0.0,0.0,0.0,0.0,0.0,0.0,0.0,0.0,9.0517,9.2095,9.348,9.4441,9.5326,9.6211,9.6288,9.639,9.6704,9.6912,9.713,9.7396,9.7602,9.7714,9.7714,9.7714,9.8104,9.8963,9.9861,10.0681,10.15,10.2398,10.2789,10.2789,10.2789,10.2789,10.2789,10.2789,10.2789,10.2789,10.2789,10.2789,10.2789,10.2789,10.2984,10.3296,10.4194,10.4506,10.4584,10.5209,10.5404,10.5404,0.0,0.0,0.0,0.0,0.0,0.0,0.0,0.0,0.0,0.0,0.0,0.0,0.0,0.0,0.0,0.0,0.0,0.0,0.0,0.0,0.0,0.0,0.0,5.826,5.8393,5.8486,5.8572,5.8698,5.9926,6.1127,6.234,6.3535,0.0,0.0,0.0,0.0,0.0,0.0,0.0,6.9706,6.9706,7.0206,7.0898,0.0,0.0,0.0,0.0,0.0,0.0,0.0,7.6015,7.6015,7.6015,7.6015,7.6169,7.7053,7.7861,7.8669,7.9554,8.0439,8.1093,8.1093,0.0,0.0,0.0,0.0,0.0,0.0,0.0,0.0,0.0,0.0,0.0,0.0,0.0,9.2787,9.3595,9.4441,9.5326,9.6211,9.6288,9.6492,9.6959,9.7005,9.7186,9.7659,9.7714,9.7714,9.7714,9.7714,9.8104,9.8963,9.9861,10.0681,10.15,10.2398,10.2789,10.2789,10.2789,10.2789,10.2789,10.2789,10.2789,10.2789,10.2789,10.2789,10.2789,10.2789,10.3296,10.4194,10.5092,10.5404,10.5404,10.5404,10.5404,10.5404,0.0,0.0,0.0,0.0,0.0,0.0,0.0,0.0,0.0,0.0,0.0,0.0,0.0,0.0,0.0,0.0,0.0,0.0,0.0,0.0,0.0,0.0,0.0,0.0,0.0,0.0,5.8656,5.8698,6.0153,6.1334,0.0,0.0,0.0,6.5897,0.0,0.0,0.0,0.0,0.0,6.9744,7.0321,7.0706,7.0975,0.0,0.0,0.0,0.0,0.0,0.0,0.0,0.0,0.0,7.6015,7.6015,7.6169,7.7053,7.7861,7.8669,7.9554,8.0439,0.0,0.0,0.0,0.0,0.0,0.0,0.0,0.0,0.0,0.0,0.0,0.0,0.0,0.0,0.0,9.3441,9.3672,9.498,9.6019,9.6288,9.642,9.6658,9.6982,9.7149,9.7355,9.7667,9.7714,9.7714,9.7714,9.7689,9.8398,9.9861,10.0212,10.0993,10.2398,10.2711,10.2789,10.2789,10.2789,10.2789,10.2789,10.2789,10.2789,10.2789,10.2789,10.2789,10.2789,10.3491,10.4194,10.5092,10.599,10.6302,10.638,10.7005,10.72,10.72,0.0,0.0,0.0,0.0,0.0,0.0,0.0,0.0,0.0,0.0,0.0,0.0,0.0,0.0,0.0,0.0,0.0,0.0,0.0,0.0,0.0,0.0,0.0,0.0,0.0,5.8656,5.8884,0.0,0.0,0.0,0.0,0.0,0.0,6.6397,0.0,6.7475,0.0,0.0,6.9898,7.0206,7.0706,7.1091,7.1475,0.0,0.0,0.0,0.0,0.0,0.0,0.0,0.0,0.0,7.6015,7.6015,7.6245,7.7438,7.813,7.8746,7.9977,0.0,0.0,0.0,0.0,0.0,0.0,0.0,0.0,0.0,0.0,0.0,0.0,0.0,0.0,9.0825,9.2479,9.3826,9.4172,9.5403,9.6288,9.6288,9.6487,9.6704,9.6982,9.7168,9.7422,9.7667,9.7689,9.7689,9.7714,9.804,9.886,10.029,10.0603,10.15,10.2789,10.2789,10.2789,10.2789,10.2789,10.2789,10.2789,10.2789,10.2789,10.2789,10.2789,10.2984,10.3413,10.4311,10.5092,10.599,10.6888,10.72,10.7317,10.7786,10.802,10.802,0.0,0.0,0.0,0.0,0.0,0.0,0.0,0.0,0.0,0.0,0.0,0.0,0.0,0.0,0.0,0.0,0.0,0.0,0.0,0.0,0.0,0.0,0.0,0.0,0.0,0.0,0.0,0.0,0.0,0.0,0.0,0.0,6.5935,6.709,0.0,6.8129,0.0,6.9783,7.0283,7.1014,7.1014,7.1552,7.2322,7.2399,0.0,0.0,0.0,0.0,0.0,0.0,0.0,0.0,7.6015,7.6053,7.6438,7.8015,7.8554,7.8977,8.0631,0.0,0.0,0.0,0.0,0.0,0.0,0.0,0.0,0.0,0.0,0.0,0.0,0.0,9.0556,9.221,9.3172,9.398,9.4864,9.5749,9.6288,9.6288,9.6481,9.6732,9.6982,9.7207,9.7447,9.7675,9.7706,9.7711,9.7689,9.8548,9.94,10.0298,10.111,10.2008,10.2789,10.2789,10.2789,10.2789,10.2789,10.2789,10.2789,10.2789,10.2789,10.2789,10.2906,10.3413,10.4311,10.5209,10.599,10.6888,10.7708,10.802,10.802,10.802,10.802,10.802,0.0,0.0,0.0,0.0,0.0,0.0,0.0,0.0,0.0,0.0,0.0,0.0,0.0,0.0,0.0,0.0,0.0,0.0,0.0,0.0,0.0,0.0,0.0,0.0,0.0,0.0,0.0,0.0,0.0,0.0,0.0,0.0,0.0,6.7128,0.0,6.8706,6.9744,7.036,7.1129,7.1898,7.1898,7.2437,7.3283,7.3937,7.4399,0.0,0.0,0.0,0.0,0.0,0.0,0.0,7.6015,7.6476,7.7207,7.8207,7.8977,7.9746,0.0,8.1093,0.0,0.0,0.0,0.0,0.0,0.0,0.0,0.0,0.0,0.0,8.971,9.0479,9.1287,9.2326,9.3172,9.398,9.4864,9.5749,9.6288,9.6288,9.6658,9.6936,9.7005,9.7394,9.7628,9.7711,9.7695,9.7706,9.7691,9.8513,9.9405,10.0278,10.1085,10.2008,10.2789,10.2789,10.2789,0.0,10.2789,10.2789,10.2789,10.2789,10.2789,10.2789,10.3491,10.4311,10.5209,10.6107,10.6888,10.7708,10.7903,10.802,10.802,10.802,10.802,10.802,0.0,0.0,0.0,0.0,0.0,0.0,0.0,0.0,0.0,0.0,0.0,0.0,0.0,0.0,0.0,0.0,0.0,0.0,0.0,0.0,0.0,0.0,5.8492,5.8714,5.9208,5.9653,6.0561,0.0,0.0,0.0,0.0,0.0,0.0,6.7744,0.0,6.9475,7.0321,7.1168,7.1783,7.2245,7.2629,7.3322,7.413,7.4553,7.4976,7.5399,7.5822,0.0,0.0,0.0,0.0,0.0,0.0,0.0,7.7438,7.8246,7.9131,7.9977,0.0,0.0,0.0,0.0,0.0,0.0,0.0,0.0,0.0,8.844,8.8979,8.9517,9.0364,9.1248,9.2095,9.2941,9.3787,9.4634,9.548,9.6019,9.6361,9.642,9.6759,9.7048,9.711,9.746,9.7689,9.7719,9.7719,9.7687,9.7695,9.8906,9.9841,10.0293,10.1593,10.2398,10.2789,10.2789,10.2789,10.2789,10.2789,10.2789,10.2789,10.2789,10.2984,10.3413,10.3882,10.478,10.6107,10.6497,10.72,10.802,10.802,10.802,10.802,10.802,10.802,10.802,0.0,0.0,0.0,0.0,0.0,0.0,0.0,0.0,0.0,0.0,0.0,0.0,0.0,0.0,0.0,0.0,0.0,0.0,0.0,0.0,0.0,0.0,5.8714,5.9122,6.0018,6.0209,6.1135,0.0,0.0,0.0,0.0,0.0,0.0,6.8436,0.0,7.0244,7.1168,7.1898,7.236,7.2668,7.3437,7.4207,7.4938,7.4938,7.5361,7.6015,7.6015,7.6015,7.6015,7.6015,0.0,0.0,0.0,0.0,7.763,7.8284,7.9208,8.0169,0.0,0.0,0.0,0.0,0.0,0.0,8.7209,8.7517,8.8055,8.9594,8.9902,9.0171,9.1056,9.1902,9.2749,9.3557,9.4441,9.5288,9.6172,9.6361,9.6425,9.6598,9.6888,9.713,9.7271,9.7533,9.7689,9.7711,9.7691,9.7695,9.7695,9.9336,10.0311,10.0301,10.199,10.2906,10.2789,10.2789,10.2789,10.2789,10.2789,10.2789,10.2789,10.2984,10.3413,10.4116,10.4311,10.5209,10.6693,10.6888,10.7317,10.802,10.802,10.802,10.802,10.802,10.802,10.802,0.0,0.0,0.0,0.0,0.0,0.0,0.0,0.0,0.0,0.0,0.0,0.0,0.0,0.0,0.0,0.0,0.0,0.0,0.0,0.0,0.0,0.0,5.9647,6.0055,6.0958,6.1619,6.2064,0.0,0.0,0.0,0.0,0.0,0.0,6.8436,0.0,0.0,7.2014,7.2129,7.3053,7.4399,7.4476,7.5053,7.5822,7.5822,7.5899,7.6015,7.6015,7.6015,7.6015,7.6015,7.6015,0.0,0.0,0.0,7.8361,7.8477,7.9631,8.0939,0.0,0.0,8.367,0.0,8.5517,8.6324,0.0,0.0,8.8786,0.0,8.9902,9.0171,9.1056,9.1902,9.2749,9.3557,9.4441,9.5288,9.6172,9.6454,9.6568,9.659,9.7009,9.7255,9.7316,9.7522,9.7714,9.7682,9.7687,9.7695,9.7695,9.9336,10.0312,10.0312,10.2002,10.2906,10.2789,10.2789,10.2789,10.2789,10.2789,10.2789,10.2789,10.3608,10.3999,10.4116,10.4897,10.5795,10.681,10.7512,10.7903,10.802,10.802,10.802,10.802,10.802,10.802,10.802,0.0,0.0,0.0,0.0,0.0,0.0,0.0,0.0,0.0,0.0,0.0,0.0,0.0,0.0,0.0,5.8529,5.8529,5.8757,5.9245,5.9319,0.0,0.0,0.0,6.0907,6.1767,6.2101,0.0,0.0,0.0,0.0,0.0,6.7714,6.8636,0.0,0.0,0.0,0.0,0.0,0.0,7.4745,7.5245,7.5668,7.6015,7.6015,7.6015,7.6015,7.6015,0.0,7.6015,7.6015,7.6015,7.6092,7.6553,0.0,0.0,0.0,8.0131,0.0,8.2247,8.3401,8.4516,0.0,8.5863,8.6478,8.7825,8.8402,8.9056,9.0364,9.0633,9.0902,9.1787,9.2595,9.3441,9.4287,9.5234,9.6024,9.641,9.6648,9.6849,9.6988,9.7186,9.7379,9.7499,9.7641,9.7714,9.7714,9.7687,9.789,9.8398,9.9609,10.0507,10.1012,10.2207,10.2888,10.2789,10.2789,10.2789,10.2789,10.2789,10.2789,10.2789,10.3687,10.4389,10.4897,10.5717,10.6614,10.7512,10.7786,10.802,10.802,10.802,10.802,10.802,10.802,10.802,10.802,0.0,0.0,0.0,0.0,0.0,0.0,0.0,0.0,0.0,0.0,0.0,0.0,0.0,0.0,0.0,0.0,5.88,5.9324,6.0184,6.0172,0.0,0.0,0.0,6.1723,6.2538,6.2666,0.0,0.0,0.0,0.0,6.7153,6.8887,6.9937,0.0,7.1629,0.0,0.0,0.0,0.0,0.0,0.0,7.6015,7.6015,7.6015,0.0,7.6015,7.6015,0.0,0.0,0.0,0.0,7.6438,7.7092,7.7977,0.0,0.0,0.0,0.0,0.0,0.0,8.5093,8.5901,8.6094,8.6555,0.0,0.0,8.9171,9.0864,9.1241,9.1616,9.2695,9.3389,9.4082,9.493,9.5996,9.6704,9.6704,9.6897,9.7149,9.7271,9.7379,9.7474,9.7667,9.7714,9.7682,9.7701,9.7689,9.8086,9.8945,9.9841,10.0694,10.1616,10.2402,10.29,10.2789,10.2789,10.2789,10.2789,10.2789,10.2789,10.2789,10.3882,10.4819,10.5404,10.6302,10.72,10.802,10.802,10.802,10.802,10.802,10.802,10.802,10.802,10.802,10.802,0.0,0.0,0.0,0.0,0.0,0.0,0.0,0.0,0.0,0.0,0.0,0.0,0.0,5.8492,5.8572,5.8656,5.9356,6.0129,6.1076,6.115,6.1484,6.2301,0.0,0.0,6.3527,0.0,0.0,0.0,0.0,0.0,6.8411,6.9268,7.0552,7.2052,7.2168,7.3091,7.4591,0.0,0.0,0.0,0.0,0.0,0.0,0.0,0.0,0.0,0.0,0.0,0.0,0.0,0.0,0.0,0.0,0.0,0.0,0.0,0.0,0.0,0.0,8.4247,0.0,8.5901,8.6094,8.6555,8.8286,8.8709,8.9171,9.0864,9.1361,9.1997,9.3727,9.4075,9.4346,9.5129,9.623,9.6982,9.6982,9.7168,9.7271,9.7299,9.7511,9.7667,9.7714,9.7714,9.7701,9.7694,9.7695,9.8086,9.8945,9.982,10.0681,10.1618,10.2392,10.29,10.2789,10.2789,10.2789,10.2789,10.2789,10.2789,10.2906,10.4584,10.5404,10.5404,10.6302,10.72,10.802,10.802,10.802,10.802,10.802,10.802,10.802,10.802,10.802,10.802,0.0,0.0,0.0,0.0,0.0,0.0,0.0,0.0,0.0,0.0,0.0,0.0,0.0,5.9776,6.0041,5.9887,6.0385,6.1069,6.193,6.1967,6.2339,6.3156,0.0,6.3565,6.4345,0.0,0.0,0.0,0.0,6.8028,6.8951,7.0575,7.1937,7.3014,7.3014,7.3668,7.4745,7.5284,0.0,0.0,0.0,0.0,0.0,0.0,0.0,0.0,0.0,0.0,0.0,0.0,0.0,0.0,0.0,0.0,0.0,0.0,0.0,0.0,0.0,0.0,0.0,8.6017,8.6094,8.6555,8.8286,8.8709,8.9171,9.0864,9.1361,9.2025,9.3766,9.4202,9.4729,9.6164,9.6832,9.7188,9.7188,9.7408,9.7544,9.7572,9.765,9.7714,9.7714,9.7711,9.7691,9.7695,9.7695,9.8318,9.9742,10.0109,10.0993,10.2398,10.2686,10.2803,10.2789,10.2789,10.2789,10.2789,10.2789,10.2789,10.2906,10.4584,10.5404,10.5482,10.6888,10.7708,10.802,10.802,10.802,10.802,10.802,10.802,10.802,10.802,10.802,10.802,0.0,0.0,0.0,0.0,0.0,0.0,0.0,0.0,0.0,0.0,0.0,0.0,0.0,0.0,6.1448,6.1505,6.1805,6.2432,6.3555,6.3593,6.392,6.4613,6.465,6.4911,6.5434,6.4867,0.0,0.0,0.0,0.0,0.0,0.0,7.2822,7.3899,7.3899,0.0,0.0,0.0,0.0,7.6015,0.0,0.0,7.6015,0.0,0.0,0.0,0.0,0.0,0.0,0.0,0.0,0.0,0.0,0.0,0.0,0.0,0.0,0.0,8.3939,0.0,0.0,8.6094,8.6324,8.6901,8.8363,8.8902,8.9513,9.1033,9.1504,9.2187,9.4016,9.4485,9.518,9.6818,9.7277,9.7447,9.7447,9.7602,9.7689,9.7714,9.7714,9.7682,9.7706,9.7691,9.7695,9.7695,9.7695,0.0,10.0212,10.029,10.111,10.2789,10.2789,10.2789,10.2789,10.2789,10.2789,10.2789,10.2789,10.2789,10.2789,10.4311,10.5092,10.5482,10.6888,10.7708,10.802,10.802,10.802,10.802,10.802,10.802,10.802,10.802,10.802,10.802,0.0,0.0,0.0,0.0,0.0,0.0,0.0,0.0,0.0,0.0,0.0,0.0,0.0,0.0,0.0,6.352,6.3596,6.4317,6.5912,6.6025,6.6257,6.6695,6.6691,6.6729,6.6729,6.511,0.0,0.0,0.0,0.0,0.0,0.0,7.3129,0.0,7.4745,7.5207,7.6015,0.0,7.6015,7.6015,0.0,7.6015,7.613,0.0,0.0,0.0,7.8246,7.8515,0.0,7.8554,0.0,0.0,0.0,0.0,0.0,0.0,0.0,0.0,0.0,0.0,0.0,8.6094,8.6748,8.7632,8.8479,8.9325,9.0196,9.1272,9.1694,9.2482,9.4442,9.4958,9.5582,9.7057,9.7533,9.7714,9.7714,9.7706,9.7711,9.7682,9.7721,9.7706,9.7695,9.7695,9.7695,9.7695,9.7695,9.847,10.0212,10.029,10.111,10.2711,10.2789,10.2789,10.2789,10.2789,10.2789,10.2789,10.2789,10.2789,10.2789,10.3687,10.4584,10.5404,10.6302,10.72,10.802,10.802,10.802,10.802,10.802,10.802,10.802,10.802,10.802,10.802,0.0,0.0,0.0,0.0,0.0,0.0,0.0,0.0,0.0,0.0,0.0,0.0,0.0,0.0,0.0,6.5671,6.6049,6.644,6.6895,6.6933,6.7011,6.7127,6.7127,6.743,6.7997,6.7543,6.8412,0.0,0.0,0.0,0.0,0.0,0.0,0.0,7.5361,7.5784,7.6015,7.6015,0.0,0.0,7.6015,7.639,0.0,0.0,0.0,0.0,0.0,7.9615,7.9692,0.0,8.0636,8.0769,0.0,0.0,0.0,0.0,0.0,0.0,8.467,0.0,0.0,0.0,0.0,0.0,8.8579,8.9426,9.0372,9.1434,9.1805,9.254,9.4442,9.4958,9.5637,9.7329,9.7659,9.7682,9.7706,9.7687,9.7693,9.7691,9.7691,9.7693,9.7695,9.7695,9.7695,0.0,9.7695,9.8474,10.021,10.1515,10.2398,10.2789,10.2789,10.2789,10.2789,10.2789,10.2789,10.2789,10.2789,10.2789,10.2789,10.3687,10.4584,10.5404,10.6302,10.72,10.802,10.802,10.802,10.802,10.802,10.802,10.802,10.802,10.802,10.802,0.0,0.0,0.0,0.0,0.0,0.0,0.0,0.0,0.0,0.0,0.0,0.0,0.0,0.0,0.0,6.7305,6.7584,6.791,6.8291,6.8597,6.8874,6.9081,6.9462,6.988,7.0302,6.9617,7.0286,7.2402,0.0,0.0,0.0,0.0,0.0,0.0,0.0,0.0,0.0,0.0,0.0,0.0,7.6544,0.0,0.0,7.8315,7.8833,0.0,0.0,0.0,8.0635,8.1137,8.1466,0.0,0.0,0.0,0.0,0.0,0.0,0.0,0.0,0.0,0.0,0.0,0.0,0.0,8.8623,8.9662,9.0789,9.1605,9.1872,9.2423,9.4082,9.4792,9.5567,9.6933,9.744,9.7682,9.7701,9.7689,9.7695,9.7695,9.7695,9.7695,9.7695,9.7695,9.7695,9.7695,9.7695,9.8475,10.0219,10.16,10.2515,10.2789,10.2789,10.2789,10.2789,10.2789,10.2789,10.2789,10.2789,10.2789,10.2789,10.3296,10.3999,10.4897,10.5795,10.6693,10.7512,10.7903,10.802,10.802,10.802,10.802,10.802,10.802,10.802,10.802,0.0,0.0,0.0,0.0,0.0,0.0,0.0,0.0,0.0,0.0,0.0,0.0,0.0,0.0,0.0,0.0,6.8859,6.9321,7.009,7.0783,7.1363,7.1784,7.2549,7.2969,7.2969,7.144,7.1636,7.363,0.0,0.0,0.0,0.0,0.0,0.0,0.0,0.0,0.0,0.0,0.0,7.7468,7.7487,7.8017,0.0,0.0,8.0084,0.0,8.1088,8.1358,8.1396,8.1473,8.1957,0.0,0.0,0.0,0.0,0.0,8.4901,0.0,0.0,0.0,0.0,0.0,0.0,0.0,8.8705,8.9979,9.1336,9.1781,9.1872,9.2249,9.3515,9.4372,9.5191,9.6215,9.7034,9.755,9.7675,9.768,9.7695,9.7695,9.7695,9.7695,9.7695,9.7695,9.7695,9.7695,9.7773,9.8554,10.0219,10.1092,10.2008,10.2789,10.2789,10.2789,10.2789,10.2789,10.2789,10.2789,10.2789,10.2789,10.2789,10.2789,10.3296,10.4116,10.4897,10.5795,10.6614,10.7512,10.7903,10.802,10.802,10.802,10.802,10.802,10.802,10.802,6.0781,0.0,0.0,0.0,0.0,0.0,0.0,0.0,0.0,0.0,0.0,0.0,0.0,0.0,0.0,0.0,7.1706,7.2591,7.2745,7.2899,7.3024,7.312,7.3313,7.3389,7.3389,7.3044,7.3418,7.4476,0.0,0.0,0.0,0.0,0.0,0.0,0.0,0.0,0.0,0.0,0.0,7.8363,7.8363,0.0,7.972,7.9995,8.0615,8.1375,8.1569,8.1685,8.1839,0.0,8.3154,8.3784,0.0,0.0,0.0,0.0,0.0,0.0,0.0,0.0,0.0,0.0,0.0,0.0,8.8771,9.0081,9.1368,9.1708,9.1721,9.2053,9.3143,9.3453,9.4129,9.5888,9.6304,9.6731,9.7589,9.7689,9.7711,9.7695,9.7695,9.7695,9.7695,9.7695,9.7695,9.7695,9.8359,9.9218,10.0219,10.1092,10.2008,10.2789,10.2789,10.2789,10.2789,10.2789,10.2789,10.2789,10.2789,10.2789,10.2789,10.2789,10.3296,10.4116,10.4311,10.4819,10.5717,10.6614,10.7395,10.802,10.802,10.802,10.802,10.802,10.802,10.802,6.205,0.0,0.0,0.0,0.0,0.0,0.0,0.0,0.0,0.0,0.0,0.0,0.0,0.0,0.0,0.0,0.0,0.0,0.0,0.0,7.4091,7.4091,7.4514,7.4745,7.4745,7.4745,7.4938,7.5361,0.0,0.0,0.0,0.0,0.0,0.0,0.0,0.0,0.0,0.0,7.8421,7.9249,7.9307,0.0,8.069,8.0847,8.1246,8.176,8.228,8.2766,8.3271,8.3582,8.4195,0.0,0.0,8.4764,8.5098,0.0,8.5543,8.562,0.0,0.0,0.0,8.6632,0.0,0.0,0.0,9.0317,9.1303,9.1561,9.1616,9.1812,9.2416,9.2887,9.3511,9.4522,9.5463,9.6278,9.682,9.7377,9.7695,9.7687,9.7694,9.7695,9.7695,9.7695,9.7695,9.7695,9.8119,9.8735,9.9594,10.0506,10.1305,10.2086,10.2593,10.2789,10.2789,10.2789,10.2789,10.2789,10.2789,10.2789,10.2789,10.2789,10.2984,10.3491,10.3882,10.4311,10.4819,10.5717,10.6302,10.681,10.7708,10.802,10.802,10.802,10.802,10.802,6.3358,0.0,0.0,0.0,0.0,0.0,0.0,0.0,0.0,0.0,0.0,0.0,0.0,0.0,0.0,0.0,0.0,0.0,0.0,0.0,7.4938,7.4938,7.563,7.6015,7.6015,7.6015,7.6015,7.6015,0.0,0.0,0.0,0.0,0.0,0.0,0.0,0.0,0.0,0.0,0.0,7.9962,0.0,8.0806,8.1671,8.1865,8.208,8.2333,8.3221,8.4093,8.4834,8.4795,8.5198,8.5715,8.5656,8.5987,0.0,0.0,0.0,0.0,0.0,0.0,0.0,0.0,0.0,8.9094,0.0,0.0,0.0,9.1415,9.1436,9.1494,9.1733,9.2324,9.2813,9.286,9.4349,9.5547,9.5736,9.6731,9.7472,9.7701,9.7684,9.7694,9.7695,9.7694,9.7694,9.7695,9.7715,9.8085,9.8961,9.9836,10.0681,10.15,10.2281,10.2789,10.2789,10.2789,10.2789,10.2789,10.2789,10.2789,10.2789,10.2789,10.2789,10.2789,10.3491,10.3804,10.3882,10.4819,10.5092,10.5287,10.7083,10.7708,10.7786,10.7903,10.802,10.802,6.3589,6.3935,0.0,0.0,6.5667,6.6705,0.0,0.0,0.0,0.0,0.0,0.0,0.0,0.0,0.0,0.0,0.0,0.0,7.5707,0.0,0.0,7.5861,7.5938,7.6015,7.6015,7.6015,7.6015,7.6015,0.0,0.0,0.0,0.0,0.0,0.0,7.6823,0.0,0.0,0.0,7.9874,0.0,8.091,8.1787,0.0,8.278,8.3426,8.4208,8.4585,8.5271,8.5975,0.0,8.6261,8.6794,0.0,8.6517,8.6472,8.6384,0.0,0.0,0.0,0.0,0.0,0.0,8.8594,0.0,0.0,0.0,9.121,9.1206,0.0,9.1241,9.1275,0.0,0.0,9.1666,9.2522,9.3516,9.4483,9.5564,9.6641,9.7597,9.7682,9.7711,9.7695,9.7715,9.7711,9.7695,9.7687,9.8097,9.8931,9.9822,10.0681,10.15,10.2281,10.2789,10.2789,10.2789,10.2789,10.2789,10.2789,10.2789,10.2789,10.2789,10.2789,10.2789,10.2906,10.2906,10.2984,10.3882,10.4194,10.4389,10.6185,10.681,10.6888,10.7708,10.802,10.802,6.5743,0.0,0.0,0.0,6.7398,6.7859,6.7859,0.0,0.0,0.0,0.0,0.0,0.0,0.0,0.0,0.0,0.0,7.6015,0.0,0.0,0.0,7.6015,7.6015,7.6015,7.6015,7.6015,7.6015,7.6015,7.6015,0.0,0.0,0.0,0.0,0.0,7.7689,0.0,7.8903,0.0,8.0624,0.0,0.0,0.0,0.0,8.3438,8.4099,8.5517,8.5623,8.6211,8.6953,0.0,8.7336,0.0,0.0,0.0,0.0,0.0,0.0,0.0,0.0,0.0,0.0,0.0,0.0,0.0,9.062,0.0,9.1308,0.0,0.0,0.0,0.0,0.0,0.0,0.0,9.2141,9.2971,9.3413,9.499,9.6433,9.7343,9.7602,9.7701,9.7695,9.7684,9.7706,9.7715,9.7706,9.7845,9.8221,9.9548,10.0485,10.0798,10.2086,10.2789,10.2789,10.2789,10.2789,10.2789,10.2789,10.2789,10.2789,10.2789,10.2789,10.2789,10.2789,10.2789,10.2789,10.3218,10.3296,10.3491,10.4702,10.5482,10.6107,10.6888,10.72,10.7317,6.7949,0.0,0.0,0.0,0.0,0.0,6.9744,0.0,0.0,0.0,0.0,0.0,7.5014,7.563,0.0,0.0,0.0,7.6015,0.0,0.0,7.6245,0.0,0.0,0.0,0.0,7.6015,7.6015,7.6015,7.6245,0.0,0.0,0.0,0.0,0.0,0.0,7.9288,7.9933,0.0,8.1335,8.2806,8.2895,8.4031,8.5552,8.4637,8.5229,8.6562,8.6562,8.6953,8.7539,8.7734,8.8125,0.0,8.8048,0.0,0.0,0.0,0.0,0.0,8.8977,0.0,0.0,0.0,0.0,0.0,0.0,0.0,0.0,0.0,0.0,0.0,0.0,0.0,0.0,0.0,0.0,9.2372,9.2372,9.4001,9.5629,9.6715,9.7288,9.7617,9.7689,9.768,9.7701,9.7714,9.7714,9.7714,9.7714,9.9119,10.0095,10.029,10.1696,10.2593,10.2789,10.2789,10.2789,10.2789,10.2789,10.2789,10.2789,10.2789,10.2789,10.2789,10.2789,10.2789,10.2789,10.2789,10.2789,10.2906,10.3491,10.4116,10.4819,10.5912,10.6302,10.6497,6.9541,6.8989,0.0,0.0,0.0,0.0,0.0,0.0,0.0,0.0,0.0,0.0,0.0,0.0,0.0,0.0,0.0,7.6015,7.6015,0.0,7.6861,0.0,0.0,7.6861,0.0,0.0,7.6015,7.6015,0.0,0.0,0.0,0.0,0.0,0.0,7.9451,7.9895,8.0057,8.0988,8.1994,8.2999,8.2999,8.4223,8.6068,0.0,8.7254,8.7461,8.7461,0.0,0.0,8.8398,8.8594,0.0,0.0,0.0,0.0,0.0,0.0,0.0,0.0,0.0,0.0,9.0242,0.0,0.0,0.0,0.0,9.14,0.0,0.0,0.0,0.0,0.0,0.0,0.0,0.0,0.0,0.0,9.2195,9.362,9.5528,9.6681,9.7401,9.7682,9.7714,9.7714,9.7714,9.7714,9.7714,9.7714,9.8533,9.9431,10.029,10.111,10.1891,10.2789,10.2789,10.2789,10.2789,10.2789,10.2789,10.2789,10.2789,10.2789,10.2789,10.2789,10.2789,10.2789,10.2789,10.2789,10.2789,10.2789,10.2906,10.3101,10.4819,10.5404,10.5599,0.0,0.0,0.0,0.0,0.0,0.0,0.0,7.4284,0.0,0.0,0.0,0.0,0.0,0.0,7.6118,0.0,0.0,7.6966,7.6948,7.7718,0.0,0.0,0.0,7.7968,0.0,0.0,0.0,0.0,0.0,0.0,0.0,0.0,0.0,0.0,0.0,8.0867,0.0,0.0,0.0,0.0,0.0,8.6584,8.7754,0.0,0.0,8.8281,8.8281,8.8672,0.0,8.9453,8.9922,9.0312,9.0039,9.0619,9.1336,9.0742,9.0846,0.0,0.0,0.0,9.1438,9.1277,0.0,0.0,0.0,0.0,0.0,0.0,0.0,0.0,0.0,0.0,0.0,0.0,0.0,0.0,0.0,9.22,9.3607,9.5707,9.6898,9.7597,9.7675,9.7714,9.7714,9.7714,9.7714,9.7714,9.7714,9.8533,9.9392,10.029,10.111,10.1891,10.2789,10.2789,10.2789,10.2789,10.2789,10.2789,10.2789,10.2789,10.2789,10.2789,10.2789,10.2789,10.2789,10.2789,10.2789,10.2789,10.2789,10.2789,10.2906,10.4116,10.4506,10.4702,7.3665,0.0,0.0,0.0,0.0,0.0,0.0,0.0,0.0,0.0,7.6118,0.0,7.6623,0.0,7.6777,0.0,7.7626,7.7907,7.7824,7.8623,0.0,7.8594,7.8874,0.0,0.0,0.0,0.0,0.0,0.0,7.8968,0.0,0.0,0.0,0.0,0.0,8.181,8.1903,8.287,8.3863,0.0,0.0,8.8118,0.0,0.0,8.8711,8.914,0.0,8.9531,9.0039,9.0351,9.0859,9.125,9.1015,9.164,9.2344,9.1797,9.1892,9.2217,9.2178,9.2143,0.0,9.1975,9.1941,0.0,9.1813,0.0,0.0,0.0,0.0,0.0,0.0,0.0,0.0,0.0,0.0,0.0,0.0,9.2257,9.3439,9.5185,9.6395,9.7251,9.7675,9.7714,9.7714,9.7714,9.7714,9.7714,9.7714,9.8221,9.8924,9.9822,10.0603,10.15,10.2281,10.2593,10.2789,10.2789,10.2789,10.2789,10.2789,10.2789,10.2789,10.2789,10.2789,10.2789,10.2789,10.2789,10.2789,10.2789,10.2789,10.2789,10.2906,10.3413,10.3804,10.4311,0.0,0.0,0.0,0.0,7.4302,0.0,0.0,0.0,7.6237,0.0,7.6276,7.6584,7.7498,7.7575,7.7923,7.8772,7.8888,0.0,7.87,7.9566,0.0,0.0,7.9604,7.9709,7.8965,0.0,0.0,0.0,0.0,0.0,0.0,0.0,0.0,0.0,8.2301,0.0,8.2857,8.376,8.4856,8.612,8.7991,8.8788,8.8906,8.9765,9.0078,9.0117,9.0078,9.0078,9.0273,9.1094,9.1367,9.1523,9.2344,9.2617,9.2656,9.2656,9.2695,9.2695,9.2578,9.2539,9.2494,9.2284,0.0,0.0,0.0,0.0,9.2235,0.0,0.0,0.0,0.0,0.0,0.0,0.0,0.0,0.0,9.1566,9.2247,9.3126,9.4016,9.5223,9.6421,9.7581,9.7675,9.7714,9.7714,9.7714,9.7714,9.7714,9.7714,9.8104,9.8963,9.9861,10.0681,10.15,10.2398,10.2789,10.2789,10.2789,10.2789,10.2789,10.2789,10.2789,10.2789,10.2789,10.2789,10.2789,10.2789,10.2789,10.2789,10.2789,10.2789,10.2789,10.2789,10.3296,10.3999,7.5683,7.5839,7.5952,0.0,7.576,7.5941,0.0,0.0,0.0,0.0,7.7241,7.7614,7.8631,7.8771,7.8887,7.9211,7.9777,0.0,0.0,0.0,0.0,8.0817,8.0905,8.0895,8.0756,8.0635,0.0,8.0607,0.0,0.0,8.0954,0.0,0.0,0.0,0.0,8.3154,8.394,8.4792,8.6172,8.7913,8.9157,9.0056,9.0664,0.0,9.1367,9.1836,9.1211,9.1367,9.1953,9.2187,9.2265,9.2304,9.2539,9.3047,9.3554,9.3554,9.4023,9.4531,9.4492,9.4492,9.4414,9.4247,9.4186,9.4168,0.0,0.0,0.0,0.0,0.0,0.0,0.0,0.0,0.0,0.0,0.0,0.0,0.0,0.0,9.2749,9.4425,9.4918,9.5718,9.724,9.7593,9.7714,9.7714,9.7714,9.7714,9.7714,9.7714,9.8104,9.8963,9.9861,10.0681,10.15,10.2398,10.2789,10.2789,10.2789,10.2789,10.2789,10.2789,10.2789,10.2789,10.2789,10.2789,10.2789,10.2789,10.2789,10.2789,10.2789,10.2789,10.2789,10.2789,10.2906,10.3218,7.6536,0.0,0.0,7.7095,0.0,0.0,7.6984,0.0,0.0,7.8167,7.8283,0.0,7.9608,7.9774,8.0009,8.0456,8.0903,0.0,8.1058,0.0,0.0,8.1694,8.1605,8.1748,8.2187,8.2057,0.0,8.2019,0.0,0.0,8.1926,0.0,0.0,0.0,8.3734,8.4263,8.4933,8.6249,8.7681,8.9139,9.0172,9.0859,0.0,9.1719,9.2422,9.3086,9.2617,9.2734,9.3164,9.3164,9.3437,9.375,9.375,9.4062,9.4453,9.4453,9.4804,9.5195,9.5195,9.5195,9.5156,9.5078,9.5039,9.4998,9.4949,9.4934,9.4934,0.0,0.0,0.0,0.0,0.0,0.0,0.0,0.0,0.0,0.0,0.0,0.0,9.5006,9.5323,9.5859,9.7184,9.7544,9.7714,9.7714,9.7714,9.7714,0.0,9.7714,9.7909,9.8416,9.9666,10.0485,10.0993,10.2203,10.2789,10.2789,10.2789,10.2789,10.2789,10.2789,10.2789,10.2789,10.2789,10.2789,10.2789,10.2789,10.2789,10.2789,10.2789,10.2789,10.2789,10.2789,10.2789,10.2906,0.0,0.0,0.0,0.0,0.0,0.0,0.0,7.8224,0.0,7.9284,0.0,7.9748,8.0716,8.0919,8.1312,8.2229,0.0,8.2268,8.219,8.2229,8.2255,8.2196,8.222,8.2592,8.3328,8.3212,0.0,0.0,0.0,0.0,0.0,8.2934,8.3424,8.4327,8.5166,8.5669,8.6017,8.8026,8.9298,9.0064,9.109,9.1484,9.1562,9.2422,9.3242,9.3906,9.4023,9.4062,9.4062,9.4062,9.457,9.5195,9.5195,9.5273,9.5351,9.5351,9.5429,9.5547,9.5547,9.5547,9.5547,9.5547,9.5547,9.5547,9.5547,9.5547,9.5547,9.5547,9.5547,9.5547,0.0,0.0,0.0,9.539,0.0,0.0,0.0,0.0,0.0,0.0,9.5975,0.0,9.7252,9.7554,9.7714,9.7714,9.7714,9.7714,0.0,0.0,9.7714,9.7714,9.9275,10.0212,10.029,10.1813,10.2711,10.2789,10.2789,10.2789,10.2789,10.2789,10.2789,10.2789,10.2789,10.2789,10.2789,10.2789,10.2789,10.2789,10.2789,10.2789,10.2789,10.2789,10.2789,10.2789,0.0,0.0,0.0,0.0,0.0,7.9637,8.0362,7.97,7.9415,8.0222,8.0329,8.0987,8.2689,8.2878,8.3304,8.4284,8.437,0.0,0.0,0.0,0.0,8.419,8.41,8.41,8.427,8.4217,8.4183,0.0,0.0,0.0,0.0,0.0,8.4559,8.5282,8.5591,8.6559,8.8081,9.0022,0.0,9.1111,9.2029,9.2383,9.2461,9.3359,9.3789,9.3984,9.4726,9.4961,9.4961,9.4961,9.5078,9.5195,9.5195,9.5703,9.6289,9.6289,9.6758,9.7265,9.7265,9.7265,9.7265,9.7265,9.7265,9.7265,9.7265,9.7265,9.7265,9.7265,9.7265,9.7265,9.7265,0.0,0.0,0.0,0.0,0.0,0.0,0.0,0.0,0.0,9.6161,9.6497,9.7524,9.7667,9.7714,9.7714,9.7714,9.7714,0.0,0.0,9.7714,0.0,9.869,0.0,0.0,0.0,10.2086,10.2789,10.2789,10.2789,10.2789,10.2789,10.2789,10.2789,10.2789,10.2789,10.2789,10.2789,10.2789,10.2789,10.2789,10.2789,10.2789,10.2789,10.2789,10.2906,0.0,0.0,0.0,0.0,0.0,0.0,0.0,8.1909,0.0,8.2034,8.2068,8.2573,8.3952,8.4159,8.4356,8.4843,8.4883,8.4883,8.4883,8.4844,8.4804,8.4804,8.4745,0.0,8.5384,8.5306,8.5231,8.5195,0.0,0.0,0.0,0.0,8.5584,8.6282,8.6916,8.8222,9.0015,0.0,0.0,9.2031,9.2929,9.3281,9.3359,9.4258,9.4844,9.5312,9.5703,9.6133,9.6445,9.6015,9.6133,9.6484,9.6484,9.6797,9.7109,9.7109,9.7383,9.7695,9.7695,9.7695,9.7695,9.7695,9.7695,9.7695,9.7695,9.7695,9.7695,9.7695,9.7695,9.7695,9.7695,9.7695,0.0,0.0,0.0,0.0,0.0,0.0,9.649,0.0,0.0,0.0,9.7628,9.7554,9.7544,9.7675,9.7714,9.7714,9.7714,0.0,9.7714,0.0,0.0,0.0,10.029,0.0,0.0,10.2789,10.2789,10.2789,10.2789,10.2789,10.2789,10.2789,10.2789,10.2789,10.2789,10.2789,10.2789,10.2789,10.2789,10.2789,10.2789,10.2789,10.2789,10.2906,0.0,8.0144,0.0,0.0,8.1555,0.0,8.3633,8.3867,8.3828,8.3711,8.3699,8.4049,8.4903,8.527,8.5508,8.5703,8.5898,8.5976,8.5976,8.5976,8.5898,8.5703,8.5703,8.5937,8.6484,8.6367,8.6289,0.0,0.0,0.0,0.0,8.6217,8.6845,0.0,0.0,0.0,0.0,0.0,9.207,9.2929,9.3633,9.4023,9.4258,9.5156,9.5898,9.6523,9.6679,9.7148,9.7617,9.6953,9.7187,9.7695,9.7695,9.7695,9.7695,9.7695,9.7695,9.7695,9.7695,9.7695,9.7695,9.7695,9.7695,9.7695,9.7695,9.7695,9.7695,9.7695,9.7695,9.7695,9.7695,9.7695,0.0,0.0,0.0,0.0,0.0,0.0,0.0,0.0,0.0,0.0,9.7714,9.7522,9.7472,9.7667,9.7659,9.7659,9.7714,0.0,0.0,0.0,0.0,9.9236,10.029,0.0,10.1813,10.2789,10.2789,10.2789,10.2789,10.2789,10.2789,10.2789,10.2789,10.2789,10.2789,10.2789,10.2789,10.2789,10.2789,10.2789,10.2789,10.2789,10.2906,10.3218,0.0,0.0,0.0,0.0,0.0,0.0,8.4648,8.4765,8.4765,8.4765,8.4764,8.5071,8.5969,8.6796,8.7539,8.8281,8.9062,8.9531,8.9531,8.9531,8.9179,8.8398,8.8359,8.8047,8.7383,8.7383,8.7265,0.0,0.0,0.0,0.0,0.0,0.0,0.0,0.0,0.0,0.0,9.2148,9.2969,9.3789,9.3867,9.4375,9.5156,9.6054,9.6445,9.6601,9.7344,9.7656,9.7695,9.7617,9.7656,9.7695,9.7695,9.7695,9.7695,9.7695,9.7695,9.7695,9.7695,9.7695,9.7695,9.7695,9.7695,9.7695,9.7695,9.7695,9.7695,9.7695,9.7695,9.7695,9.7695,9.7695,9.7695,0.0,0.0,0.0,0.0,0.0,9.7695,9.7695,0.0,0.0,9.7721,9.7667,9.7667,9.7714,9.7472,9.746,0.0,0.0,0.0,9.7714,9.7792,9.8612,10.029,10.0407,10.1188,10.2789,10.2789,10.2789,10.2789,10.2789,10.2789,10.2789,10.2789,10.2789,10.2789,10.2789,10.2789,10.2789,10.2789,10.2789,10.2789,10.2789,10.3296,10.4116,0.0,0.0,0.0,0.0,0.0,0.0,0.0,8.6445,8.6836,8.7812,8.7109,8.6992,8.832,8.8789,8.914,8.9453,8.9804,9.0,9.0,9.0,8.9844,8.9492,8.9492,8.9336,8.9023,8.8984,8.8945,0.0,0.0,0.0,0.0,0.0,0.0,0.0,0.0,9.1601,9.2148,9.3008,9.3594,9.3984,9.5039,9.5664,9.6054,9.6914,9.7226,9.7265,9.7578,9.7695,9.7695,9.7695,9.7695,9.7695,9.7695,9.7695,9.7695,9.7695,9.7695,9.7695,9.7695,9.7695,9.7695,9.7695,9.7695,9.7695,9.7695,9.7695,9.7695,9.7695,9.7695,9.7695,9.7695,9.7695,9.7695,0.0,0.0,0.0,0.0,0.0,0.0,9.7695,0.0,9.7684,9.7682,9.7558,9.7518,9.7675,9.7602,0.0,0.0,0.0,0.0,9.7714,0.0,9.908,10.029,10.0798,10.1618,10.2789,10.2789,10.2789,10.2789,10.2789,10.2789,10.2789,10.2789,10.2789,10.2789,10.2789,10.2789,10.2789,10.2789,10.2789,10.2789,10.2789,10.3413,10.4194,8.3984,0.0,8.5429,0.0,8.6015,8.6601,8.8359,8.8398,8.875,9.0195,8.9336,8.8984,8.9883,9.0234,9.039,9.039,9.0625,9.0742,9.0742,9.0742,9.0664,9.039,9.039,0.0,9.0,9.0,9.0,9.0,9.0,0.0,0.0,0.0,0.0,0.0,9.1953,9.2422,9.3047,9.3906,9.4414,9.4765,9.6015,9.664,9.6914,9.7461,9.7695,9.7695,9.7695,9.7695,9.7695,9.7695,9.7695,9.7695,9.7695,9.7695,9.7695,9.7695,9.7695,9.7695,9.7695,9.7695,9.7695,9.7695,9.7695,9.7695,9.7695,9.7695,9.7695,9.7695,9.7695,9.7695,9.7695,9.7695,9.7695,9.7695,0.0,0.0,0.0,9.7695,0.0,9.7691,9.7693,9.7687,9.7682,9.7518,9.7518,9.7675,0.0,0.0,0.0,0.0,0.0,0.0,0.0,0.0,10.029,10.111,10.1891,10.2789,10.2789,10.2789,10.2789,10.2789,10.2789,10.2789,10.2789,10.2789,10.2789,10.2789,10.2789,10.2789,10.2789,10.2789,10.2789,10.2789,10.3491,10.4584,8.4883,8.5586,8.6719,8.8359,8.8633,8.9258,9.0976,9.0508,9.0273,9.1172,9.1289,9.0937,9.0078,9.0781,9.1289,9.1289,9.207,9.2578,9.2578,9.2578,9.2187,0.0,0.0,9.0898,9.0039,9.0,9.0,9.0,0.0,0.0,8.8711,0.0,9.0937,9.2617,9.3476,9.3867,9.3945,9.4804,9.5664,9.6484,9.6484,9.6992,9.7695,9.7695,9.7695,9.7695,9.7695,9.7695,9.7695,9.7695,9.7695,9.7695,9.7695,9.7695,9.7695,9.7695,9.7695,9.7695,9.7695,9.7695,9.7695,9.7695,9.7695,9.7695,9.7695,9.7695,9.7695,9.7695,9.7695,9.7695,9.7695,9.7695,9.7695,9.7695,0.0,0.0,0.0,9.7695,0.0,9.7689,9.7706,9.7711,9.7721,9.7714,9.7714,9.7714,0.0,0.0,0.0,0.0,0.0,9.7714,9.8533,0.0,10.029,10.111,10.1891,10.2789,10.2789,10.2789,10.2789,10.2789,10.2789,10.2789,10.2789,10.2789,10.2789,10.2789,10.2789,10.2789,10.2789,10.2789,10.2789,10.2789,10.3882,10.5404,8.75,8.8672,8.9648,8.9609,8.9609,8.9961,9.1133,9.1054,9.1406,9.289,9.3086,9.3203,9.3515,9.2734,9.2422,0.0,9.332,9.375,0.0,9.4375,9.4258,9.3984,9.3945,9.3554,9.2695,9.2656,9.2383,9.1758,0.0,0.0,0.0,9.2265,9.2969,9.3515,9.4414,9.4804,9.4844,9.5703,9.625,9.6562,9.7109,9.7461,9.7695,9.7695,9.7695,9.7695,9.7695,9.7695,9.7695,9.7695,9.7695,9.7695,9.7695,9.7695,9.7695,9.7695,9.7695,9.7695,9.7695,9.7695,9.7695,9.7695,9.7695,9.7695,9.7695,9.7695,9.7695,9.7695,9.7695,9.7695,9.7695,9.7695,9.7695,9.7695,9.7695,0.0,9.7695,0.0,9.7695,9.7689,9.7711,9.7689,9.7714,9.7714,0.0,0.0,0.0,0.0,0.0,0.0,0.0,0.0,9.9119,0.0,10.029,10.1696,10.2515,10.2789,10.2789,10.2789,10.2789,10.2789,10.2789,10.2789,10.2789,10.2789,10.2789,10.2789,10.2789,10.2789,10.2789,10.2789,10.2789,10.2789,10.3882,10.5404,8.9179,9.0312,9.1211,9.1015,9.125,9.1758,9.2617,9.2773,9.3164,9.4258,9.4375,9.4609,9.5156,9.4219,0.0,9.4336,9.4375,9.4609,9.5156,9.5195,9.5195,9.5195,9.5195,9.4961,9.4414,9.4375,0.0,9.3594,9.3594,9.3594,9.3594,9.414,9.4375,9.4414,9.5312,9.5703,9.5742,9.6601,9.6953,9.6992,9.75,9.7695,9.7695,9.7695,9.7695,9.7695,9.7695,9.7695,9.7695,9.7695,9.7695,9.7695,9.7695,9.7695,9.7695,9.7695,9.7695,9.7695,9.7695,9.7695,9.7695,9.7695,9.7695,9.7695,9.7695,9.7695,9.7695,9.7695,9.7695,9.7695,9.7695,9.7695,9.7695,9.7695,9.7695,9.7695,9.7695,0.0,9.7695,0.0,0.0,0.0,0.0,9.7689,9.7695,0.0,0.0,0.0,0.0,0.0,0.0,9.8182,9.9548,0.0,10.0681,10.2086,10.2789,10.2789,10.2789,10.2789,10.2789,10.2789,10.2789,10.2789,10.2789,10.2789,10.2789,10.2789,10.2789,10.2789,10.2789,10.2789,10.2789,10.2789,10.3882,10.5404,9.0195,9.0937,9.1797,0.0,9.3398,0.0,9.5078,9.5195,9.5234,9.5273,9.5273,9.5312,9.5351,9.5351,9.5351,9.5351,0.0,0.0,0.0,9.5351,9.5351,9.5351,9.5351,9.5351,9.5273,9.5273,9.5273,9.5195,9.5195,9.5195,9.5195,9.5273,9.5273,9.5312,9.6211,9.6562,9.664,9.7383,9.7695,9.7695,9.7695,9.7695,9.7695,9.7695,9.7695,9.7695,9.7695,9.7695,9.7695,9.7695,9.7695,9.7695,9.7695,9.7695,9.7695,9.7695,9.7695,9.7695,9.7695,9.7695,9.7695,9.7695,9.7695,9.7695,9.7695,9.7695,9.7695,9.7695,9.7695,9.7695,9.7695,9.7695,9.7695,9.7695,9.7695,9.7695,9.7695,9.7695,9.7695,0.0,0.0,0.0,0.0,9.7706,9.7719,0.0,0.0,0.0,0.0,0.0,9.8135,9.8963,9.9892,10.0712,10.15,10.2398,10.2789,10.2789,10.2789,10.2789,10.2789,10.2789,10.2789,10.2789,10.2789,10.2789,10.2789,10.2789,10.2789,10.2789,10.2789,10.2789,10.2789,10.2789,10.3882,10.5404,0.0,0.0,9.414,9.3672,9.4297,9.4961,9.5156,9.5195,9.5429,9.6094,9.6172,9.6445,9.7031,9.7109,9.7109,9.7109,9.6562,9.6445,9.707,9.7109,9.7109,9.7109,9.7109,9.6836,9.6211,9.6172,9.5859,9.5195,9.5195,9.5195,9.5195,9.5898,9.6172,9.6211,9.7031,9.7422,9.7422,9.7617,9.7695,9.7695,9.7695,9.7695,9.7695,9.7695,9.7695,9.7695,9.7695,9.7695,9.7695,9.7695,9.7695,9.7695,9.7695,9.7695,9.7695,9.7695,9.7695,9.7695,9.7695,9.7695,9.7695,9.7695,9.7695,9.7695,9.7695,9.7695,9.7695,9.7695,9.7695,9.7695,9.7695,9.7695,9.7695,9.7695,9.7695,9.7695,9.7695,9.7695,9.7695,0.0,9.7695,9.7695,9.7691,9.7711,9.7701,0.0,0.0,0.0,0.0,9.8497,9.8564,9.9002,10.0292,10.1189,10.15,10.2398,10.2789,10.2789,10.2789,10.2789,10.2789,10.2789,10.2789,10.2789,10.2789,10.2789,10.2789,10.2789,10.2789,10.2789,10.2789,10.2789,10.2789,10.2789,10.3882,10.5404,9.3711,9.4531,9.5039,9.457,9.5234,9.5781,9.5781,9.6094,9.6523,9.6992,9.7031,9.7226,9.7656,9.7695,9.7695,9.7695,9.7304,9.7226,9.7656,9.7695,9.7695,9.7695,9.7695,9.75,9.707,9.7031,9.6836,9.6328,9.6328,9.6328,9.6367,9.6836,9.7031,9.707,9.75,9.7695,9.7695,9.7695,9.7695,9.7695,9.7695,9.7695,9.7695,9.7695,9.7695,9.7695,9.7695,9.7695,9.7695,9.7695,9.7695,9.7695,9.7695,9.7695,9.7695,9.7695,9.7695,9.7695,9.7695,9.7695,9.7695,9.7695,9.7695,9.7812,9.8203,9.8281,9.8398,9.8828,9.8554,9.8281,9.8281,9.7969,9.7695,9.7695,9.7695,9.7695,9.7695,9.7695,9.7695,9.7695,9.7695,9.7695,9.7695,9.7711,9.7877,9.8247,9.8274,0.0,9.9548,9.9722,9.9904,10.0095,10.0801,10.1503,10.2086,10.2593,10.2789,10.2789,10.2789,10.2789,10.2789,10.2789,10.2789,10.2789,10.2789,10.2789,10.2789,10.2789,10.2789,10.2789,10.2789,10.2789,10.2789,10.2789,10.3882,10.5404,9.5039,9.5312,9.539,9.539,9.6094,9.6679,9.6679,9.7265,9.7695,9.7695,9.7695,9.7695,9.7695,9.7695,9.7695,9.7695,9.7695,9.7695,9.7695,9.7695,9.7695,9.7695,9.7695,9.7695,9.7695,9.7695,9.7695,9.7695,9.7695,9.7695,9.7695,9.7695,9.7695,9.7695,9.7695,9.7695,9.7695,9.7695,9.7695,9.7695,9.7695,9.7695,9.7695,9.7695,9.7695,9.7695,9.7695,9.7695,9.7695,9.7695,9.7695,9.7695,9.7695,9.7773,9.789,9.789,9.8008,9.8047,9.7773,9.7812,9.7929,9.8047,9.8086,9.8281,9.9023,9.9219,9.9414,10.0117,9.9726,9.9219,9.9219,9.8594,9.8086,9.8086,9.8086,9.8047,9.789,0.0,9.789,9.789,9.789,9.7969,9.8086,9.8106,9.8385,9.9158,9.9197,9.9588,10.0407,10.0892,10.1386,10.1696,10.1516,10.1815,10.2789,10.2789,10.2789,10.2789,10.2789,10.2789,10.2789,10.2789,10.2789,10.2789,10.2789,10.2789,10.2789,10.2789,10.2789,10.2789,10.2789,10.2789,10.2789,10.2789,10.3804,10.5209,9.5156,9.5781,9.6289,9.6289,9.6953,9.75,9.75,9.7617,9.7695,9.7695,9.7695,9.7695,9.7695,9.7695,9.7695,9.7695,9.7695,9.7695,9.7695,9.7695,9.7695,9.7695,9.7695,9.7695,9.7695,9.7695,9.7695,9.7695,9.7695,9.7695,9.7695,9.7695,9.7695,9.7695,9.7695,9.7695,9.7695,9.7695,9.7695,9.7695,9.7695,9.7695,9.7695,9.7695,9.7695,9.7695,9.7695,9.7695,9.7695,9.7695,9.7695,9.7695,9.7695,9.8203,9.8789,9.8789,9.9336,9.957,9.8086,9.8242,9.8984,9.9726,9.9883,9.9922,10.0117,10.0117,10.0117,10.0312,10.0195,10.0117,10.0117,10.0,9.9883,9.9883,9.9883,9.9648,9.8906,0.0,9.8789,9.8789,9.8789,9.9101,9.9844,9.9913,9.9932,10.0095,10.0095,10.0485,10.1305,10.1204,10.162,10.2593,10.2413,10.2517,10.2789,10.2789,10.2789,10.2789,10.2789,10.2789,10.2789,10.2789,10.2789,10.2789,10.2789,10.2789,10.2789,10.2789,10.2789,10.2789,10.2789,10.2789,10.2789,10.2789,10.3413,10.4389,9.6445,9.6875,9.7148,9.7148,9.7461,9.7695,9.7695,9.7695,9.7695,9.7695,9.7695,9.7695,9.7695,9.7695,9.7695,9.7695,9.7695,9.7695,9.7695,9.7695,9.7695,9.7695,9.7695,9.7695,9.7695,9.7695,9.7695,9.7695,9.7695,9.7695,9.7695,9.7695,9.7695,9.7695,9.7695,9.7695,9.7695,9.7695,9.7695,9.7695,9.7695,9.7695,9.7695,9.7695,9.7695,9.7695,9.7695,9.7695,9.7773,9.8242,9.8398,9.8476,9.8945,9.9375,9.9687,9.9687,9.9961,10.0117,9.9336,9.9375,9.9804,10.0195,10.0312,10.039,10.0898,10.1015,10.1094,10.1601,10.1289,10.1015,10.1015,10.0586,10.0312,10.0312,10.0312,0.0,0.0,9.9687,9.9687,9.9687,9.9687,9.9844,10.0312,10.0306,10.0484,10.0993,10.0993,10.1305,10.2203,10.208,10.2314,10.2789,10.2704,10.2704,10.2789,10.2789,10.2789,10.2789,10.2789,10.2789,10.2789,10.2789,10.2789,10.2789,10.2789,10.2789,10.2789,10.2789,10.2789,10.2789,10.2789,10.2789,10.2789,10.2789,10.3413,10.4194,9.7578,9.7695,9.7695,9.7695,9.7695,9.7695,9.7695,9.7695,9.7695,9.7695,9.7695,9.7695,9.7695,9.7695,9.7695,9.7695,9.7695,9.7695,9.7695,9.7695,9.7695,9.7695,9.7695,9.7695,9.7695,9.7695,9.7695,9.7695,9.7695,9.7695,9.7695,9.7695,9.7695,9.7695,9.7695,9.7695,9.7695,9.7695,9.7695,9.7695,9.7695,9.7695,9.7695,9.7695,9.7695,9.7734,9.7929,9.8008,9.8125,9.9023,9.9297,9.9414,10.0117,10.039,10.0586,10.0586,10.0703,10.0898,10.0703,10.0586,10.0703,10.0898,10.0898,10.1094,10.1719,10.1914,10.2109,10.2812,10.2383,10.1914,10.1914,10.1406,10.0898,10.0898,0.0,0.0,0.0,10.0586,10.0586,10.0586,10.0586,10.0703,10.0898,10.0892,10.1187,10.1891,10.1813,10.2086,10.2789,10.2789,10.2789,10.2789,10.2789,10.2789,10.2789,10.2789,10.2789,10.2789,10.2789,10.2789,10.2789,10.2789,10.2789,10.2789,10.2789,10.2789,10.2789,10.2789,10.2789,10.2789,10.2789,10.2789,10.2789,10.2789,10.3218,10.3804,9.7695,9.7695,9.7695,9.7695,9.7695,9.7695,9.7695,9.7695,9.7695,9.7695,9.7695,9.7695,9.7695,9.7695,9.7695,9.7695,9.7695,9.7695,9.7695,9.7695,9.7695,9.7695,9.7695,9.7695,9.7695,9.7695,9.7695,9.7695,9.7695,9.7695,9.7695,9.7695,9.7695,9.7695,9.7695,9.7695,9.7695,9.7695,9.7695,9.7695,9.7695,9.7695,9.7695,9.7695,9.7695,9.7812,9.8594,9.8906,9.9023,9.9922,10.0195,10.0195,10.0312,10.0898,10.1484,10.1484,10.2109,10.25,10.1719,10.1484,10.1719,10.25,10.2695,10.2695,10.2812,10.2812,10.2812,10.289,10.2812,10.2812,10.2812,10.2812,10.2695,10.2695,0.0,0.0,10.1601,10.1484,10.1484,10.1484,10.1484,10.1797,10.2617,10.2689,10.271,10.2789,10.2711,10.2711,10.2789,10.2789,10.2789,10.2789,10.2789,10.2789,10.2789,10.2789,10.2789,10.2789,10.2789,10.2789,10.2789,10.2789,10.2789,10.2789,10.2789,10.2789,10.2789,10.2789,10.2789,10.2789,10.2789,10.2789,10.2789,10.2789,10.2789,10.2984,9.7695,9.7695,9.7695,9.7695,9.7695,9.7695,9.7695,9.7695,9.7695,9.7695,9.7695,9.7695,9.7695,9.7695,9.7695,9.7695,9.7695,9.7695,9.7695,9.7695,9.7695,9.7695,9.7695,9.7695,9.7695,9.7695,9.7695,9.7695,9.7695,9.7695,9.7695,9.7695,9.7695,9.7695,9.7695,9.7695,9.7695,9.7695,9.7695,9.7695,9.7695,9.7695,9.7695,9.7695,9.8047,9.8554,9.8867,9.9336,9.9922,10.0781,10.1094,10.1211,10.1719,10.2109,10.2383,10.2383,10.2617,10.2812,10.25,10.2383,10.25,10.2812,10.289,10.289,10.289,10.289,10.289,10.289,10.289,10.289,10.289,10.289,10.289,10.289,0.0,10.2812,10.25,10.2383,10.2383,10.2383,10.2383,10.25,10.289,10.2884,10.2905,10.2906,10.2789,10.2789,10.2789,10.2789,10.2789,10.2789,10.2789,10.2789,10.2789,10.2789,10.2789,10.2789,10.2789,10.2789,10.2789,10.2789,10.2789,10.2789,10.2789,10.2789,10.2789,10.2789,10.2789,10.2789,10.2789,10.2789,10.2789,10.2789,10.2789,10.2781,9.7695,9.7695,9.7695,9.7695,9.7695,9.7695,9.7695,9.7695,9.7695,9.7695,9.7695,9.7695,9.7695,9.7695,9.7695,9.7695,9.7695,9.7695,9.7695,9.7695,9.7695,9.7695,9.7695,9.7695,9.7695,9.7695,9.7695,9.7695,9.7695,9.7695,9.7695,9.7695,9.7695,9.7695,9.7695,9.7695,9.7695,9.7695,9.7695,9.7695,9.7695,9.7851,9.8125,9.8125,9.8633,9.9453,9.9726,10.0195,10.0781,10.1719,10.1992,10.2109,10.2695,10.289,10.289,10.289,10.289,10.289,10.289,10.289,10.289,10.289,10.289,10.289,10.289,10.289,10.289,10.289,10.289,10.289,10.289,10.289,10.289,10.289,10.289,10.289,10.289,10.289,10.289,10.289,10.289,10.289,10.2889,10.2882,10.2905,10.2906,10.2789,10.2789,10.2789,10.2789,10.2789,10.2789,10.2789,10.2789,10.2789,10.2789,10.2789,10.2789,10.2789,10.2789,10.2789,10.2789,10.2789,10.2789,10.2789,10.2789,10.2789,10.2789,10.2789,10.2789,10.2789,10.2789,10.2789,10.2789,10.2789,10.2811,9.7695,9.7695,9.7695,9.7695,9.7695,9.7695,9.7695,9.7695,9.7695,9.7695,9.7695,9.7695,9.7695,9.7695,9.7695,9.7695,9.7695,9.7695,9.7695,9.7695,9.7695,9.7695,9.7695,9.7695,9.7695,9.7695,9.7695,9.7695,9.7695,9.7695,9.7695,9.7695,9.7695,9.7695,9.7695,9.7695,9.7695,9.7695,9.7695,9.7695,9.7695,9.8242,9.9023,9.9023,9.9531,10.039,10.1289,10.1601,10.1719,10.2617,10.289,10.289,10.289,10.289,10.289,10.289,10.289,10.289,10.289,10.289,10.289,10.289,10.289,10.289,10.289,10.289,10.289,10.289,10.289,10.289,10.289,10.289,10.289,10.289,10.289,10.289,10.289,10.289,10.289,10.289,10.289,10.2889,10.2917,10.2914,10.2905,10.2906,10.2789,10.2789,10.2789,10.2789,10.2789,10.2789,10.2789,10.2789,10.2789,10.2789,10.2789,10.2789,10.2789,10.2789,10.2789,10.2789,10.2789,10.2789,10.2789,10.2789,10.2789,10.2789,10.2789,10.2789,10.2789,10.2789,10.2789,10.2789,10.2789,10.2811,9.7695,9.7695,9.7695,9.7695,9.7695,9.7695,9.7695,9.7695,9.7695,9.7695,9.7695,9.7695,9.7695,9.7695,9.7695,9.7695,9.7695,9.7695,9.7695,9.7695,9.7695,9.7695,9.7695,9.7695,9.7695,9.7695,9.7695,9.7695,9.7695,9.7695,9.7695,9.7695,9.7695,9.7695,9.7695,9.7695,9.7695,9.7695,9.8047,9.8594,9.8594,9.914,9.9922,9.9922,10.0508,10.1211,10.1484,10.1992,10.2617,10.2812,10.289,10.289,10.289,10.289,10.289,10.289,10.289,10.289,10.289,10.289,10.289,10.289,10.289,10.289,10.289,10.289,10.289,10.289,10.289,10.289,10.289,10.289,10.289,10.289,10.289,10.289,10.289,10.289,10.289,10.289,10.289,10.2889,10.2917,10.2914,10.2905,10.2906,10.2789,10.2789,10.2789,10.2789,10.2789,10.2789,10.2789,10.2789,10.2789,10.2789,10.2789,10.2789,10.2789,10.2789,10.2789,10.2789,10.2789,10.2789,10.2789,10.2789,10.2789,10.2789,10.2789,10.2789,10.2789,10.2789,10.2789,10.2789,10.2789,10.2685,9.7695,9.7695,9.7695,9.7695,9.7695,9.7695,9.7695,9.7695,9.7695,9.7695,9.7695,9.7695,9.7695,9.7695,9.7695,9.7695,9.7695,9.7695,9.7695,9.7695,9.7695,9.7695,9.7695,9.7695,9.7695,9.7695,9.7695,9.7695,9.7695,9.7695,9.7695,9.7695,9.7695,9.7695,9.7695,9.7695,9.7734,9.8086,9.8515,9.9023,9.9375,10.0,10.0781,10.0781,10.1406,10.2109,10.2109,10.25,10.289,10.289,10.289,10.289,10.289,10.289,10.289,10.289,10.289,10.289,10.289,10.289,10.289,10.289,10.289,10.289,10.289,10.289,10.289,10.289,10.289,10.289,10.289,10.289,10.289,10.289,10.289,10.289,10.289,10.289,10.289,10.289,10.289,10.2889,10.2917,10.2914,10.2905,10.2906,10.2789,10.2789,10.2789,10.2789,10.2789,10.2789,10.2789,10.2789,10.2789,10.2789,10.2789,10.2789,10.2789,10.2789,10.2789,10.2789,10.2789,10.2789,10.2789,10.2789,10.2789,10.2789,10.2789,10.2789,10.2704,10.2694,10.2683,10.2595,10.249,10.2499,9.7695,9.7695,9.7695,9.7695,9.7695,9.7695,9.7695,9.7695,9.7695,9.7695,9.7695,9.7695,9.7695,9.7695,9.7695,9.7695,9.7695,9.7695,9.7695,9.7695,9.7695,9.7695,9.7695,9.7695,9.7695,9.7695,9.7695,9.7695,9.7695,9.7695,9.7695,9.7695,9.7695,9.7695,9.7773,9.7812,9.7851,9.875,9.914,9.9297,10.0117,10.0898,10.1719,10.1719,10.2187,10.289,10.289,10.289,10.289,10.289,10.289,10.289,10.289,10.289,10.289,10.289,10.289,10.289,10.289,10.289,10.289,10.289,10.289,10.289,10.289,10.289,10.289,10.289,10.289,10.289,10.289,10.289,10.289,10.289,10.289,10.289,10.289,10.289,10.289,10.289,10.289,10.2889,10.2917,10.2914,10.29,10.2789,10.2789,10.2789,10.2789,10.2789,10.2789,10.2789,10.2789,10.2789,10.2789,10.2789,10.2789,10.2789,10.2789,10.2789,10.2789,10.2789,10.2789,10.2789,10.2789,10.2789,10.2789,10.2789,10.2781,10.2811,10.262,10.2507,10.2396,10.2222,10.2094,10.2109,9.7695,9.7695,9.7695,9.7695,9.7695,9.7695,9.7695,9.7695,9.7695,9.7695,9.7695,9.7695,9.7695,9.7695,9.7695,9.7695,9.7695,9.7695,9.7695,9.7695,9.7695,9.7695,9.7695,9.7695,9.7695,9.7695,9.7695,9.7695,9.7695,9.7695,9.7695,9.7695,9.7695,9.7734,9.8398,9.8711,9.8789,9.9648,10.039,10.1094,10.1211,10.1797,10.2617,10.2617,10.2695,10.289,10.289,10.289,10.289,10.289,10.289,10.289,10.289,10.289,10.289,10.289,10.289,10.289,10.289,10.289,10.289,10.289,10.289,10.289,10.289,10.289,10.289,10.289,10.289,10.289,10.289,10.289,10.289,10.289,10.289,10.289,10.289,10.289,10.289,10.289,10.289,10.289,10.2889,10.291,10.2913,10.2789,10.2789,10.2789,10.2789,10.2789,10.2789,10.2789,10.2789,10.2789,10.2789,10.2789,10.2789,10.2789,10.2789,10.2789,10.2789,10.2789,10.2789,10.2789,10.2789,10.2789,10.2789,10.2789,10.2704,10.2607,10.2499,10.24,10.2201,10.2117,10.2094,10.2109,9.7695,9.7695,9.7695,9.7695,9.7695,9.7695,9.7695,9.7695,9.7695,9.7695,9.7695,9.7695,9.7695,9.7695,9.7851,9.8281,9.832,9.8515,9.8906,9.8945,9.8945,9.8945,9.8945,9.8945,9.8945,9.8945,9.8515,9.7695,9.8125,9.832,9.832,9.875,9.8945,9.8945,9.9414,9.9609,9.9687,10.0586,10.1211,10.1601,10.2109,10.25,10.289,10.289,10.289,10.289,10.289,10.289,10.289,10.289,10.289,10.289,10.289,10.289,10.289,10.289,10.289,10.289,10.289,10.289,10.289,10.289,10.289,10.289,10.289,10.289,10.289,10.289,10.289,10.289,10.289,10.289,10.289,10.289,10.289,10.289,10.289,10.289,10.289,10.289,10.289,10.289,10.289,10.2917,10.2888,10.2789,10.2789,10.2789,10.2789,10.2789,10.2789,10.2789,10.2789,10.2789,10.2789,10.2789,10.2789,10.2789,10.2789,10.2789,10.2789,10.2789,10.2789,10.2789,10.2789,10.2789,10.2789,10.2789,10.2694,10.2507,10.2381,10.2101,10.1891,10.1826,10.1727,10.1696,9.7695,9.7695,9.7695,9.7695,9.7695,9.7695,9.7695,9.7695,9.7695,9.7695,9.7812,9.7929,9.7929,9.8047,9.8437,9.914,9.9219,9.9531,10.0312,10.0312,10.0312,10.0312,10.0312,10.0312,10.0312,10.0312,9.9609,9.8125,9.8867,9.9219,9.9258,9.9961,10.0312,10.0312,10.0508,10.0508,10.0586,10.1484,10.1797,10.1914,10.2617,10.289,10.289,10.289,10.289,10.289,10.289,10.289,10.289,10.289,10.289,10.289,10.289,10.289,10.289,10.289,10.289,10.289,10.289,10.289,10.289,10.289,10.289,10.289,10.289,10.289,10.289,10.289,10.289,10.289,10.289,10.289,10.289,10.289,10.289,10.289,10.289,10.289,10.289,10.289,10.289,10.289,10.289,10.2884,10.2905,10.2789,10.2789,10.2789,10.2789,10.2789,10.2789,10.2789,10.2789,10.2789,10.2789,10.2789,10.2789,10.2789,10.2789,10.2789,10.2789,10.2789,10.2789,10.2789,10.2789,10.282,10.2685,10.2685,10.2608,10.2303,10.2117,10.1902,10.1606,10.1404,10.1289,10.1289,9.7695,9.7695,9.7695,9.7695,9.7695,9.7695,9.7695,9.7695,9.7695,9.7695,9.8359,9.8828,9.8828,9.9492,10.0,10.0117,10.0117,10.0195,10.0312,10.0312,10.0312,10.0312,10.0312,10.0312,10.0312,10.0312,10.0195,9.9961,10.0117,10.0117,10.0117,10.0195,10.0312,10.0312,10.1094,10.1406,10.1484,10.2383,10.2695,10.2695,10.289,10.289,10.289,10.289,10.289,10.289,10.289,10.289,10.289,10.289,10.289,10.289,10.289,10.289,10.289,10.289,10.289,10.289,10.289,10.289,10.289,10.289,10.289,10.289,10.289,10.289,10.289,10.289,10.289,10.289,10.289,10.289,10.289,10.289,10.289,10.289,10.289,10.289,10.289,10.289,10.289,10.289,10.289,10.2884,10.2905,10.2906,10.2789,10.2789,10.2789,10.2789,10.2789,10.2789,10.2789,10.2789,10.2789,10.2789,10.2789,10.2789,10.2789,10.2789,10.2789,10.2789,10.2789,10.2789,10.2789,10.2704,10.2514,10.2514,10.2303,10.1778,10.1826,10.1606,10.1289,10.1289,10.1289,10.1289,9.7695,9.7695,9.7695,9.7695,9.7695,9.7851,9.8359,9.8437,9.8594,9.9101,9.9492,9.9726,9.9726,10.0117,10.0508,10.1015,10.1015,10.1211,10.1719,10.1797,10.1797,10.1797,10.1797,10.1797,10.1797,10.1797,10.1797,10.1797,10.1289,10.1015,10.1015,10.1484,10.1797,10.1797,10.2187,10.2304,10.2383,10.2695,10.289,10.289,10.289,10.289,10.289,10.289,10.289,10.289,10.289,10.289,10.289,10.289,10.289,10.289,10.289,10.289,10.289,10.289,10.289,10.289,10.289,10.289,10.289,10.289,10.289,10.289,10.289,10.289,10.289,10.289,10.289,10.289,10.289,10.289,10.289,10.289,10.289,10.289,10.289,10.289,10.289,10.289,10.289,10.289,10.289,10.2884,10.2905,10.2906,10.2789,10.2789,10.2789,10.2789,10.2789,10.2789,10.2789,10.2789,10.2789,10.2789,10.2789,10.2789,10.2789,10.2789,10.2789,10.2789,10.2789,10.2789,10.2694,10.2582,10.2507,10.2285,10.2007,10.1696,10.1696,10.1504,10.1289,10.1289,10.1289,10.1289]},{"header":{"parameterUnit":"m.s-1","parameterCategory":1,"la1":30.6,"la2":28.766,"lo1":-90.7593,"lo2":-88.6598,"dy":0.0162,"dx":0.0183,"nx":116,"ny":114,"refTime":"2023-10-11T12:00:00:Z","depth":0,"parameterNumber":3,"parameterNumberName":"V-component_of_WINDS"},"data":[0.0,0.0,0.0,0.0,0.0,0.0,0.0,0.0,0.0,0.0,0.0,0.0,0.0,0.0,0.0,0.0,0.0,0.0,0.0,0.0,0.0,0.0,0.0,0.0,0.0,0.0,0.0,0.0,0.0,0.0,0.0,0.0,0.0,0.0,0.0,0.0,0.0,0.0,0.0,0.0,0.0,0.0,0.0,0.0,0.0,0.0,0.0,0.0,0.0,0.0,0.0,0.0,0.0,0.0,0.0,0.0,0.0,0.0,0.0,0.0,0.0,0.0,0.0,0.0,0.0,0.0,0.0,0.0,0.0,0.0,0.0,0.0,0.0,0.0,0.0,0.0,0.0,0.0,0.0,0.0,0.0,0.0,0.0,0.0,0.0,0.0,0.0,0.0,0.0,0.0,0.0,0.0,0.0,0.0,0.0,0.0,0.0,0.0,0.0,0.0,0.0,0.0,0.0,0.0,0.0,0.0,0.0,0.0,0.0,0.0,0.0,0.0,0.0,0.0,0.0,0.0,0.0,0.0,0.0,0.0,0.0,0.0,0.0,0.0,0.0,0.0,0.0,0.0,0.0,0.0,0.0,0.0,0.0,0.0,0.0,0.0,0.0,0.0,0.0,0.0,0.0,0.0,0.0,0.0,0.0,0.0,0.0,0.0,0.0,0.0,0.0,0.0,0.0,0.0,0.0,0.0,0.0,0.0,0.0,0.0,0.0,0.0,0.0,0.0,0.0,0.0,0.0,0.0,0.0,0.0,0.0,0.0,0.0,0.0,0.0,0.0,0.0,0.0,0.0,0.0,0.0,0.0,0.0,0.0,0.0,0.0,0.0,0.0,0.0,0.0,0.0,0.0,0.0,0.0,0.0,0.0,0.0,0.0,0.0,0.0,0.0,0.0,0.0,0.0,0.0,0.0,0.0,0.0,0.0,0.0,0.0,0.0,0.0,0.0,0.0,0.0,0.0,0.0,0.0,0.0,0.0,0.0,0.0,0.0,0.0,0.0,0.0,0.0,0.0,0.0,0.0,0.0,0.0,0.0,0.0,0.0,0.0,0.0,0.0,0.0,0.0,0.0,0.0,0.0,0.0,0.0,0.0,0.0,0.0,0.0,0.0,0.0,0.0,0.0,0.0,0.0,0.0,0.0,0.0,0.0,0.0,0.0,0.0,0.0,0.0,0.0,0.0,0.0,0.0,0.0,0.0,0.0,0.0,0.0,0.0,0.0,0.0,0.0,0.0,0.0,0.0,0.0,0.0,0.0,0.0,0.0,0.0,0.0,0.0,0.0,0.0,0.0,0.0,0.0,0.0,0.0,0.0,0.0,0.0,0.0,0.0,0.0,0.0,0.0,0.0,0.0,0.0,0.0,0.0,0.0,0.0,0.0,0.0,0.0,0.0,0.0,0.0,0.0,0.0,0.0,0.0,0.0,0.0,0.0,0.0,0.0,0.0,0.0,0.0,0.0,0.0,0.0,0.0,0.0,0.0,0.0,0.0,0.0,0.0,0.0,0.0,0.0,0.0,0.0,0.0,0.0,0.0,0.0,0.0,0.0,0.0,0.0,0.0,0.0,0.0,0.0,0.0,0.0,0.0,0.0,0.0,0.0,0.0,0.0,0.0,0.0,0.0,0.0,0.0,0.0,0.0,0.0,0.0,0.0,0.0,0.0,0.0,0.0,0.0,0.0,0.0,0.0,0.0,0.0,0.0,0.0,0.0,0.0,0.0,0.0,0.0,0.0,0.0,0.0,0.0,0.0,0.0,0.0,0.0,0.0,0.0,0.0,0.0,0.0,0.0,0.0,0.0,0.0,0.0,0.0,0.0,0.0,0.0,0.0,0.0,0.0,0.0,0.0,0.0,0.0,0.0,0.0,0.0,0.0,0.0,0.0,0.0,0.0,0.0,0.0,0.0,0.0,0.0,0.0,0.0,0.0,0.0,0.0,0.0,0.0,0.0,0.0,0.0,0.0,0.0,0.0,0.0,0.0,0.0,0.0,0.0,0.0,0.0,0.0,0.0,0.0,0.0,0.0,0.0,0.0,0.0,0.0,0.0,0.0,0.0,0.0,0.0,0.0,0.0,0.0,0.0,0.0,0.0,0.0,0.0,0.0,0.0,0.0,0.0,0.0,0.0,0.0,0.0,0.0,0.0,0.0,0.0,0.0,0.0,0.0,0.0,0.0,0.0,0.0,0.0,0.0,0.0,0.0,0.0,0.0,0.0,0.0,0.0,0.0,0.0,0.0,0.0,0.0,0.0,0.0,0.0,0.0,0.0,0.0,0.0,0.0,0.0,0.0,0.0,0.0,0.0,0.0,0.0,0.0,0.0,0.0,0.0,0.0,0.0,0.0,0.0,0.0,0.0,0.0,0.0,0.0,0.0,0.0,0.0,0.0,0.0,0.0,0.0,0.0,0.0,0.0,0.0,0.0,0.0,0.0,0.0,0.0,0.0,0.0,0.0,0.0,0.0,0.0,0.0,0.0,0.0,0.0,0.0,0.0,0.0,0.0,0.0,0.0,0.0,0.0,0.0,0.0,0.0,0.0,0.0,0.0,0.0,0.0,0.0,0.0,0.0,0.0,0.0,0.0,0.0,0.0,0.0,0.0,0.0,0.0,0.0,0.0,0.0,0.0,0.0,0.0,0.0,0.0,0.0,0.0,0.0,0.0,0.0,0.0,0.0,0.0,0.0,0.0,0.0,0.0,0.0,0.0,0.0,0.0,0.0,0.0,0.0,0.0,0.0,0.0,0.0,0.0,0.0,0.0,0.0,0.0,0.0,0.0,0.0,0.0,0.0,0.0,0.0,0.0,0.0,0.0,0.0,0.0,0.0,0.0,0.0,0.0,0.0,0.0,0.0,0.0,0.0,0.0,0.0,0.0,0.0,0.0,0.0,0.0,0.0,0.0,0.0,0.0,0.0,0.0,0.0,0.0,0.0,0.0,0.0,0.0,0.0,0.0,0.0,0.0,0.0,0.0,0.0,0.0,0.0,0.0,0.0,0.0,0.0,0.0,0.0,0.0,0.0,0.0,0.0,0.0,0.0,0.0,0.0,0.0,0.0,0.0,0.0,0.0,0.0,0.0,0.0,0.0,0.0,0.0,0.0,0.0,0.0,0.0,0.0,0.0,0.0,0.0,0.0,0.0,0.0,0.0,0.0,0.0,0.0,0.0,0.0,0.0,0.0,0.0,0.0,0.0,0.0,0.0,0.0,0.0,0.0,0.0,0.0,0.0,0.0,0.0,0.0,0.0,0.0,0.0,0.0,0.0,0.0,0.0,0.0,0.0,0.0,0.0,0.0,0.0,0.0,0.0,0.0,0.0,0.0,0.0,0.0,0.0,0.0,0.0,0.0,0.0,0.0,0.0,0.0,0.0,0.0,0.0,0.0,0.0,0.0,0.0,0.0,0.0,0.0,0.0,0.0,0.0,0.0,0.0,0.0,0.0,0.0,0.0,0.0,0.0,0.0,0.0,0.0,0.0,0.0,0.0,0.0,0.0,0.0,0.0,0.0,0.0,0.0,0.0,0.0,0.0,0.0,0.0,0.0,0.0,0.0,0.0,0.0,0.0,0.0,0.0,0.0,0.0,0.0,0.0,0.0,0.0,0.0,0.0,0.0,0.0,0.0,0.0,0.0,0.0,0.0,0.0,0.0,0.0,0.0,0.0,0.0,0.0,0.0,0.0,0.0,0.0,0.0,0.0,0.0,0.0,0.0,0.0,0.0,0.0,0.0,0.0,0.0,0.0,0.0,0.0,0.0,0.0,0.0,0.0,0.0,0.0,0.0,0.0,0.0,0.0,0.0,0.0,0.0,0.0,0.0,0.0,0.0,0.0,0.0,0.0,0.0,0.0,0.0,0.0,0.0,0.0,0.0,0.0,0.0,0.0,0.0,0.0,0.0,0.0,0.0,0.0,0.0,0.0,0.0,0.0,0.0,0.0,0.0,0.0,0.0,0.0,0.0,0.0,0.0,0.0,0.0,0.0,0.0,0.0,0.0,0.0,0.0,0.0,0.0,0.0,0.0,0.0,0.0,0.0,0.0,0.0,0.0,0.0,0.0,0.0,0.0,0.0,0.0,0.0,0.0,0.0,0.0,0.0,0.0,0.0,0.0,0.0,0.0,0.0,0.0,0.0,0.0,0.0,0.0,0.0,0.0,0.0,0.0,0.0,0.0,0.0,0.0,0.0,0.0,0.0,0.0,0.0,0.0,0.0,0.0,0.0,0.0,0.0,0.0,0.0,0.0,0.0,0.0,0.0,0.0,0.0,0.0,0.0,0.0,0.0,0.0,0.0,0.0,0.0,0.0,0.0,0.0,0.0,0.0,0.0,0.0,0.0,0.0,0.0,0.0,0.0,0.0,0.0,0.0,0.0,0.0,0.0,0.0,0.0,0.0,0.0,0.0,0.0,0.0,0.0,0.0,0.0,0.0,0.0,0.0,0.0,0.0,0.0,0.0,0.0,0.0,0.0,0.0,0.0,0.0,0.0,0.0,0.0,0.0,0.0,0.0,0.0,0.0,0.0,0.0,0.0,0.0,0.0,0.0,0.0,0.0,0.0,0.0,0.0,0.0,0.0,0.0,0.0,0.0,0.0,0.0,0.0,0.0,0.0,0.0,0.0,0.0,0.0,0.0,0.0,0.0,0.0,0.0,0.0,0.0,0.0,0.0,0.0,0.0,0.0,0.0,0.0,0.0,0.0,0.0,0.0,0.0,0.0,0.0,0.0,0.0,0.0,0.0,0.0,0.0,0.0,0.0,0.0,0.0,0.0,0.0,0.0,0.0,0.0,0.0,0.0,0.0,0.0,0.0,0.0,0.0,0.0,0.0,0.0,0.0,0.0,0.0,0.0,0.0,0.0,0.0,0.0,0.0,0.0,0.0,0.0,0.0,0.0,0.0,0.0,0.0,0.0,0.0,0.0,0.0,0.0,0.0,0.0,0.0,0.0,0.0,0.0,0.0,0.0,0.0,0.0,0.0,0.0,0.0,0.0,0.0,0.0,0.0,0.0,0.0,0.0,0.0,0.0,0.0,0.0,0.0,0.0,0.0,0.0,0.0,0.0,0.0,0.0,0.0,0.0,0.0,0.0,0.0,0.0,0.0,0.0,0.0,0.0,0.0,0.0,0.0,0.0,0.0,0.0,0.0,0.0,0.0,0.0,0.0,0.0,0.0,0.0,0.0,0.0,0.0,0.0,0.0,0.0,0.0,0.0,0.0,0.0,0.0,0.0,0.0,0.0,0.0,0.0,0.0,0.0,0.0,0.0,0.0,0.0,0.0,0.0,0.0,0.0,0.0,0.0,0.0,0.0,0.0,0.0,0.0,0.0,0.0,0.0,0.0,0.0,0.0,0.0,0.0,0.0,0.0,0.0,0.0,0.0,0.0,0.0,0.0,0.0,0.0,0.0,0.0,0.0,0.0,0.0,0.0,0.0,0.0,0.0,0.0,0.0,0.0,0.0,0.0,0.0,0.0,0.0,0.0,0.0,0.0,0.0,0.0,0.0,0.0,0.0,0.0,0.0,0.0,0.0,0.0,0.0,0.0,0.0,0.0,0.0,0.0,0.0,0.0,0.0,0.0,0.0,0.0,0.0,0.0,0.0,0.0,0.0,0.0,0.0,0.0,0.0,0.0,0.0,0.0,0.0,0.0,0.0,0.0,0.0,0.0,0.0,0.0,0.0,0.0,0.0,0.0,0.0,0.0,0.0,0.0,0.0,0.0,0.0,0.0,0.0,0.0,0.0,0.0,0.0,0.0,0.0,0.0,0.0,0.0,0.0,0.0,0.0,0.0,0.0,0.0,0.0,0.0,0.0,0.0,0.0,0.0,0.0,0.0,0.0,0.0,0.0,0.0,0.0,0.0,0.0,0.0,0.0,0.0,0.0,0.0,0.0,0.0,0.0,0.0,0.0,0.0,0.0,0.0,0.0,0.0,0.0,0.0,0.0,0.0,0.0,0.0,0.0,0.0,0.0,0.0,0.0,0.0,0.0,0.0,0.0,0.0,0.0,0.0,0.0,0.0,0.0,0.0,0.0,0.0,0.0,0.0,0.0,0.0,0.0,0.0,0.0,0.0,0.0,0.0,0.0,0.0,0.0,0.0,0.0,-1.6014,0.0,0.0,0.0,0.0,0.0,0.0,0.0,0.0,0.0,0.0,0.0,0.0,0.0,0.0,0.0,0.0,0.0,0.0,0.0,0.0,0.0,0.0,0.0,0.0,0.0,0.0,0.0,0.0,0.0,0.0,0.0,0.0,0.0,0.0,0.0,0.0,0.0,0.0,0.0,0.0,0.0,0.0,0.0,0.0,0.0,0.0,0.0,0.0,0.0,0.0,0.0,0.0,0.0,0.0,0.0,0.0,0.0,0.0,0.0,0.0,0.0,0.0,0.0,0.0,0.0,0.0,0.0,0.0,0.0,0.0,0.0,0.0,0.0,0.0,0.0,0.0,0.0,0.0,0.0,0.0,0.0,0.0,0.0,0.0,0.0,0.0,0.0,0.0,0.0,0.0,0.0,0.0,0.0,0.0,0.0,0.0,0.0,0.0,0.0,0.0,0.0,0.0,0.0,0.0,0.0,0.0,0.0,0.0,0.0,0.0,0.0,0.0,0.0,0.0,0.0,0.0,-1.5243,0.0,0.0,0.0,0.0,0.0,0.0,0.0,0.0,0.0,0.0,0.0,0.0,0.0,0.0,0.0,0.0,0.0,0.0,0.0,0.0,0.0,0.0,0.0,0.0,0.0,0.0,0.0,0.0,0.0,0.0,0.0,0.0,0.0,0.0,0.0,0.0,0.0,0.0,0.0,0.0,0.0,0.0,0.0,0.0,0.0,0.0,0.0,0.0,0.0,0.0,0.0,0.0,0.0,0.0,0.0,0.0,0.0,0.0,0.0,0.0,0.0,0.0,0.0,0.0,0.0,0.0,0.0,0.0,0.0,0.0,0.0,0.0,0.0,0.0,0.0,0.0,0.0,0.0,0.0,0.0,0.0,0.0,0.0,0.0,0.0,0.0,0.0,0.0,0.0,0.0,0.0,0.0,0.0,0.0,0.0,0.0,0.0,0.0,0.0,0.0,0.0,0.0,0.0,0.0,0.0,0.0,0.0,0.0,-1.2465,-1.2005,-1.1986,-1.2123,-1.216,-1.2204,-1.2749,-1.315,-1.3231,-1.3231,0.0,0.0,0.0,0.0,0.0,0.0,0.0,0.0,0.0,0.0,0.0,0.0,0.0,0.0,0.0,0.0,0.0,0.0,0.0,0.0,0.0,0.0,0.0,0.0,0.0,0.0,0.0,0.0,0.0,0.0,0.0,0.0,0.0,0.0,0.0,0.0,0.0,0.0,0.0,0.0,0.0,0.0,0.0,0.0,0.0,0.0,0.0,0.0,0.0,0.0,0.0,0.0,0.0,0.0,0.0,0.0,0.0,0.0,0.0,0.0,0.0,0.0,0.0,0.0,0.0,0.0,0.0,0.0,0.0,0.0,0.0,0.0,0.0,0.0,0.0,0.0,0.0,0.0,0.0,0.0,0.0,0.0,0.0,0.0,0.0,0.0,-2.023,-1.8976,0.0,0.0,0.0,0.0,0.0,0.0,0.0,0.0,0.0,0.0,0.0,0.0,0.0,-1.2863,-1.2733,-1.2467,-1.2346,-1.1956,-1.1819,-1.1558,-1.1303,-1.1572,-1.186,-1.2258,-1.2521,0.0,-1.2399,-1.2399,0.0,0.0,0.0,0.0,0.0,0.0,0.0,0.0,0.0,0.0,0.0,0.0,0.0,0.0,0.0,0.0,0.0,0.0,0.0,0.0,0.0,0.0,0.0,0.0,0.0,0.0,0.0,0.0,0.0,0.0,0.0,0.0,0.0,0.0,0.0,0.0,0.0,0.0,0.0,0.0,0.0,0.0,0.0,0.0,0.0,0.0,0.0,0.0,0.0,0.0,0.0,0.0,0.0,0.0,0.0,0.0,0.0,0.0,0.0,0.0,0.0,0.0,0.0,0.0,0.0,0.0,0.0,0.0,0.0,0.0,0.0,0.0,0.0,0.0,0.0,0.0,0.0,0.0,0.0,0.0,0.0,0.0,0.0,0.0,0.0,-2.0203,-1.9764,-2.0016,-1.923,-1.8908,0.0,0.0,0.0,0.0,0.0,0.0,0.0,0.0,0.0,-1.202,-1.2027,-1.192,-1.1572,-1.1572,-1.1664,-1.1698,-1.1698,-1.1646,-1.1667,-1.1811,-1.2025,-1.2157,-1.2304,-1.2226,-1.2244,-1.2532,-1.282,-1.2979,0.0,0.0,0.0,0.0,-1.4432,-1.5172,0.0,0.0,0.0,0.0,0.0,0.0,0.0,0.0,0.0,0.0,0.0,0.0,0.0,0.0,0.0,0.0,0.0,0.0,0.0,0.0,0.0,0.0,0.0,0.0,0.0,0.0,0.0,0.0,0.0,0.0,0.0,0.0,0.0,0.0,0.0,0.0,0.0,0.0,0.0,0.0,0.0,0.0,0.0,0.0,0.0,0.0,0.0,0.0,0.0,0.0,0.0,0.0,0.0,0.0,0.0,0.0,0.0,0.0,0.0,0.0,0.0,0.0,0.0,0.0,0.0,0.0,0.0,0.0,0.0,0.0,0.0,0.0,0.0,0.0,0.0,0.0,0.0,-1.9941,-1.9419,-2.0462,-1.8396,-1.7389,0.0,0.0,0.0,0.0,0.0,0.0,-1.2361,-1.2338,-1.2029,-1.1831,-1.1838,-1.1734,-1.1389,-1.1389,-1.1511,-1.1735,-1.1735,-1.185,-1.206,-1.2101,-1.2142,-1.2176,-1.2216,-1.2257,-1.2429,-1.2728,-1.2977,-1.317,-1.3214,-1.3251,-1.3446,-1.3793,-1.396,-1.396,0.0,0.0,0.0,0.0,0.0,0.0,0.0,0.0,0.0,0.0,0.0,0.0,0.0,0.0,0.0,0.0,0.0,0.0,0.0,0.0,0.0,0.0,0.0,0.0,0.0,0.0,0.0,0.0,0.0,0.0,0.0,0.0,0.0,0.0,0.0,0.0,0.0,0.0,0.0,0.0,0.0,0.0,0.0,0.0,0.0,0.0,0.0,0.0,0.0,0.0,0.0,0.0,0.0,0.0,0.0,0.0,0.0,0.0,0.0,0.0,0.0,0.0,0.0,0.0,0.0,0.0,0.0,0.0,0.0,0.0,0.0,0.0,0.0,0.0,0.0,0.0,0.0,0.0,0.0,-1.9036,-1.7882,0.0,0.0,0.0,0.0,-1.4937,-1.3191,-1.2253,-1.2253,-1.2261,-1.2131,-1.2015,-1.2022,-1.2018,-1.2013,-1.2013,-1.2026,-1.204,-1.204,-1.2047,-1.2067,-1.221,-1.2352,-1.2488,-1.263,-1.2779,-1.2874,-1.245,-1.2442,-1.2885,-1.3041,-1.3346,-1.3818,-1.4124,-1.4176,-1.4176,0.0,0.0,0.0,0.0,0.0,0.0,0.0,0.0,0.0,0.0,0.0,0.0,0.0,0.0,0.0,0.0,0.0,0.0,0.0,0.0,0.0,0.0,0.0,0.0,0.0,0.0,0.0,0.0,0.0,0.0,0.0,0.0,0.0,0.0,0.0,0.0,0.0,0.0,0.0,0.0,0.0,0.0,0.0,0.0,0.0,0.0,0.0,0.0,0.0,0.0,0.0,0.0,0.0,0.0,0.0,0.0,0.0,0.0,0.0,0.0,0.0,0.0,0.0,0.0,0.0,0.0,0.0,0.0,0.0,0.0,0.0,0.0,0.0,0.0,0.0,0.0,0.0,0.0,0.0,-1.7729,-1.5747,0.0,-1.6871,-1.4603,-1.3415,-1.442,-1.3013,-1.2165,-1.2165,-1.2208,-1.2081,-1.2045,-1.2052,-1.2148,-1.221,-1.221,-1.2305,-1.2494,-1.2494,-1.2542,-1.2644,-1.2698,-1.2752,-1.28,-1.2854,-1.2908,-1.2942,-1.2732,-1.2828,-1.304,-1.3096,-1.3151,-1.3366,-1.3728,-1.3742,-1.3909,0.0,0.0,0.0,0.0,0.0,0.0,0.0,0.0,0.0,0.0,0.0,0.0,0.0,0.0,0.0,0.0,0.0,0.0,0.0,0.0,0.0,0.0,0.0,0.0,0.0,0.0,0.0,0.0,0.0,0.0,0.0,0.0,0.0,0.0,0.0,0.0,0.0,0.0,0.0,0.0,0.0,0.0,-1.3587,0.0,0.0,0.0,0.0,0.0,0.0,0.0,0.0,0.0,0.0,0.0,0.0,0.0,0.0,0.0,0.0,0.0,0.0,0.0,0.0,0.0,0.0,0.0,0.0,0.0,0.0,0.0,0.0,0.0,0.0,0.0,0.0,0.0,0.0,0.0,-1.5711,-1.6911,-1.4494,-1.3675,-1.5981,-1.38,-1.261,-1.3693,-1.2654,-1.206,-1.206,-1.2155,-1.2162,-1.221,-1.2264,-1.2359,-1.2515,-1.2515,-1.2617,-1.2807,-1.2807,-1.2861,-1.2963,-1.301,-1.303,-1.3037,-1.3085,-1.3112,-1.3112,-1.3112,-1.3112,-1.3105,-1.3051,-1.3064,-1.3105,-1.3422,-1.3584,-1.3584,0.0,0.0,0.0,0.0,0.0,0.0,0.0,0.0,0.0,0.0,0.0,0.0,0.0,0.0,0.0,0.0,0.0,0.0,0.0,0.0,0.0,0.0,0.0,0.0,0.0,0.0,0.0,0.0,0.0,0.0,0.0,0.0,0.0,0.0,0.0,0.0,0.0,0.0,0.0,0.0,0.0,0.0,-1.3193,0.0,0.0,0.0,0.0,0.0,0.0,0.0,0.0,0.0,0.0,0.0,0.0,0.0,0.0,0.0,0.0,0.0,0.0,0.0,0.0,0.0,0.0,0.0,0.0,0.0,0.0,0.0,0.0,0.0,0.0,0.0,0.0,0.0,-1.7276,-1.6205,-1.5662,-1.6601,-1.4455,-1.3245,-1.4574,-1.3197,-1.2191,-1.2643,-1.2223,-1.2081,-1.2081,-1.223,-1.2372,-1.2515,-1.2657,-1.2813,-1.2969,-1.2969,-1.2969,-1.2976,-1.2976,-1.2976,-1.2983,-1.3119,-1.3186,-1.3193,-1.3349,-1.3417,-1.3417,-1.3417,-1.3417,-1.3397,-1.3241,-1.3268,-1.3403,-1.3403,-1.3403,-1.3403,0.0,0.0,0.0,0.0,0.0,0.0,0.0,0.0,0.0,0.0,0.0,0.0,0.0,0.0,0.0,0.0,0.0,0.0,0.0,0.0,0.0,0.0,0.0,0.0,0.0,0.0,0.0,0.0,0.0,0.0,0.0,0.0,0.0,0.0,0.0,0.0,0.0,0.0,0.0,0.0,0.0,0.0,-1.1372,0.0,0.0,0.0,0.0,0.0,0.0,0.0,0.0,0.0,0.0,0.0,0.0,0.0,0.0,0.0,0.0,0.0,0.0,0.0,0.0,0.0,0.0,0.0,0.0,0.0,0.0,0.0,0.0,0.0,0.0,0.0,0.0,-1.5441,-1.5555,-1.4569,-1.3743,-1.3858,-1.3001,-1.2735,-1.3088,-1.2529,-1.2168,-1.2361,-1.2325,-1.2427,-1.2542,-1.2691,-1.2793,-1.2834,-1.2874,-1.2969,-1.3112,-1.3112,-1.3173,-1.3281,-1.3281,-1.3281,-1.3281,-1.3437,-1.3505,-1.3512,-1.3654,-1.3722,-1.3722,-1.3722,-1.3722,-1.3695,-1.3437,-1.3363,-1.3403,-1.3403,-1.3403,-1.3403,0.0,0.0,0.0,0.0,0.0,0.0,0.0,0.0,0.0,0.0,0.0,0.0,0.0,0.0,0.0,0.0,0.0,0.0,0.0,0.0,0.0,0.0,0.0,0.0,0.0,0.0,0.0,0.0,0.0,0.0,0.0,0.0,0.0,0.0,0.0,0.0,0.0,0.0,0.0,0.0,0.0,0.0,-1.0907,-1.0907,-1.144,-1.2105,-1.2105,-1.2767,-1.3695,-1.4485,0.0,0.0,0.0,0.0,0.0,0.0,0.0,0.0,0.0,0.0,0.0,0.0,0.0,0.0,0.0,0.0,0.0,0.0,0.0,0.0,0.0,0.0,0.0,0.0,-1.4753,-1.4322,-1.3965,-1.3468,-1.3001,-1.2656,-1.2604,-1.2459,-1.2526,-1.2395,-1.2338,-1.2556,-1.2644,-1.2732,-1.282,-1.2969,-1.3051,-1.3051,-1.3112,-1.3186,-1.3268,-1.3336,-1.341,-1.3498,-1.3559,-1.3587,-1.3587,-1.3675,-1.3715,0.0,-1.3804,-1.3838,-1.3838,-1.3838,-1.3838,0.0,0.0,0.0,0.0,0.0,-1.3587,-1.3587,0.0,0.0,0.0,0.0,0.0,0.0,0.0,0.0,0.0,0.0,0.0,0.0,0.0,0.0,0.0,0.0,0.0,0.0,0.0,0.0,0.0,0.0,0.0,0.0,0.0,0.0,0.0,0.0,0.0,0.0,0.0,0.0,0.0,0.0,0.0,0.0,0.0,0.0,0.0,0.0,0.0,0.0,-1.1165,-1.1165,-1.1165,-1.1165,-1.1165,-1.1165,-1.1434,-1.2925,0.0,0.0,0.0,0.0,0.0,0.0,0.0,0.0,0.0,0.0,0.0,0.0,0.0,0.0,0.0,0.0,0.0,0.0,0.0,0.0,0.0,0.0,0.0,0.0,-1.4011,-1.3013,-1.2707,-1.2892,-1.3049,-1.2714,-1.2557,-1.2532,-1.2522,-1.2556,-1.2671,-1.2963,-1.2983,-1.299,-1.301,0.0,0.0,0.0,0.0,-1.3437,-1.3451,-1.3587,-1.3654,-1.3654,-1.3783,-1.3838,-1.3844,-1.3878,-1.3892,-1.3892,-1.3926,-1.3939,-1.3939,-1.3939,-1.3939,-1.3933,-1.3865,-1.3838,-1.3838,-1.3838,-1.3838,-1.3838,0.0,0.0,0.0,0.0,0.0,0.0,0.0,0.0,0.0,0.0,0.0,0.0,0.0,0.0,0.0,0.0,0.0,0.0,0.0,0.0,0.0,0.0,0.0,0.0,0.0,0.0,0.0,0.0,0.0,0.0,0.0,0.0,0.0,0.0,0.0,0.0,0.0,0.0,0.0,0.0,0.0,0.0,-1.1165,-1.1165,-1.1165,-1.1165,-1.1165,-1.1165,-1.1303,-1.1572,-1.1703,-1.1703,-1.2116,0.0,0.0,0.0,0.0,0.0,0.0,0.0,0.0,0.0,0.0,0.0,0.0,0.0,0.0,0.0,0.0,0.0,0.0,0.0,0.0,-1.3378,-1.3166,-1.3034,-1.2574,-1.2786,-1.2855,-1.2601,-1.2574,-1.269,-1.284,-1.2874,-1.2942,-1.3119,-1.3132,-1.3186,-1.3308,-1.3342,-1.341,-1.3539,-1.3566,-1.3641,-1.3756,-1.3783,-1.3797,-1.3797,0.0,0.0,-1.3851,-1.4095,-1.4211,-1.4224,-1.4462,-1.4563,-1.4563,-1.4563,-1.4563,-1.4516,-1.4027,-1.3838,-1.3838,-1.3838,-1.3838,-1.3838,0.0,0.0,0.0,0.0,0.0,0.0,0.0,0.0,0.0,0.0,0.0,0.0,0.0,0.0,0.0,0.0,0.0,0.0,0.0,0.0,0.0,0.0,0.0,0.0,0.0,0.0,0.0,0.0,0.0,0.0,0.0,0.0,0.0,0.0,0.0,0.0,0.0,0.0,0.0,0.0,0.0,0.0,-1.1491,-1.1416,-1.1389,-1.1389,-1.1389,-1.1389,-1.1389,-1.1389,-1.1389,-1.1389,-1.1389,-1.153,-1.1945,0.0,0.0,0.0,0.0,0.0,0.0,0.0,0.0,0.0,0.0,0.0,0.0,0.0,0.0,-1.6048,0.0,0.0,-1.396,-1.2838,-1.2894,-1.3047,-1.2732,-1.2861,-1.2901,-1.2752,-1.2732,-1.282,-1.3044,-1.3064,-1.3125,-1.3275,-1.3288,-1.3356,-1.3505,-1.3512,-1.358,-1.3729,-1.3736,-1.377,-1.3838,-1.3994,-1.4068,-1.4075,-1.4217,-1.4292,-1.4299,-1.4448,-1.4523,-1.4529,-1.4679,-1.474,-1.474,-1.474,-1.474,-1.4713,-1.4407,-1.4292,-1.4292,-1.4292,-1.4292,-1.4292,0.0,0.0,0.0,0.0,0.0,0.0,0.0,0.0,0.0,0.0,0.0,0.0,0.0,0.0,0.0,0.0,0.0,0.0,0.0,0.0,0.0,0.0,0.0,0.0,0.0,0.0,0.0,0.0,0.0,0.0,0.0,0.0,0.0,0.0,0.0,0.0,0.0,0.0,0.0,0.0,0.0,0.0,-1.1864,-1.1748,-1.1667,-1.1619,-1.1619,-1.1619,-1.1619,-1.1619,-1.1619,-1.1619,-1.1619,-1.164,-1.1942,-1.3499,-1.3945,0.0,0.0,0.0,0.0,0.0,0.0,0.0,0.0,0.0,-1.6379,-1.5092,-1.4828,-1.4469,-1.3151,-1.2979,-1.2943,-1.2752,-1.2901,-1.3003,-1.3003,-1.303,-1.3051,-1.3051,-1.3024,-1.3057,-1.32,-1.3214,-1.3281,-1.3437,-1.3444,-1.3512,-1.3661,-1.3668,-1.3736,-1.3878,-1.3912,-1.3946,-1.3973,-1.4245,-1.4387,-1.4387,-1.4624,-1.474,-1.474,-1.4801,-1.4828,-1.4828,-1.4889,-1.4916,-1.4916,-1.4916,-1.4916,-1.4916,-1.4916,-1.4916,-1.4903,-1.478,-1.474,-1.474,0.0,0.0,0.0,0.0,0.0,0.0,0.0,0.0,0.0,0.0,0.0,0.0,0.0,0.0,0.0,0.0,0.0,0.0,0.0,0.0,0.0,0.0,0.0,0.0,0.0,0.0,0.0,0.0,0.0,0.0,0.0,0.0,0.0,0.0,0.0,0.0,0.0,0.0,0.0,0.0,0.0,0.0,-1.2033,-1.202,-1.185,-1.1619,-1.1619,-1.1619,-1.1619,-1.1619,-1.1619,-1.1619,-1.1619,-1.1708,-1.1803,-1.2095,0.0,-1.2452,-1.3037,-1.3045,-1.2896,-1.2918,-1.3081,-1.3096,0.0,0.0,-1.3347,-1.2881,-1.2866,-1.3012,-1.3013,-1.3061,-1.3075,-1.2935,-1.3057,-1.3152,-1.3152,-1.3268,-1.3349,-1.3349,-1.3234,-1.3207,-1.3363,-1.3376,-1.3437,-1.3593,-1.36,-1.3668,-1.381,-1.3817,-1.3885,-1.4041,-1.4177,-1.4306,-1.4434,-1.4604,-1.4692,-1.4692,-1.4726,-1.474,-1.4746,-1.5011,-1.5133,-1.5147,-1.5418,-1.554,-1.554,-1.554,-1.554,-1.554,-1.554,-1.554,-1.5472,-1.4936,-1.474,-1.474,0.0,0.0,0.0,0.0,0.0,0.0,0.0,0.0,0.0,0.0,0.0,0.0,0.0,0.0,0.0,0.0,0.0,0.0,0.0,0.0,0.0,0.0,0.0,0.0,0.0,0.0,0.0,0.0,0.0,0.0,0.0,0.0,0.0,0.0,0.0,0.0,0.0,0.0,0.0,0.0,0.0,0.0,-1.2182,-1.2094,-1.1986,-1.1877,-1.1877,-1.1877,0.0,0.0,-1.1877,-1.1877,-1.1877,-1.1918,-1.1965,-1.1965,-1.2013,0.0,-1.221,-1.2428,-1.2498,-1.2498,-1.2477,-1.2608,-1.2454,-1.2725,-1.3005,-1.2752,-1.282,-1.2888,-1.2949,-1.303,-1.3085,0.0,-1.3207,-1.3308,-1.3308,-1.3363,-1.3403,-1.3403,-1.3424,-1.3464,-1.3526,-1.3532,-1.3593,-1.3743,-1.3749,-1.3858,-1.4095,-1.4109,-1.4217,-1.4455,-1.4523,-1.4584,-1.4645,-1.4794,-1.4916,-1.4997,-1.5086,-1.5181,-1.5269,-1.5391,-1.5445,-1.5452,-1.5581,-1.5642,-1.5642,-1.5642,-1.5642,-1.5642,-1.5642,-1.5642,-1.5608,-1.5357,-1.5262,-1.5262,0.0,0.0,0.0,0.0,0.0,0.0,0.0,0.0,0.0,0.0,0.0,0.0,0.0,0.0,0.0,0.0,0.0,0.0,0.0,0.0,0.0,0.0,0.0,0.0,0.0,0.0,0.0,0.0,0.0,0.0,0.0,0.0,0.0,0.0,0.0,0.0,0.0,0.0,0.0,0.0,0.0,0.0,-1.2338,-1.2223,-1.2182,-1.2176,-1.2094,-1.206,0.0,0.0,-1.206,-1.206,-1.206,-1.2088,-1.2135,-1.2169,-1.2244,-1.2311,-1.2311,-1.2393,-1.2474,-1.2474,-1.2637,-1.2793,-1.2793,-1.2881,-1.2969,-1.301,-1.3017,-1.303,-1.3078,-1.3166,-1.3234,-1.3234,-1.3329,-1.3403,-1.3403,-1.3437,-1.3464,-1.3464,-1.3593,-1.3702,-1.3749,-1.3715,-1.3749,-1.3892,-1.3946,-1.4082,-1.4346,-1.4401,-1.4523,-1.4733,-1.4821,-1.4862,-1.4862,-1.5059,-1.5208,-1.5309,-1.5418,-1.5533,-1.5642,-1.5683,-1.5723,-1.5764,-1.5805,-1.5825,-1.5825,-1.5866,-1.5879,-1.5879,-1.5879,-1.5879,-1.5879,-1.5879,-1.5778,-1.5642,0.0,0.0,0.0,0.0,0.0,0.0,0.0,0.0,0.0,0.0,0.0,0.0,0.0,0.0,0.0,0.0,0.0,0.0,0.0,0.0,0.0,0.0,0.0,0.0,0.0,0.0,0.0,0.0,0.0,0.0,0.0,0.0,0.0,0.0,0.0,0.0,0.0,0.0,0.0,0.0,0.0,0.0,-1.2494,-1.2488,-1.2488,-1.2447,-1.2162,0.0,0.0,0.0,-1.206,-1.206,-1.206,-1.2162,0.0,-1.2447,-1.2698,-1.2935,-1.2935,-1.2935,-1.2942,-1.2942,-1.2949,-1.2956,-1.2956,-1.2956,-1.3003,-1.3139,-1.3166,-1.3214,-1.3363,-1.339,-1.3397,-1.3397,-1.3397,-1.3403,-1.3403,-1.3532,-1.362,-1.362,-1.3749,-1.3892,0.0,-1.3926,-1.3899,-1.4055,-1.4204,-1.4346,-1.4496,-1.4645,-1.4733,-1.474,-1.5018,-1.5167,-1.5167,-1.5466,-1.5622,-1.5628,-1.5628,-1.5635,-1.5642,-1.5784,-1.5927,-1.6076,-1.6225,-1.6286,-1.63,-1.6435,-1.6497,-1.6497,-1.6497,-1.6497,-1.6497,-1.6497,-1.613,-1.5642,0.0,0.0,0.0,0.0,0.0,0.0,0.0,0.0,0.0,0.0,0.0,0.0,0.0,0.0,0.0,0.0,0.0,0.0,0.0,0.0,0.0,-1.0717,-1.0717,-1.086,-1.1158,-1.1165,-1.1314,-1.1619,-1.1667,-1.1742,-1.183,-1.1884,-1.1965,-1.2067,-1.2223,-1.2291,-1.2298,-1.244,-1.2501,-1.2501,-1.2501,-1.2501,-1.2501,-1.2501,-1.2501,-1.2488,0.0,0.0,0.0,0.0,0.0,0.0,-1.2508,0.0,-1.2745,-1.2793,-1.2881,-1.2963,-1.2963,-1.2963,-1.2963,-1.2963,-1.303,-1.3105,-1.3105,-1.318,-1.3268,-1.3315,-1.3322,-1.3342,-1.339,-1.3403,-1.3403,-1.3403,-1.3403,-1.3437,-1.3539,-1.36,-1.3661,-1.3756,-1.3905,0.0,0.0,0.0,0.0,-1.4353,-1.4509,-1.4658,-1.4808,-1.4957,-1.5079,-1.5181,-1.5377,-1.5486,-1.5486,-1.5588,-1.5689,-1.5784,-1.5988,-1.613,-1.6225,-1.6273,-1.6327,-1.6374,-1.6429,-1.6449,-1.6456,-1.6503,-1.6524,-1.6524,-1.6524,-1.6524,-1.6524,-1.6524,-1.6395,-1.6225,0.0,0.0,0.0,0.0,0.0,0.0,0.0,0.0,0.0,0.0,0.0,0.0,0.0,0.0,0.0,0.0,0.0,0.0,0.0,0.0,-1.2947,-1.1505,-1.1038,-1.0914,-1.1158,-1.1219,-1.1369,-1.1619,-1.1619,-1.1667,-1.1755,-1.1755,-1.1809,-1.1911,-1.2115,-1.221,-1.2223,-1.242,-1.2501,-1.2501,-1.2501,-1.2501,-1.2501,-1.2501,-1.2501,0.0,0.0,0.0,0.0,0.0,0.0,0.0,-1.2813,-1.2915,-1.3037,-1.3037,-1.3078,-1.3119,-1.3119,-1.3119,-1.3119,-1.3119,-1.3186,-1.3254,-1.3254,-1.3329,-1.3403,-1.3403,-1.3403,-1.3403,-1.3403,-1.3403,-1.3417,-1.3471,-1.3485,-1.3532,-1.3682,-1.3749,-1.3844,-1.3987,-1.4136,-1.4292,0.0,0.0,0.0,-1.459,-1.4733,-1.4889,-1.5038,-1.5181,-1.5337,-1.5486,-1.5635,-1.5716,-1.5716,-1.5825,-1.5947,-1.6096,-1.6293,-1.6435,-1.6524,-1.6524,-1.6524,-1.6524,-1.6578,-1.6605,-1.6605,-1.6659,-1.6686,-1.6686,-1.6686,-1.6686,-1.6686,-1.6686,-1.6686,-1.6673,0.0,0.0,0.0,0.0,0.0,0.0,0.0,0.0,0.0,0.0,0.0,0.0,0.0,0.0,0.0,0.0,0.0,0.0,0.0,0.0,0.0,-1.2816,-1.1658,-1.1009,-1.1158,-1.1307,-1.1457,-1.1619,-1.1619,-1.1619,-1.1633,-1.1633,-1.1633,-1.1653,-1.1945,-1.2074,-1.2094,-1.2379,-1.2501,-1.2501,-1.2501,-1.2501,-1.2501,-1.2501,0.0,0.0,0.0,0.0,0.0,0.0,0.0,-1.2976,-1.2983,-1.3078,-1.3186,-1.3186,-1.3288,-1.3403,-1.3403,-1.3403,-1.3403,-1.3403,-1.3403,-1.3403,-1.3403,-1.3403,-1.3403,-1.3403,-1.3403,-1.3403,0.0,0.0,-1.3464,-1.3614,-1.3641,-1.3688,-1.3831,-1.3987,-1.4143,0.0,0.0,0.0,0.0,0.0,0.0,-1.4787,0.0,-1.5059,-1.5201,-1.535,-1.5499,-1.5649,-1.5798,-1.5879,-1.5879,-1.6171,-1.6395,-1.653,-1.653,-1.6537,-1.6544,-1.6544,-1.6544,-1.6551,-1.67,-1.6761,-1.6775,-1.6917,-1.6978,-1.6978,-1.6978,-1.6978,-1.6978,-1.6978,-1.6978,-1.6937,0.0,0.0,0.0,0.0,0.0,0.0,0.0,0.0,0.0,0.0,0.0,0.0,0.0,0.0,0.0,0.0,0.0,0.0,0.0,0.0,0.0,0.0,0.0,0.0,0.0,0.0,0.0,0.0,0.0,-1.1674,-1.1775,-1.1775,-1.1837,-1.1959,-1.2149,-1.223,-1.2244,-1.2427,-1.2501,-1.2501,0.0,-1.2501,-1.2501,0.0,0.0,0.0,0.0,0.0,0.0,0.0,0.0,-1.3139,-1.3254,-1.3315,-1.3342,-1.3342,-1.337,-1.3403,-1.3403,-1.3403,-1.3403,-1.3403,-1.3403,-1.3403,-1.3403,-1.3403,-1.3403,-1.3403,-1.3403,-1.3437,0.0,0.0,0.0,-1.3763,-1.3783,0.0,-1.3994,-1.4143,0.0,-1.4441,0.0,-1.474,-1.4896,-1.5045,0.0,0.0,-1.5276,-1.5364,-1.5513,-1.5662,-1.5757,-1.5798,-1.6056,-1.6191,-1.6191,-1.6374,-1.6544,-1.6693,-1.6693,-1.6754,-1.6863,-1.6863,-1.6863,-1.6863,-1.6904,-1.6924,-1.6924,-1.6965,-1.6978,-1.6978,-1.6978,-1.6978,-1.6978,-1.6978,-1.6978,-1.6971,0.0,0.0,0.0,0.0,0.0,0.0,0.0,0.0,0.0,0.0,0.0,0.0,0.0,0.0,0.0,0.0,0.0,0.0,0.0,0.0,0.0,0.0,0.0,0.0,0.0,0.0,0.0,0.0,0.0,0.0,0.0,-1.1803,-1.1877,-1.1972,-1.2189,-1.2291,-1.2298,0.0,0.0,0.0,0.0,0.0,0.0,0.0,0.0,0.0,0.0,0.0,0.0,0.0,0.0,-1.3288,-1.3376,-1.3403,-1.3403,-1.3403,-1.3403,-1.3403,-1.3403,-1.3403,-1.3403,-1.3403,-1.3403,-1.3403,-1.3403,-1.3403,-1.3403,-1.3403,-1.3451,-1.3526,-1.3614,-1.3682,-1.377,0.0,0.0,0.0,-1.4231,-1.434,-1.4475,0.0,-1.4841,0.0,-1.5147,-1.5296,-1.5445,0.0,-1.5547,-1.5574,-1.5723,-1.5872,-1.5988,-1.6049,-1.6279,-1.6435,-1.6503,-1.6578,-1.67,-1.6849,-1.6849,-1.6897,-1.6978,-1.6978,-1.6978,-1.6978,0.0,-1.6978,-1.6978,-1.6978,-1.6978,-1.6978,-1.6978,-1.6978,-1.6978,-1.6978,-1.6978,-1.6978,0.0,0.0,0.0,0.0,0.0,0.0,0.0,0.0,0.0,0.0,0.0,0.0,0.0,0.0,0.0,0.0,0.0,0.0,0.0,0.0,0.0,0.0,0.0,0.0,0.0,0.0,0.0,0.0,0.0,0.0,0.0,0.0,0.0,0.0,0.0,0.0,0.0,0.0,0.0,0.0,0.0,0.0,0.0,0.0,0.0,0.0,0.0,0.0,0.0,0.0,-1.3403,-1.3403,-1.3403,-1.3403,-1.3403,-1.3403,-1.3403,-1.3403,-1.3403,-1.3403,-1.3403,-1.3403,-1.3403,-1.3403,-1.3403,-1.3417,-1.3431,-1.3431,-1.3553,-1.3661,-1.3682,-1.379,-1.3919,-1.4075,0.0,-1.4197,-1.4475,-1.4529,-1.4658,-1.4964,-1.5126,-1.5269,-1.5425,-1.5581,-1.573,-1.5872,-1.5784,-1.5784,-1.5906,-1.6042,-1.6191,-1.6361,-1.649,-1.6625,-1.6781,-1.6781,-1.6849,-1.6978,-1.6978,-1.6978,-1.6978,-1.6978,-1.6978,-1.6978,-1.6978,0.0,-1.6978,-1.6978,-1.6978,-1.6978,-1.6978,-1.6978,-1.6978,-1.6978,-1.6978,-1.6978,0.0,0.0,0.0,0.0,0.0,0.0,0.0,0.0,0.0,0.0,-1.901,-1.9011,0.0,0.0,0.0,0.0,0.0,0.0,0.0,0.0,0.0,0.0,0.0,0.0,0.0,0.0,0.0,0.0,0.0,0.0,0.0,0.0,0.0,0.0,0.0,0.0,0.0,0.0,0.0,0.0,0.0,0.0,0.0,0.0,0.0,0.0,0.0,0.0,0.0,0.0,-1.3403,-1.3403,-1.3403,-1.3403,-1.3403,-1.3403,-1.3403,-1.3403,-1.3403,-1.3403,-1.3403,-1.3403,-1.3403,-1.3403,-1.3403,-1.3498,0.0,-1.3587,-1.3702,-1.3844,-1.3973,-1.4014,-1.4082,-1.4238,-1.4258,-1.4319,-1.4489,-1.4618,-1.4808,0.0,-1.5276,-1.5432,-1.5588,-1.573,0.0,0.0,-1.6137,-1.6205,-1.6232,-1.6252,-1.6395,-1.6666,-1.67,-1.6781,-1.6937,-1.6937,-1.6951,-1.6978,-1.6978,-1.6978,-1.6978,-1.6978,-1.6978,-1.6978,-1.6978,0.0,-1.6978,-1.6978,-1.6978,-1.6978,-1.6978,-1.6978,-1.6978,-1.6978,-1.6978,-1.6978,0.0,0.0,0.0,0.0,0.0,0.0,0.0,0.0,-1.8765,-1.9372,-1.9243,-1.9232,-1.9523,-1.9706,0.0,0.0,0.0,0.0,0.0,0.0,0.0,0.0,0.0,0.0,0.0,0.0,0.0,-1.1389,0.0,0.0,0.0,-1.1796,0.0,0.0,0.0,0.0,0.0,0.0,0.0,0.0,0.0,0.0,0.0,0.0,0.0,0.0,0.0,0.0,0.0,0.0,-1.3403,-1.3403,-1.3403,-1.3403,-1.3403,-1.3403,-1.3403,-1.3403,-1.3403,-1.3403,-1.3403,-1.3403,-1.3403,-1.3424,-1.3498,-1.3573,0.0,-1.3722,-1.3858,-1.398,-1.4055,-1.4136,0.0,-1.4285,-1.4299,-1.438,-1.4597,-1.4692,-1.4882,-1.5255,-1.5438,-1.5588,0.0,-1.5954,-1.6123,-1.6198,-1.6334,-1.6422,-1.6422,-1.6497,-1.6639,-1.6863,-1.687,-1.6904,-1.6978,-1.6978,-1.6978,-1.6978,-1.6978,-1.6978,-1.6978,-1.6978,-1.6978,-1.6978,-1.6978,0.0,-1.6978,-1.6978,-1.6978,-1.6978,-1.6978,-1.6978,-1.6992,-1.7066,-1.7087,-1.71,0.0,0.0,0.0,0.0,0.0,0.0,0.0,-1.8648,-1.8777,-1.9359,-1.9372,-1.9452,-1.9679,-1.9787,-2.009,0.0,0.0,0.0,0.0,0.0,0.0,0.0,0.0,0.0,0.0,0.0,0.0,-1.1755,-1.164,0.0,0.0,0.0,0.0,0.0,-1.2081,0.0,0.0,0.0,0.0,0.0,0.0,0.0,0.0,0.0,0.0,0.0,0.0,0.0,0.0,0.0,-1.3403,-1.3403,-1.3403,-1.3403,-1.3403,-1.3403,-1.3403,-1.3403,-1.3403,-1.3403,-1.3403,-1.3403,-1.3403,-1.3444,-1.3593,-1.3654,-1.3715,-1.3858,-1.4014,-1.4122,-1.4122,-1.4217,-1.4299,0.0,-1.4326,-1.4434,-1.4706,-1.4767,-1.4957,-1.5404,-1.5567,0.0,-1.5934,-1.6171,0.0,-1.6402,-1.6537,-1.6605,-1.6571,-1.6714,-1.6856,-1.6978,-1.6978,-1.6978,-1.6978,-1.6978,-1.6978,-1.6978,-1.6978,-1.6978,-1.6978,-1.6978,-1.6978,-1.6978,-1.6551,0.0,0.0,-1.6591,-1.6598,-1.7032,-1.706,-1.7073,-1.7087,-1.6557,-1.6376,-1.6395,0.0,0.0,0.0,0.0,0.0,0.0,0.0,-1.8648,-1.8997,-1.9359,-1.9372,-1.9372,-1.9399,-1.9907,-2.0241,0.0,0.0,0.0,0.0,0.0,0.0,0.0,0.0,0.0,0.0,0.0,0.0,-1.3101,-1.2028,0.0,0.0,0.0,0.0,0.0,0.0,-1.2026,-1.2291,0.0,0.0,0.0,0.0,0.0,0.0,0.0,0.0,0.0,0.0,0.0,0.0,0.0,0.0,-1.3403,-1.3403,-1.3403,-1.3403,-1.3403,-1.3403,-1.3403,-1.3403,-1.3403,-1.3403,-1.3403,-1.3403,-1.3444,-1.3593,-1.3729,-1.3865,-1.4021,-1.417,-1.4278,-1.4278,-1.4292,0.0,0.0,0.0,-1.455,-1.4719,-1.4862,-1.512,-1.5567,0.0,0.0,-1.6225,-1.6293,-1.6422,-1.6686,-1.6849,-1.6876,-1.6734,-1.6876,-1.6965,-1.6978,-1.6978,-1.6978,-1.6978,-1.6978,-1.6978,-1.6978,-1.6978,-1.6978,-1.6978,-1.6978,-1.6978,-1.6978,-1.485,-1.5066,0.0,-1.4981,-1.5241,-1.7188,-1.7324,-1.7378,-1.7163,-1.5002,-1.4139,-1.3923,0.0,0.0,0.0,0.0,0.0,0.0,0.0,-1.8648,-1.8765,-1.9372,-1.9372,-1.9372,-1.9372,-1.9733,-2.004,0.0,0.0,0.0,0.0,0.0,0.0,0.0,0.0,0.0,0.0,0.0,0.0,-1.3181,-1.2789,0.0,0.0,0.0,0.0,0.0,0.0,-1.1898,-1.202,0.0,0.0,0.0,0.0,0.0,0.0,0.0,0.0,0.0,0.0,0.0,-1.3078,-1.3322,0.0,0.0,-1.3403,-1.3403,0.0,0.0,-1.3403,-1.3403,-1.3403,-1.3403,-1.3403,-1.3403,-1.3471,-1.358,-1.3722,-1.3871,-1.4021,-1.4177,-1.4258,-1.4299,-1.4299,-1.4299,-1.4299,-1.4299,-1.4421,-1.4563,-1.4719,-1.495,-1.5235,-1.5594,-1.5716,0.0,0.0,0.0,-1.6564,-1.6863,-1.6944,-1.6951,-1.689,-1.6944,-1.6978,-1.6978,-1.6978,-1.6978,-1.6978,-1.6978,-1.6341,-1.506,-1.6341,-1.5493,-1.2948,-1.5704,-1.5493,-1.2953,-1.3444,-1.3259,0.0,-1.2092,-1.2135,-1.3002,-1.3047,-1.3063,-1.3073,-1.205,-1.1859,-1.1641,0.0,0.0,0.0,0.0,0.0,-1.8648,-1.8765,-1.8648,-1.8765,-1.9372,-1.9372,-1.9372,-1.9372,-1.9546,-1.9826,-2.0201,0.0,0.0,0.0,0.0,0.0,0.0,0.0,0.0,0.0,0.0,0.0,-1.3604,-1.3464,-1.2681,0.0,0.0,-1.1572,-1.1619,0.0,0.0,0.0,0.0,0.0,0.0,0.0,0.0,0.0,0.0,0.0,0.0,0.0,0.0,0.0,0.0,0.0,0.0,0.0,0.0,0.0,0.0,-1.3403,-1.3403,-1.3403,-1.3403,-1.3403,-1.3403,-1.3519,-1.3668,-1.381,-1.396,-1.4116,-1.4272,-1.4299,-1.4299,-1.4299,-1.4299,-1.4312,-1.4353,-1.4482,-1.4631,-1.4787,-1.5065,-1.535,-1.5608,0.0,-1.6042,0.0,-1.6544,-1.6748,-1.6965,-1.6978,-1.6978,-1.6978,-1.6978,-1.6978,-1.6978,-1.6978,-1.6978,-1.6978,-1.6978,-1.5914,-1.3575,-1.5277,-1.4007,-1.0407,-1.3618,-1.3211,-1.024,-1.1183,-1.1012,0.0,-0.9592,-0.9844,-1.028,-1.0312,-1.032,-1.0332,-0.9727,-0.9532,-0.9539,0.0,0.0,0.0,0.0,0.0,0.0,0.0,-1.8648,-1.8997,-1.9372,-1.9372,-1.9372,-1.9372,-1.9372,-1.9599,-2.0187,0.0,0.0,0.0,0.0,0.0,0.0,0.0,0.0,0.0,0.0,0.0,0.0,0.0,0.0,-1.1389,-1.1396,-1.147,-1.1619,0.0,0.0,0.0,0.0,0.0,0.0,0.0,0.0,0.0,0.0,0.0,0.0,0.0,0.0,0.0,0.0,0.0,0.0,0.0,0.0,0.0,0.0,-1.3403,-1.3403,-1.3403,-1.3403,-1.3403,-1.3403,-1.3519,-1.3668,-1.381,-1.396,-1.4116,-1.4272,-1.4299,-1.4299,-1.4299,-1.4299,-1.4346,-1.4489,-1.4638,-1.4794,-1.4943,-1.5221,-1.5466,0.0,-1.59,-1.6198,-1.649,-1.6795,-1.6978,-1.6978,-1.6978,0.0,-1.6978,-1.6978,-1.6978,-1.6978,-1.6978,-1.6978,-1.6978,-1.6978,-1.5914,-1.3575,-1.3575,-1.252,-1.02,-1.0289,-1.033,-1.012,-0.7824,-0.8287,0.0,-0.7926,-0.8394,-1.0604,-1.069,-1.073,-1.0504,-0.806,-0.7169,-0.6943,0.0,0.0,0.0,0.0,0.0,0.0,0.0,-1.8648,-1.8997,-1.9372,-1.9372,-1.9372,-1.9372,-1.9372,-1.9599,-2.0187,0.0,0.0,0.0,0.0,0.0,0.0,0.0,0.0,0.0,0.0,0.0,0.0,0.0,0.0,0.0,0.0,-1.1416,-1.147,-1.1572,-1.1647,0.0,0.0,0.0,0.0,0.0,0.0,0.0,0.0,0.0,0.0,0.0,0.0,0.0,0.0,0.0,0.0,0.0,0.0,0.0,0.0,-1.3403,-1.3403,-1.3403,-1.3403,-1.3424,-1.3532,-1.3668,-1.381,-1.3966,-1.4116,-1.4245,-1.4292,-1.4299,-1.4299,-1.4299,-1.4299,-1.4346,-1.4489,-1.4638,-1.4794,-1.495,-1.5316,0.0,-1.5635,-1.6076,-1.6463,0.0,0.0,-1.6978,-1.6978,-1.6978,-1.6978,-1.6978,-1.6978,-1.6978,-1.6978,-1.6978,-1.6978,-1.6978,-1.5487,-1.358,-1.1253,-1.1321,-0.9217,-0.5802,-0.887,-0.8472,-0.5663,-0.6586,-0.6387,0.0,-0.4895,-0.5133,-0.5804,-0.582,-0.5826,-0.5826,-0.4933,-0.4709,-0.4709,0.0,0.0,0.0,0.0,0.0,0.0,0.0,-1.8648,-1.8997,-1.9372,-1.9372,-1.9372,-1.9372,-1.9372,-1.9599,-2.0187,0.0,0.0,0.0,0.0,0.0,0.0,0.0,0.0,0.0,0.0,0.0,0.0,0.0,0.0,0.0,0.0,0.0,0.0,-1.1552,0.0,0.0,0.0,0.0,0.0,0.0,0.0,-1.2298,0.0,0.0,0.0,0.0,0.0,0.0,0.0,0.0,0.0,0.0,0.0,0.0,0.0,-1.3403,-1.3403,-1.3403,-1.3403,-1.3437,-1.3593,-1.3736,-1.3878,-1.4034,-1.419,-1.4299,-1.4299,-1.4299,-1.4299,-1.4299,-1.4346,-1.4428,-1.4577,-1.4726,-1.4882,-1.5031,-1.5391,0.0,-1.5947,0.0,0.0,0.0,-1.6924,-1.6978,-1.6978,-1.6978,-1.6551,-1.5704,-1.5704,-1.5277,-1.4429,-1.5277,-1.5277,-1.4429,-1.2948,-1.1271,-0.8968,-0.9018,-0.6908,-0.3692,-0.6335,-0.6141,-0.352,-0.5098,-0.4895,0.0,-0.3583,-0.3589,-0.3589,-0.3589,-0.3589,-0.3589,-0.3589,-0.3589,-0.3589,0.0,0.0,0.0,0.0,0.0,0.0,0.0,0.0,0.0,-1.9372,-1.9372,-1.9372,-1.9372,-1.9372,-1.9599,-2.0187,0.0,0.0,0.0,0.0,0.0,0.0,0.0,0.0,0.0,0.0,0.0,0.0,-1.5554,-1.4209,-1.2917,0.0,0.0,0.0,0.0,0.0,0.0,0.0,0.0,0.0,0.0,0.0,0.0,0.0,0.0,0.0,0.0,0.0,0.0,0.0,0.0,0.0,0.0,0.0,0.0,0.0,0.0,0.0,0.0,-1.341,-1.3451,-1.3607,-1.3749,-1.3899,-1.4055,0.0,0.0,0.0,0.0,0.0,0.0,-1.4414,-1.4563,-1.4713,-1.4869,-1.5025,-1.5174,-1.5472,0.0,0.0,-1.653,0.0,-1.6951,-1.6978,-1.6978,-1.6978,-1.6768,-1.5914,-1.3785,-1.3364,-1.2309,-0.9984,-1.2098,-1.2098,-1.0196,-0.9992,-0.8968,-0.6894,-0.6687,-0.5424,-0.3506,-0.3534,-0.3549,0.0,-0.3576,0.0,0.0,-0.3589,-0.3589,-0.3589,-0.3589,-0.3589,-0.3589,-0.3589,-0.3589,-0.3589,0.0,0.0,0.0,0.0,0.0,0.0,0.0,0.0,0.0,0.0,-1.9372,-1.9372,-1.9372,-1.9372,-1.9599,0.0,0.0,0.0,0.0,0.0,0.0,0.0,0.0,0.0,0.0,0.0,0.0,-1.698,-1.5554,-1.4146,-1.2881,-1.1718,0.0,0.0,0.0,0.0,0.0,0.0,0.0,0.0,0.0,0.0,0.0,0.0,0.0,0.0,-1.2542,-1.2732,0.0,0.0,0.0,0.0,0.0,0.0,0.0,0.0,-1.3403,-1.3403,-1.3403,0.0,-1.3607,-1.3756,-1.3905,-1.4055,0.0,0.0,0.0,0.0,0.0,0.0,0.0,0.0,-1.4563,-1.4713,-1.4869,-1.5059,-1.5323,-1.5716,0.0,0.0,0.0,0.0,-1.6965,-1.6978,-1.6978,-1.6978,-1.5277,-1.4212,-1.3575,-1.1887,-0.998,-0.7653,-0.8074,-0.8921,-1.0196,-0.8556,-0.731,-0.6681,-0.5027,-0.3969,-0.3534,-0.3565,-0.358,0.0,0.0,0.0,-0.3589,-0.3589,-0.3589,-0.3589,-0.3589,-0.3589,-0.3589,-0.3589,-0.3589,-0.3589,0.0,0.0,0.0,0.0,0.0,0.0,0.0,0.0,0.0,0.0,0.0,0.0,0.0,0.0,0.0,0.0,0.0,0.0,0.0,0.0,0.0,0.0,0.0,0.0,0.0,0.0,0.0,0.0,0.0,-1.452,0.0,0.0,0.0,0.0,0.0,0.0,0.0,0.0,0.0,0.0,-1.1701,0.0,0.0,0.0,0.0,0.0,-1.2501,-1.2698,0.0,-1.2963,-1.3159,-1.3403,0.0,0.0,0.0,0.0,-1.3403,-1.3403,-1.3403,-1.3512,-1.3661,-1.3804,-1.396,-1.4116,0.0,0.0,0.0,0.0,0.0,0.0,0.0,0.0,0.0,-1.4821,-1.497,-1.5174,-1.5472,0.0,0.0,-1.6483,-1.6659,-1.6809,0.0,-1.6978,-1.6558,-1.5487,-1.4212,-1.2726,-1.0614,-0.9345,-0.7653,-0.5322,-0.5322,-0.5758,-0.7061,-0.5809,-0.5197,-0.5238,-0.3969,-0.3551,-0.3565,-0.3583,-0.3589,0.0,0.0,0.0,-0.3589,-0.3589,-0.3589,-0.3589,-0.3589,-0.3589,-0.3589,-0.3589,-0.3589,-0.3589,0.0,0.0,0.0,0.0,0.0,0.0,0.0,0.0,0.0,0.0,0.0,0.0,0.0,0.0,0.0,0.0,0.0,0.0,0.0,0.0,0.0,0.0,0.0,0.0,0.0,0.0,0.0,0.0,0.0,0.0,0.0,0.0,0.0,0.0,0.0,0.0,0.0,0.0,0.0,0.0,-1.164,0.0,0.0,0.0,0.0,0.0,0.0,0.0,0.0,-1.2963,-1.3159,-1.3403,-1.3403,0.0,0.0,0.0,0.0,0.0,-1.3431,-1.3546,-1.3688,-1.381,-1.3973,-1.4143,0.0,0.0,0.0,0.0,0.0,0.0,0.0,0.0,0.0,-1.495,-1.5126,0.0,-1.5635,-1.5947,-1.6239,-1.649,-1.668,0.0,-1.6971,-1.6768,-1.5704,-1.3791,-1.2942,-1.0826,-0.7016,-0.6379,-0.5322,-0.3411,-0.3416,-0.3434,-0.3464,-0.3464,-0.3491,-0.3544,-0.3549,-0.3565,-0.3589,-0.3589,-0.3589,-0.3589,0.0,0.0,-0.3589,-0.3589,-0.3589,-0.3589,-0.3589,-0.3589,-0.3589,-0.3589,-0.3589,-0.3589,0.0,0.0,0.0,0.0,0.0,0.0,0.0,0.0,0.0,0.0,0.0,0.0,0.0,0.0,0.0,0.0,0.0,0.0,0.0,0.0,0.0,0.0,0.0,0.0,0.0,0.0,0.0,0.0,0.0,0.0,-1.4791,-1.2368,-1.1301,0.0,0.0,0.0,0.0,0.0,0.0,0.0,-1.1748,0.0,0.0,0.0,0.0,0.0,0.0,0.0,0.0,-1.2963,-1.3159,-1.3403,-1.3403,0.0,0.0,0.0,0.0,0.0,-1.3559,-1.3702,-1.3817,-1.3838,-1.4055,-1.4272,0.0,0.0,0.0,0.0,0.0,0.0,0.0,0.0,0.0,0.0,0.0,-1.5628,0.0,0.0,-1.6469,-1.6517,0.0,-1.6951,-1.6978,-1.5277,-1.4002,-1.3575,-0.998,-0.7438,-0.6804,-0.4898,-0.3837,-0.3412,-0.3437,-0.3465,-0.3495,-0.3495,-0.3513,-0.3544,-0.3569,-0.3587,-0.3589,-0.3589,-0.3589,-0.3589,0.0,-0.3589,-0.3589,-0.3589,-0.3589,-0.3589,-0.3589,-0.3589,-0.3589,-0.3589,-0.3589,-0.3589,0.0,0.0,0.0,0.0,0.0,0.0,0.0,0.0,0.0,0.0,0.0,0.0,0.0,0.0,0.0,0.0,0.0,0.0,0.0,0.0,0.0,0.0,0.0,0.0,0.0,0.0,0.0,0.0,0.0,-1.5684,-1.4791,-1.2368,-1.1328,-1.1619,0.0,0.0,0.0,0.0,0.0,0.0,0.0,0.0,0.0,0.0,0.0,0.0,0.0,0.0,0.0,0.0,-1.3159,-1.3403,-1.3403,0.0,0.0,0.0,0.0,0.0,-1.3587,-1.3736,-1.3858,-1.3946,-1.4136,-1.4299,0.0,0.0,0.0,0.0,0.0,0.0,0.0,0.0,0.0,0.0,0.0,0.0,0.0,0.0,0.0,0.0,0.0,-1.6978,-1.6978,-1.485,-1.3153,-1.1887,-0.9137,-0.6594,-0.5111,-0.4048,-0.3412,-0.3412,-0.3441,-0.3472,-0.3502,-0.3516,-0.354,-0.3569,-0.3583,-0.3589,-0.3589,-0.3589,-0.3589,-0.3589,0.0,-0.3589,-0.3589,-0.3589,-0.3589,-0.3589,-0.3589,-0.3589,-0.3589,-0.3589,-0.3589,-0.3589,0.0,0.0,0.0,0.0,0.0,0.0,0.0,0.0,0.0,0.0,0.0,0.0,0.0,0.0,0.0,0.0,0.0,0.0,0.0,0.0,0.0,0.0,0.0,0.0,0.0,0.0,-1.9456,-1.9072,-1.7636,-1.6124,-1.4536,-1.2543,-1.1601,0.0,0.0,0.0,0.0,0.0,0.0,0.0,0.0,0.0,0.0,0.0,0.0,0.0,0.0,0.0,0.0,0.0,0.0,0.0,0.0,0.0,0.0,-1.3403,-1.3424,-1.3485,-1.3641,-1.3783,-1.3933,0.0,0.0,0.0,0.0,0.0,0.0,0.0,0.0,0.0,0.0,-1.495,0.0,-1.5418,-1.5588,0.0,0.0,0.0,0.0,0.0,0.0,-1.6768,-1.6341,-1.4218,-1.1887,-0.956,-0.7868,-0.5749,-0.3624,-0.3412,-0.3412,-0.3412,-0.3448,-0.3479,-0.3502,-0.3538,-0.3565,-0.3589,-0.3589,-0.3589,-0.3589,-0.3589,-0.3589,-0.3589,-0.3589,-0.3589,-0.3589,-0.3589,-0.3589,-0.3589,-0.3589,-0.3589,-0.3589,-0.3589,-0.3589,-0.3589,0.0,0.0,0.0,0.0,0.0,0.0,0.0,0.0,0.0,0.0,0.0,0.0,0.0,0.0,0.0,0.0,0.0,0.0,0.0,0.0,0.0,0.0,0.0,0.0,0.0,-1.9571,-1.9456,-1.9072,-1.7636,-1.5751,-1.3448,-1.3199,-1.2572,-1.1619,0.0,0.0,0.0,0.0,0.0,0.0,0.0,0.0,0.0,0.0,0.0,0.0,0.0,0.0,0.0,0.0,0.0,0.0,0.0,0.0,-1.3403,-1.3403,-1.3498,-1.3641,-1.3783,-1.3939,0.0,0.0,0.0,0.0,0.0,0.0,0.0,0.0,0.0,0.0,0.0,0.0,-1.5432,-1.5594,-1.5744,-1.5947,-1.6252,0.0,-1.6578,-1.6734,-1.689,-1.6131,-1.4002,-1.1676,-0.956,-0.7228,-0.4898,-0.3624,-0.3412,-0.3412,-0.3412,-0.3412,-0.3468,-0.3499,-0.3502,-0.3558,-0.3587,-0.3589,-0.3589,-0.3589,-0.3589,-0.3589,-0.3589,-0.3589,-0.3589,-0.3589,-0.3589,-0.3589,-0.3589,-0.3589,-0.3589,-0.3589,-0.3589,-0.3589,-0.3589,-0.3589,0.0,0.0,0.0,0.0,0.0,0.0,0.0,0.0,0.0,0.0,0.0,0.0,0.0,0.0,0.0,0.0,0.0,0.0,0.0,0.0,0.0,0.0,0.0,-2.0602,-1.9966,-1.9979,-1.9584,-1.9072,-1.6861,-1.5243,-1.4574,-1.2803,0.0,0.0,0.0,0.0,0.0,0.0,0.0,0.0,0.0,0.0,0.0,0.0,0.0,0.0,0.0,0.0,0.0,0.0,-1.3275,-1.3403,-1.3403,-1.3403,-1.3403,-1.3403,-1.3512,-1.3661,-1.3804,-1.3953,0.0,0.0,0.0,0.0,0.0,0.0,0.0,0.0,0.0,0.0,0.0,0.0,-1.5459,-1.5615,-1.5839,-1.6096,-1.6402,-1.6571,-1.672,-1.6876,-1.6944,-1.6131,-1.3791,-1.1464,-0.9349,-0.7016,-0.4685,-0.3412,-0.3412,-0.3412,-0.342,-0.344,-0.348,-0.3509,-0.3527,-0.3569,-0.3589,-0.3589,-0.3589,-0.3589,-0.3589,-0.3589,-0.3589,-0.3589,-0.3589,-0.3589,-0.3589,-0.3589,-0.3589,-0.3594,-0.3611,-0.3618,-0.3621,-0.3639,-0.3645,-0.3645,0.0,0.0,0.0,0.0,0.0,0.0,0.0,0.0,0.0,0.0,0.0,0.0,0.0,0.0,0.0,0.0,0.0,0.0,0.0,0.0,0.0,0.0,0.0,-2.0729,-2.0106,-1.9979,-1.9711,-1.9072,-1.6806,-1.5442,-1.5245,0.0,0.0,0.0,0.0,0.0,0.0,0.0,0.0,0.0,-1.2203,-1.2318,0.0,0.0,0.0,0.0,0.0,0.0,0.0,0.0,-1.3315,-1.3403,-1.3403,-1.3403,-1.341,-1.3458,-1.358,-1.3729,-1.3871,-1.4027,-1.417,-1.4272,0.0,0.0,0.0,0.0,0.0,0.0,0.0,0.0,0.0,0.0,0.0,0.0,-1.5961,-1.6239,-1.6483,-1.6653,-1.6809,-1.6965,-1.6978,-1.5914,-1.2731,-1.1042,-0.8925,-0.5957,-0.4261,-0.3412,-0.3412,-0.3412,-0.3426,-0.3456,-0.3487,-0.3516,-0.3544,-0.3576,-0.3589,-0.3589,-0.3589,-0.3589,-0.3589,-0.3589,-0.3589,-0.3589,-0.3589,-0.3589,-0.3589,-0.3589,-0.3596,-0.3607,-0.3639,-0.3649,-0.3652,-0.3674,-0.3681,-0.3681,0.0,0.0,0.0,0.0,0.0,0.0,0.0,0.0,0.0,0.0,0.0,0.0,0.0,0.0,0.0,0.0,0.0,0.0,0.0,0.0,0.0,0.0,0.0,-2.0488,-2.0106,-1.9711,-1.9456,-1.9072,-1.7751,-1.6522,-1.5255,-1.4085,0.0,0.0,0.0,0.0,0.0,0.0,0.0,-1.2291,-1.2291,-1.2379,-1.2501,0.0,0.0,0.0,0.0,0.0,0.0,0.0,-1.3403,-1.3403,-1.3403,-1.3403,-1.3431,-1.3587,-1.3729,-1.3871,-1.4027,-1.4183,-1.4299,-1.4299,0.0,0.0,0.0,0.0,0.0,0.0,0.0,0.0,0.0,0.0,0.0,0.0,0.0,-1.6361,-1.6503,-1.6653,-1.6809,-1.6965,-1.6978,-1.5283,-1.0619,-1.0196,-0.8289,-0.3837,-0.3412,-0.3412,-0.3412,-0.3412,-0.3426,-0.3456,-0.3487,-0.3516,-0.3544,-0.3576,-0.3589,-0.3589,-0.3589,-0.3589,-0.3589,-0.3589,-0.3589,-0.3589,-0.3589,-0.3589,-0.3589,-0.3589,-0.3607,-0.3639,-0.367,-0.3681,-0.3681,-0.3681,-0.3681,-0.3681,0.0,0.0,0.0,0.0,0.0,0.0,0.0,0.0,0.0,0.0,0.0,0.0,0.0,0.0,0.0,0.0,0.0,0.0,0.0,0.0,0.0,0.0,0.0,0.0,0.0,0.0,-1.92,-1.9072,-1.6823,-1.5577,0.0,0.0,0.0,-1.1619,0.0,0.0,0.0,0.0,0.0,-1.2298,-1.24,-1.2467,-1.2515,0.0,0.0,0.0,0.0,0.0,0.0,0.0,0.0,0.0,-1.3403,-1.3403,-1.3431,-1.3587,-1.3729,-1.3871,-1.4027,-1.4183,0.0,0.0,0.0,0.0,0.0,0.0,0.0,0.0,0.0,0.0,0.0,0.0,0.0,0.0,0.0,-1.6476,-1.6517,-1.6748,-1.6931,-1.6978,-1.5487,-1.3369,-1.0407,-0.8713,-0.6594,-0.3624,-0.3412,-0.3412,-0.3412,-0.2985,-0.2791,-0.3487,-0.3499,-0.3527,-0.3576,-0.3587,-0.3589,-0.3589,-0.3589,-0.3589,-0.3589,-0.3589,-0.3589,-0.3589,-0.3589,-0.3589,-0.3589,-0.3614,-0.3639,-0.367,-0.3701,-0.3712,-0.3715,-0.3737,-0.3744,-0.3744,0.0,0.0,0.0,0.0,0.0,0.0,0.0,0.0,0.0,0.0,0.0,0.0,0.0,0.0,0.0,0.0,0.0,0.0,0.0,0.0,0.0,0.0,0.0,0.0,0.0,-1.92,-1.9132,0.0,0.0,0.0,0.0,0.0,0.0,-1.1708,0.0,-1.1898,0.0,0.0,-1.2325,-1.2379,-1.2467,-1.2535,-1.2603,0.0,0.0,0.0,0.0,0.0,0.0,0.0,0.0,0.0,-1.3403,-1.3403,-1.3444,-1.3654,-1.3777,-1.3885,-1.4102,0.0,0.0,0.0,0.0,0.0,0.0,0.0,0.0,0.0,0.0,0.0,0.0,0.0,0.0,-1.6015,-1.6307,-1.6544,-1.6605,-1.6822,-1.6978,-1.6978,-1.5066,-1.2731,-1.0407,-0.8501,-0.6172,-0.3624,-0.2985,-0.2985,-0.3412,-0.2995,-0.302,-0.3502,-0.3513,-0.3544,-0.3589,-0.3589,-0.3589,-0.3589,-0.3589,-0.3589,-0.3589,-0.3589,-0.3589,-0.3589,-0.3589,-0.3596,-0.3611,-0.3643,-0.367,-0.3701,-0.3733,-0.3744,-0.3748,-0.3764,-0.3772,-0.3772,0.0,0.0,0.0,0.0,0.0,0.0,0.0,0.0,0.0,0.0,0.0,0.0,0.0,0.0,0.0,0.0,0.0,0.0,0.0,0.0,0.0,0.0,0.0,0.0,0.0,0.0,0.0,0.0,0.0,0.0,0.0,0.0,-1.3115,-1.183,0.0,-1.2013,0.0,-1.2305,-1.2393,-1.2522,-1.2522,-1.2617,-1.2752,-1.2766,0.0,0.0,0.0,0.0,0.0,0.0,0.0,0.0,-1.3403,-1.341,-1.3478,-1.3756,-1.3851,-1.3926,-1.4217,0.0,0.0,0.0,0.0,0.0,0.0,0.0,0.0,0.0,0.0,0.0,0.0,0.0,-1.5967,-1.6259,-1.6429,-1.6571,-1.6727,-1.6883,-1.6978,-1.6978,-1.485,-1.252,-1.0407,-0.8504,-0.6387,-0.3411,-0.2345,-0.2132,-0.2985,-0.3011,-0.3254,-0.3283,-0.3531,-0.3562,-0.3589,-0.3589,-0.3589,-0.3589,-0.3589,-0.3589,-0.3589,-0.3589,-0.3589,-0.3589,-0.3594,-0.3611,-0.3643,-0.3674,-0.3701,-0.3733,-0.3761,-0.3772,-0.3772,-0.3772,-0.3772,-0.3772,0.0,0.0,0.0,0.0,0.0,0.0,0.0,0.0,0.0,0.0,0.0,0.0,0.0,0.0,0.0,0.0,0.0,0.0,0.0,0.0,0.0,0.0,0.0,0.0,0.0,0.0,0.0,0.0,0.0,0.0,0.0,0.0,0.0,-1.1837,0.0,-1.2115,-1.2298,-1.2406,-1.2542,-1.2678,-1.2678,-1.2773,-1.2922,-1.3037,-1.3119,0.0,0.0,0.0,0.0,0.0,0.0,0.0,-1.3403,-1.3485,-1.3614,-1.379,-1.3926,-1.4061,0.0,-1.4299,0.0,0.0,0.0,0.0,0.0,0.0,0.0,0.0,0.0,0.0,-1.5818,-1.5954,-1.6096,-1.6279,-1.6429,-1.6571,-1.6727,-1.6883,-1.6978,-1.6978,-1.3369,-1.083,-1.0196,-0.6597,-0.3623,-0.2132,-0.2772,-0.2345,-0.0853,-0.0645,-0.1301,-0.2626,-0.3088,-0.3562,-0.3589,-0.3589,-0.3589,0.0,-0.3589,-0.3589,-0.3589,-0.3589,-0.3589,-0.3589,-0.3614,-0.3643,-0.3674,-0.3705,-0.3733,-0.3761,-0.3768,-0.3772,-0.3772,-0.3772,-0.3772,-0.3772,0.0,0.0,0.0,0.0,0.0,0.0,0.0,0.0,0.0,0.0,0.0,0.0,0.0,0.0,0.0,0.0,0.0,0.0,0.0,0.0,0.0,0.0,-1.9571,-1.9646,-1.9524,-1.9671,-1.9531,0.0,0.0,0.0,0.0,0.0,0.0,-1.1945,0.0,-1.225,-1.24,-1.2549,-1.2657,-1.2739,-1.2807,-1.2929,-1.3071,-1.3146,-1.322,-1.3295,-1.337,0.0,0.0,0.0,0.0,0.0,0.0,0.0,-1.3654,-1.3797,-1.3953,-1.4102,0.0,0.0,0.0,0.0,0.0,0.0,0.0,0.0,0.0,-1.5594,-1.5689,-1.5784,-1.5934,-1.609,-1.6239,-1.6388,-1.6537,-1.6686,-1.6836,-1.6931,-1.6558,-1.5487,-1.2309,-0.9772,-0.871,-0.5534,-0.2985,-0.1706,-0.1706,-0.1279,-0.0,0.0,-0.0653,-0.197,-0.3104,-0.3576,-0.3589,-0.3589,-0.3589,-0.3589,-0.3589,-0.3589,-0.3589,-0.3589,-0.3596,-0.3611,-0.3628,-0.3659,-0.3705,-0.3719,-0.3744,-0.3772,-0.3772,-0.3772,-0.3772,-0.3772,-0.3772,-0.3772,0.0,0.0,0.0,0.0,0.0,0.0,0.0,0.0,0.0,0.0,0.0,0.0,0.0,0.0,0.0,0.0,0.0,0.0,0.0,0.0,0.0,0.0,-1.9646,-1.9782,-1.9936,-1.9854,-1.9276,0.0,0.0,0.0,0.0,0.0,0.0,-1.2067,0.0,-1.2386,-1.2549,-1.2678,-1.2759,-1.2813,-1.2949,-1.3085,-1.3214,-1.3214,-1.3288,-1.3403,-1.3403,-1.3403,-1.3403,-1.3403,0.0,0.0,0.0,0.0,-1.3688,-1.3804,-1.3966,-1.4136,0.0,0.0,0.0,0.0,0.0,0.0,-1.5377,-1.5432,-1.5527,-1.5798,-1.5852,-1.59,-1.6056,-1.6205,-1.6354,-1.6497,-1.6653,-1.6802,-1.6958,-1.6558,-1.5704,-1.3791,-1.1253,-0.8925,-0.7228,-0.4898,-0.2985,-0.2132,-0.0853,0.0,0.0,0.0,-0.0438,-0.1532,-0.2893,-0.3594,-0.3589,-0.3589,-0.3589,-0.3589,-0.3589,-0.3589,-0.3589,-0.3596,-0.3611,-0.3636,-0.3643,-0.3674,-0.3726,-0.3733,-0.3748,-0.3772,-0.3772,-0.3772,-0.3772,-0.3772,-0.3772,-0.3772,0.0,0.0,0.0,0.0,0.0,0.0,0.0,0.0,0.0,0.0,0.0,0.0,0.0,0.0,0.0,0.0,0.0,0.0,0.0,0.0,0.0,0.0,-1.9813,-1.9948,-1.9954,-2.0319,-2.0466,0.0,0.0,0.0,0.0,0.0,0.0,-1.2067,0.0,0.0,-1.2698,-1.2718,-1.2881,-1.3119,-1.3132,-1.3234,-1.337,-1.337,-1.3383,-1.3403,-1.3403,-1.3403,-1.3403,-1.3403,-1.3403,0.0,0.0,0.0,-1.3817,-1.3838,-1.4041,-1.4272,0.0,0.0,-1.4753,0.0,-1.5079,-1.5221,0.0,0.0,-1.5655,0.0,-1.5852,-1.59,-1.6056,-1.6205,-1.6354,-1.6497,-1.6653,-1.6802,-1.6958,-1.5277,-1.4002,-1.3575,-0.9768,-0.7441,-0.7659,-0.5111,-0.3412,-0.3198,-0.1279,0.0,0.0,0.0,-0.0,-0.0219,-0.2448,-0.3594,-0.3589,-0.3589,-0.3589,-0.3589,-0.3589,-0.3589,-0.3589,-0.3618,-0.3632,-0.3636,-0.3663,-0.3694,-0.373,-0.3754,-0.3768,-0.3772,-0.3772,-0.3772,-0.3772,-0.3772,-0.3772,-0.3772,0.0,0.0,0.0,0.0,0.0,0.0,0.0,0.0,0.0,0.0,0.0,0.0,0.0,0.0,0.0,-1.9584,-1.9584,-1.9517,-1.9536,-1.956,0.0,0.0,0.0,-2.0232,-2.0368,-2.0478,0.0,0.0,0.0,0.0,0.0,-1.3777,-1.2721,0.0,0.0,0.0,0.0,0.0,0.0,-1.318,-1.3268,-1.3342,-1.3403,-1.3403,-1.3403,-1.3403,-1.3403,0.0,-1.3403,-1.3403,-1.3403,-1.3417,-1.3498,0.0,0.0,0.0,-1.4129,0.0,-1.4502,-1.4706,-1.4903,0.0,-1.514,-1.5248,-1.5486,-1.5588,-1.5703,-1.5934,-1.5981,-1.6029,-1.6185,-1.6327,-1.6476,-1.6625,-1.5723,-1.4994,-1.5054,-1.3153,-1.1249,-0.998,-0.8289,-0.6809,-0.5536,-0.4263,-0.3412,-0.3412,-0.1279,0.0,0.0,0.0,-0.0219,-0.0882,-0.2007,-0.2919,-0.3589,-0.3589,-0.3589,-0.3589,-0.3589,-0.3589,-0.3589,-0.3621,-0.3645,-0.3663,-0.3692,-0.3723,-0.3754,-0.3764,-0.3772,-0.3772,-0.3772,-0.3772,-0.3772,-0.3772,-0.3772,-0.3772,0.0,0.0,0.0,0.0,0.0,0.0,0.0,0.0,0.0,0.0,0.0,0.0,0.0,0.0,0.0,0.0,-1.9389,-1.9419,-1.9555,-1.9842,0.0,0.0,0.0,-2.0503,-2.0773,-2.0513,0.0,0.0,0.0,0.0,-1.4734,-1.3079,-1.2332,0.0,-1.263,0.0,0.0,0.0,0.0,0.0,0.0,-1.3403,-1.3403,-1.3403,0.0,-1.3403,-1.3403,0.0,0.0,0.0,0.0,-1.3478,-1.3593,-1.3749,0.0,0.0,0.0,0.0,0.0,0.0,-1.5004,-1.5147,-1.5181,-1.5262,0.0,0.0,-1.5723,-1.6022,-1.5678,-1.5331,-1.5512,-1.5628,-1.5744,-1.5886,-1.4133,-1.2731,-1.2731,-1.0826,-0.8713,-0.7228,-0.6809,-0.5962,-0.3624,-0.3412,-0.3198,-0.2558,-0.1066,0.0,0.0,-0.0653,-0.1318,-0.2217,-0.2011,-0.247,-0.3589,-0.3589,-0.3589,-0.3589,-0.3589,-0.3589,-0.3589,-0.3628,-0.366,-0.3681,-0.3712,-0.3744,-0.3772,-0.3772,-0.3772,-0.3772,-0.3772,-0.3772,-0.3772,-0.3772,-0.3772,-0.3772,0.0,0.0,0.0,0.0,0.0,0.0,0.0,0.0,0.0,0.0,0.0,0.0,0.0,-1.9571,-1.9456,-1.92,-1.9573,-1.9973,-1.9845,-1.9869,-1.9977,-2.0243,0.0,0.0,-2.0641,0.0,0.0,0.0,0.0,0.0,-1.674,-1.3778,-1.244,-1.2705,-1.2725,-1.2888,-1.3152,0.0,0.0,0.0,0.0,0.0,0.0,0.0,0.0,0.0,0.0,0.0,0.0,0.0,0.0,0.0,0.0,0.0,0.0,0.0,0.0,0.0,0.0,-1.4855,0.0,-1.5147,-1.5181,-1.5262,-1.5567,-1.5642,-1.5723,-1.6022,-1.447,-1.3134,-1.3172,-1.3221,-1.3259,-1.3581,-1.1816,-1.0407,-1.0407,-0.8501,-0.7228,-0.7871,-0.5324,-0.3624,-0.3412,-0.3412,-0.2558,-0.0426,-0.0,0.0,0.0,-0.2178,-0.3516,-0.3549,-0.2458,-0.247,-0.3589,-0.3589,-0.3589,-0.3589,-0.3589,-0.3589,-0.3594,-0.3652,-0.3681,-0.3681,-0.3712,-0.3744,-0.3772,-0.3772,-0.3772,-0.3772,-0.3772,-0.3772,-0.3772,-0.3772,-0.3772,-0.3772,0.0,0.0,0.0,0.0,0.0,0.0,0.0,0.0,0.0,0.0,0.0,0.0,0.0,-1.6718,-1.7075,-1.7882,-1.9184,-1.999,-2.0122,-2.0134,-2.0255,-2.0521,0.0,-2.0653,-2.0907,0.0,0.0,0.0,0.0,-1.6332,-1.5286,-1.3399,-1.2684,-1.2874,-1.2874,-1.299,-1.318,-1.3275,0.0,0.0,0.0,0.0,0.0,0.0,0.0,0.0,0.0,0.0,0.0,0.0,0.0,0.0,0.0,0.0,0.0,0.0,0.0,0.0,0.0,0.0,0.0,-1.5167,-1.5181,-1.5262,-1.5567,-1.5642,-1.5723,-1.6022,-1.447,-1.2933,-1.3178,-1.1984,-1.1212,-1.1382,-0.9964,-0.8717,-0.8717,-0.6384,-0.4685,-0.49,-0.405,-0.3412,-0.3412,-0.2132,-0.0853,-0.0,0.0,-0.0643,-0.2176,-0.3059,-0.3527,-0.3576,-0.3137,-0.3141,-0.3589,-0.3589,-0.3589,-0.3589,-0.3589,-0.3589,-0.3594,-0.3652,-0.3681,-0.3684,-0.3733,-0.3761,-0.3772,-0.3772,-0.3772,-0.3772,-0.3772,-0.3772,-0.3772,-0.3772,-0.3772,-0.3772,0.0,0.0,0.0,0.0,0.0,0.0,0.0,0.0,0.0,0.0,0.0,0.0,0.0,0.0,-1.5606,-1.6768,-1.7868,-1.8642,-1.8977,-1.8988,-1.939,-2.0063,-2.0074,-2.0156,-2.0318,-2.0297,0.0,0.0,0.0,0.0,0.0,0.0,-1.284,-1.303,-1.303,0.0,0.0,0.0,0.0,-1.3403,0.0,0.0,-1.3403,0.0,0.0,0.0,0.0,0.0,0.0,0.0,0.0,0.0,0.0,0.0,0.0,0.0,0.0,0.0,-1.4801,0.0,0.0,-1.5181,-1.5221,-1.5323,-1.5581,-1.5676,-1.5582,-1.503,-1.3267,-1.1728,-1.092,-0.9098,-0.7909,-0.8896,-0.7656,-0.6387,-0.6387,-0.4261,-0.2985,-0.3412,-0.3412,-0.3198,-0.2345,-0.0853,0.0,0.0,0.0,0.0,-0.3499,-0.3502,-0.3531,-0.3589,-0.3589,-0.3589,-0.3589,-0.3589,-0.3589,-0.3589,-0.3589,-0.3589,-0.3589,-0.3643,-0.367,-0.3684,-0.3733,-0.3761,-0.3772,-0.3772,-0.3772,-0.3772,-0.3772,-0.3772,-0.3772,-0.3772,-0.3772,-0.3772,0.0,0.0,0.0,0.0,0.0,0.0,0.0,0.0,0.0,0.0,0.0,0.0,0.0,0.0,0.0,-1.569,-1.5709,-1.5887,-1.6434,-1.6462,-1.7135,-1.881,-1.8966,-1.8977,-1.8977,-1.867,0.0,0.0,0.0,0.0,0.0,0.0,-1.2895,0.0,-1.318,-1.3261,-1.3403,0.0,-1.3403,-1.3403,0.0,-1.3403,-1.3424,0.0,0.0,0.0,-1.3797,-1.3844,0.0,-1.3851,0.0,0.0,0.0,0.0,0.0,0.0,0.0,0.0,0.0,0.0,0.0,-1.5181,-1.5296,-1.5452,-1.5601,-1.575,-1.5296,-1.3234,-1.1259,-0.9109,-0.6811,-0.4769,-0.3964,-0.6361,-0.4898,-0.3412,-0.3412,-0.2345,-0.2132,-0.3198,-0.3199,-0.2345,-0.0213,0.0,0.0,0.0,0.0,-0.1074,-0.3499,-0.3502,-0.3531,-0.3587,-0.3589,-0.3589,-0.3589,-0.3589,-0.3589,-0.3589,-0.3589,-0.3589,-0.3589,-0.3621,-0.3652,-0.3681,-0.3712,-0.3744,-0.3772,-0.3772,-0.3772,-0.3772,-0.3772,-0.3772,-0.3772,-0.3772,-0.3772,-0.3772,0.0,0.0,0.0,0.0,0.0,0.0,0.0,0.0,0.0,0.0,0.0,0.0,0.0,0.0,0.0,-1.4559,-1.5705,-1.6412,-1.6524,-1.6533,-1.6708,-1.7204,-1.7204,-1.7282,-1.7585,-1.7468,-1.6899,0.0,0.0,0.0,0.0,0.0,0.0,0.0,-1.3288,-1.3363,-1.3403,-1.3403,0.0,0.0,-1.3403,-1.3298,0.0,0.0,0.0,0.0,0.0,-1.2966,-1.2979,0.0,-1.3494,-1.3879,0.0,0.0,0.0,0.0,0.0,0.0,-1.493,0.0,0.0,0.0,0.0,0.0,-1.5022,-1.5165,-1.4718,-1.2647,-1.0663,-0.8503,-0.6811,-0.4769,-0.3549,-0.4249,-0.3837,-0.3198,-0.2345,-0.1279,-0.0639,-0.0853,-0.0853,-0.0639,-0.0,0.0,0.0,0.0,0.0,-0.0645,-0.2187,-0.3102,-0.3576,-0.3589,-0.3589,-0.3589,-0.3589,-0.3589,-0.3589,-0.3589,-0.3589,-0.3589,-0.3589,-0.3621,-0.3652,-0.3681,-0.3712,-0.3744,-0.3772,-0.3772,-0.3772,-0.3772,-0.3772,-0.3772,-0.3772,-0.3772,-0.3772,-0.3772,0.0,0.0,0.0,0.0,0.0,0.0,0.0,0.0,0.0,0.0,0.0,0.0,0.0,0.0,0.0,-1.3235,-1.4211,-1.4745,-1.4828,-1.4894,-1.5269,-1.5949,-1.6037,-1.6133,-1.6392,-1.6232,-1.5582,-1.4238,0.0,0.0,0.0,0.0,0.0,0.0,0.0,0.0,0.0,0.0,0.0,0.0,-1.3325,0.0,0.0,-1.293,-1.2662,0.0,0.0,0.0,-1.2771,-1.2851,-1.3268,0.0,0.0,0.0,0.0,0.0,0.0,0.0,0.0,0.0,0.0,0.0,0.0,0.0,-1.5228,-1.5407,-1.4583,-1.1654,-1.0062,-0.8492,-0.5754,-0.4139,-0.3337,-0.3385,-0.3403,-0.3198,-0.2558,-0.1066,0.0,0.0,0.0,0.0,0.0,0.0,0.0,0.0,0.0,-0.043,-0.1749,-0.2882,-0.358,-0.3589,-0.3589,-0.3589,-0.3589,-0.3589,-0.3589,-0.3589,-0.3589,-0.3589,-0.3589,-0.3607,-0.3632,-0.3663,-0.3694,-0.3726,-0.3754,-0.3768,-0.3772,-0.3772,-0.3772,-0.3772,-0.3772,-0.3772,-0.3772,-0.3772,0.0,0.0,0.0,0.0,0.0,0.0,0.0,0.0,0.0,0.0,0.0,0.0,0.0,0.0,0.0,0.0,-1.2142,-1.2223,-1.2359,-1.2481,-1.3226,-1.4931,-1.509,-1.5178,-1.5178,-1.4859,-1.4087,-1.2983,0.0,0.0,0.0,0.0,0.0,0.0,0.0,0.0,0.0,0.0,0.0,-1.3485,-1.3141,-1.3055,0.0,0.0,-1.2505,0.0,-1.2662,-1.2704,-1.271,-1.2722,-1.3164,0.0,0.0,0.0,0.0,0.0,-1.497,0.0,0.0,0.0,0.0,0.0,0.0,0.0,-1.5442,-1.5866,-1.4875,-1.0863,-1.0062,-0.8679,-0.4696,-0.3914,-0.3948,-0.378,-0.3812,-0.362,-0.3411,-0.1705,-0.0213,-0.0,0.0,0.0,0.0,0.0,0.0,0.0,0.0,-0.043,-0.1749,-0.2868,-0.3562,-0.3589,-0.3589,-0.3589,-0.3589,-0.3589,-0.3589,-0.3589,-0.3589,-0.3589,-0.3589,-0.3589,-0.3607,-0.3636,-0.3663,-0.3694,-0.3723,-0.3754,-0.3768,-0.3772,-0.3772,-0.3772,-0.3772,-0.3772,-0.3772,-0.3772,-1.0717,0.0,0.0,0.0,0.0,0.0,0.0,0.0,0.0,0.0,0.0,0.0,0.0,0.0,0.0,0.0,-1.2644,-1.28,-1.2827,-1.2854,-1.304,-1.3387,-1.3422,-1.3436,-1.3436,-1.3373,-1.3276,-1.3132,0.0,0.0,0.0,0.0,0.0,0.0,0.0,0.0,0.0,0.0,0.0,-1.3114,-1.3114,0.0,-1.2805,-1.2312,-1.1868,-1.1799,-1.1827,-1.1844,-1.1866,0.0,-1.2057,-1.2335,0.0,0.0,0.0,0.0,0.0,0.0,0.0,0.0,0.0,0.0,0.0,0.0,-1.5054,-1.5276,-1.4676,-1.2074,-1.1668,-1.0895,-0.8764,-0.8382,-0.7821,-0.6285,-0.589,-0.5281,-0.3621,-0.2985,-0.2132,-0.0213,0.0,0.0,0.0,0.0,0.0,0.0,0.0,-0.0433,-0.1749,-0.2868,-0.3562,-0.3589,-0.3589,-0.3589,-0.3589,-0.3589,-0.3589,-0.3589,-0.3589,-0.3589,-0.3589,-0.3589,-0.3607,-0.3636,-0.3643,-0.366,-0.3692,-0.3723,-0.375,-0.3772,-0.3772,-0.3772,-0.3772,-0.3772,-0.3772,-0.3772,-1.0941,0.0,0.0,0.0,0.0,0.0,0.0,0.0,0.0,0.0,0.0,0.0,0.0,0.0,0.0,0.0,0.0,0.0,0.0,0.0,-1.3064,-1.3064,-1.3139,-1.318,-1.318,-1.318,-1.3214,-1.3288,0.0,0.0,0.0,0.0,0.0,0.0,0.0,0.0,0.0,0.0,-1.3475,-1.3262,-1.2916,0.0,-1.2419,-1.1902,-1.1599,-1.1309,-0.9375,-0.8517,-0.8569,-0.86,-1.0151,0.0,0.0,-1.3425,-1.405,0.0,-1.4699,-1.4712,0.0,0.0,0.0,-1.5276,0.0,0.0,0.0,-1.5519,-1.5074,-1.2868,-1.2468,-1.1884,-1.0121,-0.9763,-0.9416,-0.827,-0.7304,-0.631,-0.5074,-0.4039,-0.2772,-0.1279,-0.0426,0.0,0.0,0.0,0.0,0.0,-0.107,-0.1723,-0.1738,-0.2851,-0.3538,-0.3565,-0.3583,-0.3589,-0.3589,-0.3589,-0.3589,-0.3589,-0.3589,-0.3589,-0.3589,-0.3589,-0.3596,-0.3614,-0.3628,-0.3643,-0.366,-0.3692,-0.3712,-0.373,-0.3761,-0.3772,-0.3772,-0.3772,-0.3772,-0.3772,-1.1172,0.0,0.0,0.0,0.0,0.0,0.0,0.0,0.0,0.0,0.0,0.0,0.0,0.0,0.0,0.0,0.0,0.0,0.0,0.0,-1.3214,-1.3214,-1.3336,-1.3403,-1.3403,-1.3403,-1.3403,-1.3403,0.0,0.0,0.0,0.0,0.0,0.0,0.0,0.0,0.0,0.0,0.0,-1.3023,0.0,-1.2437,-1.2206,-1.1688,-1.0988,-0.9927,-0.6002,-0.4591,-0.4632,-0.4629,-0.7267,-1.0904,-1.1657,-1.2659,0.0,0.0,0.0,0.0,0.0,0.0,0.0,0.0,0.0,-1.571,0.0,0.0,0.0,-1.3866,-1.3461,-1.3062,-1.1263,-1.0927,-1.078,-1.0375,-0.8877,-0.7729,-0.7324,-0.5281,-0.3617,-0.2558,-0.1492,-0.0426,-0.0,-0.0426,-0.0426,-0.0,-0.1919,-0.2783,-0.2159,-0.305,-0.3516,-0.3544,-0.3572,-0.3589,-0.3589,-0.3589,-0.3589,-0.3589,-0.3589,-0.3589,-0.3589,-0.3589,-0.3589,-0.3589,-0.3614,-0.3625,-0.3628,-0.366,-0.367,-0.3677,-0.3739,-0.3761,-0.3764,-0.3768,-0.3772,-0.3772,-1.1212,-1.1274,0.0,0.0,-1.1579,-1.1762,0.0,0.0,0.0,0.0,0.0,0.0,0.0,0.0,0.0,0.0,0.0,0.0,-1.3349,0.0,0.0,-1.3376,-1.339,-1.3403,-1.3403,-1.3403,-1.3403,-1.3403,0.0,0.0,0.0,0.0,0.0,0.0,-1.3546,0.0,0.0,0.0,-1.283,0.0,-1.2273,-1.2223,0.0,-1.1634,-0.9321,-0.5888,-0.203,-0.0558,-0.0563,0.0,-0.3389,-0.7403,0.0,-1.2544,-1.3116,-1.3682,0.0,0.0,0.0,0.0,0.0,0.0,-1.5622,0.0,0.0,0.0,-1.6083,-1.5877,0.0,-1.5678,-1.5479,0.0,0.0,-1.2679,-1.2181,-1.1482,-0.9514,-0.7521,-0.5488,-0.3408,-0.3198,-0.2132,-0.0213,-0.1919,-0.2132,-0.0213,-0.1279,-0.2355,-0.3239,-0.3486,-0.3516,-0.3544,-0.3572,-0.3589,-0.3589,-0.3589,-0.3589,-0.3589,-0.3589,-0.3589,-0.3589,-0.3589,-0.3589,-0.3589,-0.3594,-0.3594,-0.3596,-0.3628,-0.3639,-0.3645,-0.3708,-0.373,-0.3733,-0.3761,-0.3772,-0.3772,-1.1592,0.0,0.0,0.0,-1.1884,-1.1965,-1.1965,0.0,0.0,0.0,0.0,0.0,0.0,0.0,0.0,0.0,0.0,-1.3403,0.0,0.0,0.0,-1.3403,-1.3403,-1.3403,-1.3403,-1.3403,-1.3403,-1.3403,-1.3403,0.0,0.0,0.0,0.0,0.0,-1.3349,0.0,-1.3204,0.0,-1.2589,0.0,0.0,0.0,0.0,-1.1726,-0.7728,-0.2239,-0.056,0.0,0.0,0.0,-0.1143,0.0,0.0,0.0,0.0,0.0,0.0,0.0,0.0,0.0,0.0,0.0,0.0,0.0,-1.5368,0.0,-1.528,0.0,0.0,0.0,0.0,0.0,0.0,0.0,-1.377,-1.2653,-1.1677,-0.8728,-0.6321,-0.5528,-0.4261,-0.2558,-0.0213,-0.1492,-0.2345,-0.1919,-0.2345,-0.2989,-0.343,-0.3476,-0.3509,-0.352,-0.3565,-0.3589,-0.3589,-0.3589,-0.3589,-0.3589,-0.3589,-0.3589,-0.3589,-0.3589,-0.3589,-0.3589,-0.3589,-0.3589,-0.3589,-0.3604,-0.3607,-0.3614,-0.3656,-0.3684,-0.3705,-0.3733,-0.3744,-0.3748,-1.1676,0.0,0.0,0.0,0.0,0.0,-1.2298,0.0,0.0,0.0,0.0,0.0,-1.3227,-1.3336,0.0,0.0,0.0,-1.3403,0.0,0.0,-1.3444,0.0,0.0,0.0,0.0,-1.3403,-1.3403,-1.3403,-1.3444,0.0,0.0,0.0,0.0,0.0,0.0,-1.3268,-1.3197,0.0,-1.2337,-1.2006,-1.2204,-1.1997,-1.1833,-1.1895,-0.6895,0.0,0.0,0.0,0.0,0.0,0.0,0.0,-0.693,0.0,0.0,0.0,0.0,0.0,-1.4292,0.0,0.0,0.0,0.0,0.0,0.0,0.0,0.0,0.0,0.0,0.0,0.0,0.0,0.0,0.0,0.0,-1.3805,-1.3805,-1.071,-0.8156,-0.7824,-0.5099,-0.2769,-0.1066,-0.1705,-0.2558,-0.3412,-0.3412,-0.3412,-0.3412,-0.3461,-0.3495,-0.3502,-0.3551,-0.3583,-0.3589,-0.3589,-0.3589,-0.3589,-0.3589,-0.3589,-0.3589,-0.3589,-0.3589,-0.3589,-0.3589,-0.3589,-0.3589,-0.3589,-0.3589,-0.3594,-0.3614,-0.3636,-0.366,-0.3699,-0.3712,-0.3719,-1.1637,-1.1854,0.0,0.0,0.0,0.0,0.0,0.0,0.0,0.0,0.0,0.0,0.0,0.0,0.0,0.0,0.0,-1.3403,-1.3403,0.0,-1.3553,0.0,0.0,-1.3553,0.0,0.0,-1.3403,-1.3403,0.0,0.0,0.0,0.0,0.0,0.0,-1.3474,-1.3191,-1.268,-1.2284,-1.1889,-1.148,-1.148,-1.1462,-1.1522,0.0,-0.7059,0.0,0.0,0.0,0.0,0.0,0.0,0.0,0.0,0.0,0.0,0.0,0.0,0.0,0.0,0.0,0.0,-1.4293,0.0,0.0,0.0,0.0,-1.4476,0.0,0.0,0.0,0.0,0.0,0.0,0.0,0.0,0.0,0.0,-1.419,-1.191,-1.004,-0.6125,-0.3401,-0.3198,-0.3412,-0.3412,-0.3412,-0.3412,-0.3412,-0.3412,-0.3441,-0.3472,-0.3502,-0.3531,-0.3558,-0.3589,-0.3589,-0.3589,-0.3589,-0.3589,-0.3589,-0.3589,-0.3589,-0.3589,-0.3589,-0.3589,-0.3589,-0.3589,-0.3589,-0.3589,-0.3589,-0.3589,-0.3594,-0.36,-0.366,-0.3681,-0.3688,0.0,0.0,0.0,0.0,0.0,0.0,0.0,-1.3098,0.0,0.0,0.0,0.0,0.0,0.0,-1.2567,0.0,0.0,-1.2707,-1.3049,-1.318,0.0,0.0,0.0,-1.3573,0.0,0.0,0.0,0.0,0.0,0.0,0.0,0.0,0.0,0.0,0.0,-1.2808,0.0,0.0,0.0,0.0,0.0,-1.1784,-1.0969,0.0,0.0,0.0,0.0,0.0,0.0,0.0,0.0,0.0,0.0,-0.0989,-0.2392,-0.3764,-0.6153,0.0,0.0,0.0,-1.4482,-1.4253,0.0,0.0,0.0,0.0,0.0,0.0,0.0,0.0,0.0,0.0,0.0,0.0,0.0,0.0,0.0,-1.3368,-1.1701,-0.8163,-0.5078,-0.3408,-0.3411,-0.3412,-0.3412,-0.3412,-0.3412,-0.3412,-0.3412,-0.3441,-0.3471,-0.3502,-0.3531,-0.3558,-0.3589,-0.3589,-0.3589,-0.3589,-0.3589,-0.3589,-0.3589,-0.3589,-0.3589,-0.3589,-0.3589,-0.3589,-0.3589,-0.3589,-0.3589,-0.3589,-0.3589,-0.3589,-0.3594,-0.3636,-0.3649,-0.3656,-1.1832,0.0,0.0,0.0,0.0,0.0,0.0,0.0,0.0,0.0,-1.2567,0.0,-1.2136,0.0,-1.216,0.0,-1.2295,-1.2514,-1.3023,-1.2981,0.0,-1.3152,-1.3376,0.0,0.0,0.0,0.0,0.0,0.0,-1.3747,0.0,0.0,0.0,0.0,0.0,-1.2592,-1.224,-1.1831,-1.1786,0.0,0.0,-1.0235,0.0,0.0,0.0,0.0,0.0,0.0,0.0,0.0,0.0,0.0,0.0,0.0,0.0,0.0,-0.2005,-0.4026,-0.4025,-0.6645,0.0,-1.0886,-1.2104,0.0,-1.3312,0.0,0.0,0.0,0.0,0.0,0.0,0.0,0.0,0.0,0.0,0.0,0.0,-1.2966,-1.2094,-0.9165,-0.6318,-0.4246,-0.3411,-0.3412,-0.3412,-0.3412,-0.3412,-0.3412,-0.3412,-0.343,-0.3454,-0.3486,-0.3513,-0.3544,-0.3572,-0.3583,-0.3589,-0.3589,-0.3589,-0.3589,-0.3589,-0.3589,-0.3589,-0.3589,-0.3589,-0.3589,-0.3589,-0.3589,-0.3589,-0.3589,-0.3589,-0.3589,-0.3594,-0.3611,-0.3625,-0.3643,0.0,0.0,0.0,0.0,-1.2767,0.0,0.0,0.0,-1.2075,0.0,-1.2081,-1.213,-1.2101,-1.2113,-1.2168,-1.23,-1.2318,0.0,-1.2993,-1.278,0.0,0.0,-1.2786,-1.2625,-1.233,0.0,0.0,0.0,0.0,0.0,0.0,0.0,0.0,0.0,-1.2484,0.0,-1.2198,-1.1958,-1.1737,-1.172,-1.1584,-0.6988,0.0,0.0,0.0,0.0,0.0,0.0,0.0,0.0,0.0,0.0,0.0,0.0,0.0,0.0,0.0,0.0,0.0,0.0,-0.1009,-0.5038,0.0,0.0,0.0,0.0,-1.2553,0.0,0.0,0.0,0.0,0.0,0.0,0.0,0.0,0.0,-1.2258,-1.2759,-1.2674,-1.2795,-0.9169,-0.5897,-0.3834,-0.3411,-0.3412,-0.3412,-0.3412,-0.3412,-0.3412,-0.3412,-0.3426,-0.3456,-0.3487,-0.3516,-0.3544,-0.3576,-0.3589,-0.3589,-0.3589,-0.3589,-0.3589,-0.3589,-0.3589,-0.3589,-0.3589,-0.3589,-0.3589,-0.3589,-0.3589,-0.3589,-0.3589,-0.3589,-0.3589,-0.3589,-0.3607,-0.3632,-1.1311,-1.1842,-1.237,0.0,-1.2338,-1.2198,0.0,0.0,0.0,0.0,-1.1716,-1.16,-1.1401,-1.1246,-1.1262,-1.1485,-1.1389,0.0,0.0,0.0,0.0,-1.262,-1.2814,-1.2632,-1.2249,-1.2771,0.0,-1.2947,0.0,0.0,-1.3003,0.0,0.0,0.0,0.0,-1.2057,-1.1797,-1.1917,-1.1919,-1.1574,-0.5648,-0.1965,0.0,0.0,0.0,0.0,0.0,0.0,0.0,0.0,0.0,0.0,0.0,0.0,0.0,0.0,0.0,0.0,0.0,0.0,-0.0206,-0.1439,-0.2466,-0.4111,0.0,0.0,0.0,0.0,0.0,0.0,0.0,0.0,0.0,0.0,0.0,0.0,0.0,0.0,-0.9953,-0.8469,-0.7262,-0.6483,-0.5947,-0.4474,-0.3412,-0.3412,-0.3412,-0.3412,-0.3412,-0.3412,-0.3426,-0.3456,-0.3487,-0.3516,-0.3544,-0.3576,-0.3589,-0.3589,-0.3589,-0.3589,-0.3589,-0.3589,-0.3589,-0.3589,-0.3589,-0.3589,-0.3589,-0.3589,-0.3589,-0.3589,-0.3589,-0.3589,-0.3589,-0.3589,-0.3594,-0.3604,-0.9059,0.0,0.0,-0.9637,0.0,0.0,-1.1849,0.0,0.0,-1.1334,-1.135,0.0,-1.1188,-0.9618,-0.8586,-0.8811,-0.8682,0.0,-0.8698,0.0,0.0,-1.2574,-1.2378,-1.2217,-1.1917,-1.2264,0.0,-1.2258,0.0,0.0,-1.261,0.0,0.0,0.0,-1.2141,-1.203,-1.1748,-1.193,-1.2128,-1.1538,-0.3346,0.0,0.0,0.0,0.0,0.0,0.0,0.0,0.0,0.0,0.0,0.0,0.0,0.0,0.0,0.0,0.0,0.0,0.0,0.0,0.0,0.0,0.0,-0.0622,-0.3108,-0.3523,-0.3523,0.0,0.0,0.0,0.0,0.0,0.0,0.0,0.0,0.0,0.0,0.0,0.0,-0.8103,-0.7084,-0.6703,-0.6796,-0.4685,-0.3412,-0.3412,-0.3412,-0.3412,0.0,-0.3412,-0.3419,-0.3437,-0.348,-0.3509,-0.3527,-0.3569,-0.3589,-0.3589,-0.3589,-0.3589,-0.3589,-0.3589,-0.3589,-0.3589,-0.3589,-0.3589,-0.3589,-0.3589,-0.3589,-0.3589,-0.3589,-0.3589,-0.3589,-0.3589,-0.3589,-0.3594,0.0,0.0,0.0,0.0,0.0,0.0,0.0,-1.0646,0.0,-1.0966,0.0,-1.1031,-1.1164,-0.8148,-0.5864,-0.5029,0.0,-0.5032,-0.5027,-0.5029,-0.6835,-1.1004,-1.0824,-1.069,-1.0785,-1.077,0.0,0.0,0.0,0.0,0.0,-1.221,-1.2096,-1.1851,-1.178,-1.1849,-1.1898,-1.1003,-1.0569,-1.0063,-0.2783,0.0,0.0,0.0,0.0,0.0,0.0,0.0,0.0,0.0,0.0,0.0,0.0,0.0,0.0,0.0,0.0,0.0,0.0,0.0,0.0,0.0,0.0,0.0,0.0,0.0,0.0,0.0,0.0,0.0,0.0,0.0,0.0,0.0,0.0,0.0,0.0,0.0,0.0,0.0,-0.7764,0.0,-0.6374,-0.4473,-0.3412,-0.3412,-0.3412,-0.3412,0.0,0.0,-0.3412,-0.3412,-0.3467,-0.3499,-0.3502,-0.3555,-0.3587,-0.3589,-0.3589,-0.3589,-0.3589,-0.3589,-0.3589,-0.3589,-0.3589,-0.3589,-0.3589,-0.3589,-0.3589,-0.3589,-0.3589,-0.3589,-0.3589,-0.3589,-0.3589,-0.3589,0.0,0.0,0.0,0.0,0.0,-0.5743,-0.6501,-0.6448,-0.7472,-1.0739,-1.1111,-1.1202,-1.1437,-1.0911,-0.7838,-0.1471,-0.092,0.0,0.0,0.0,0.0,-0.2205,-0.5144,-0.6803,-0.6632,-0.6813,-0.8477,0.0,0.0,0.0,0.0,0.0,-1.1884,-1.1796,-1.1839,-1.1972,-1.1792,-0.4915,0.0,-0.1988,-0.0602,0.0,0.0,0.0,0.0,0.0,0.0,0.0,0.0,0.0,0.0,0.0,0.0,0.0,0.0,0.0,0.0,0.0,0.0,0.0,0.0,0.0,0.0,0.0,0.0,0.0,0.0,0.0,0.0,0.0,0.0,0.0,0.0,0.0,0.0,0.0,0.0,0.0,0.0,0.0,-0.6303,-0.6536,-0.4258,-0.3624,-0.3412,-0.3412,-0.3412,-0.3412,0.0,0.0,-0.3412,0.0,-0.3446,0.0,0.0,0.0,-0.3565,-0.3589,-0.3589,-0.3589,-0.3589,-0.3589,-0.3589,-0.3589,-0.3589,-0.3589,-0.3589,-0.3589,-0.3589,-0.3589,-0.3589,-0.3589,-0.3589,-0.3589,-0.3589,-0.3594,0.0,0.0,0.0,0.0,0.0,0.0,0.0,-0.2681,0.0,-0.5017,-0.8807,-1.1421,-1.1425,-0.7918,-0.4052,-0.037,0.0,0.0,0.0,0.0,0.0,0.0,-0.1849,0.0,-0.2795,-0.2793,-0.3721,-0.5771,0.0,0.0,0.0,0.0,-1.0698,-0.9069,-1.1057,-0.9662,-0.5703,0.0,0.0,0.0,0.0,0.0,0.0,0.0,0.0,0.0,0.0,0.0,0.0,0.0,0.0,0.0,0.0,0.0,0.0,0.0,0.0,0.0,0.0,0.0,0.0,0.0,0.0,0.0,0.0,0.0,0.0,0.0,0.0,0.0,0.0,0.0,0.0,0.0,0.0,0.0,0.0,0.0,-0.2527,0.0,0.0,0.0,-0.3623,-0.4473,-0.4685,-0.3411,-0.3412,-0.3412,-0.3412,0.0,-0.3412,0.0,0.0,0.0,-0.3502,0.0,0.0,-0.3589,-0.3589,-0.3589,-0.3589,-0.3589,-0.3589,-0.3589,-0.3589,-0.3589,-0.3589,-0.3589,-0.3589,-0.3589,-0.3589,-0.3589,-0.3589,-0.3589,-0.3589,-0.3594,0.0,-0.4551,0.0,0.0,-0.3739,0.0,0.0,0.0,0.0,0.0,-0.5303,-0.9019,-0.9111,-0.3723,0.0,0.0,0.0,0.0,0.0,0.0,0.0,0.0,0.0,0.0,0.0,0.0,0.0,0.0,0.0,0.0,0.0,-1.0014,-0.9319,0.0,0.0,0.0,0.0,0.0,0.0,0.0,0.0,0.0,0.0,0.0,0.0,0.0,0.0,0.0,0.0,0.0,0.0,0.0,0.0,0.0,0.0,0.0,0.0,0.0,0.0,0.0,0.0,0.0,0.0,0.0,0.0,0.0,0.0,0.0,0.0,0.0,0.0,0.0,0.0,0.0,0.0,0.0,0.0,0.0,0.0,0.0,0.0,0.0,-0.3412,-0.5111,-0.5322,-0.3624,-0.3837,-0.3837,-0.3412,0.0,0.0,0.0,0.0,-0.3465,-0.3502,0.0,-0.3555,-0.3589,-0.3589,-0.3589,-0.3589,-0.3589,-0.3589,-0.3589,-0.3589,-0.3589,-0.3589,-0.3589,-0.3589,-0.3589,-0.3589,-0.3589,-0.3589,-0.3589,-0.3594,-0.3604,0.0,0.0,0.0,0.0,0.0,0.0,0.0,0.0,0.0,0.0,-0.0555,-0.1114,-0.1125,-0.0379,0.0,0.0,0.0,0.0,0.0,0.0,0.0,0.0,0.0,0.0,0.0,0.0,0.0,0.0,0.0,0.0,0.0,0.0,0.0,0.0,0.0,0.0,0.0,0.0,0.0,0.0,0.0,0.0,0.0,0.0,0.0,0.0,0.0,0.0,0.0,0.0,0.0,0.0,0.0,0.0,0.0,0.0,0.0,0.0,0.0,0.0,0.0,0.0,0.0,0.0,0.0,0.0,0.0,0.0,0.0,0.0,0.0,0.0,0.0,0.0,0.0,0.0,0.0,0.0,-0.0213,-0.0213,0.0,0.0,-0.3199,-0.3624,-0.3624,-0.3412,-0.5322,-0.5534,0.0,0.0,0.0,-0.3412,-0.3415,-0.3444,-0.3502,-0.3506,-0.3534,-0.3589,-0.3589,-0.3589,-0.3589,-0.3589,-0.3589,-0.3589,-0.3589,-0.3589,-0.3589,-0.3589,-0.3589,-0.3589,-0.3589,-0.3589,-0.3589,-0.3589,-0.3607,-0.3636,0.0,0.0,0.0,0.0,0.0,0.0,0.0,0.0,0.0,0.0,0.0,0.0,0.0,0.0,0.0,0.0,0.0,0.0,0.0,0.0,0.0,0.0,0.0,0.0,0.0,0.0,0.0,0.0,0.0,0.0,0.0,0.0,0.0,0.0,0.0,0.0,0.0,0.0,0.0,0.0,0.0,0.0,0.0,0.0,0.0,0.0,0.0,0.0,0.0,0.0,0.0,0.0,0.0,0.0,0.0,0.0,0.0,0.0,0.0,0.0,0.0,0.0,0.0,0.0,0.0,0.0,0.0,0.0,0.0,0.0,0.0,0.0,0.0,0.0,0.0,0.0,0.0,0.0,0.0,0.0,0.0,-0.1492,-0.3198,-0.3407,-0.3405,-0.3411,-0.4261,0.0,0.0,0.0,0.0,-0.3412,0.0,-0.346,-0.3502,-0.352,-0.3549,-0.3589,-0.3589,-0.3589,-0.3589,-0.3589,-0.3589,-0.3589,-0.3589,-0.3589,-0.3589,-0.3589,-0.3589,-0.3589,-0.3589,-0.3589,-0.3589,-0.3589,-0.3611,-0.3639,0.0,0.0,0.0,0.0,0.0,0.0,0.0,0.0,0.0,0.0,0.0,0.0,0.0,0.0,0.0,0.0,0.0,0.0,0.0,0.0,0.0,0.0,0.0,0.0,0.0,0.0,0.0,0.0,0.0,0.0,0.0,0.0,0.0,0.0,0.0,0.0,0.0,0.0,0.0,0.0,0.0,0.0,0.0,0.0,0.0,0.0,0.0,0.0,0.0,0.0,0.0,0.0,0.0,0.0,0.0,0.0,0.0,0.0,0.0,0.0,0.0,0.0,0.0,0.0,0.0,0.0,0.0,0.0,0.0,0.0,0.0,0.0,0.0,0.0,0.0,0.0,0.0,0.0,0.0,-0.0853,-0.0639,-0.1279,-0.3198,-0.3405,-0.3405,-0.3411,0.0,0.0,0.0,0.0,0.0,0.0,0.0,0.0,-0.3502,-0.3531,-0.3558,-0.3589,-0.3589,-0.3589,-0.3589,-0.3589,-0.3589,-0.3589,-0.3589,-0.3589,-0.3589,-0.3589,-0.3589,-0.3589,-0.3589,-0.3589,-0.3589,-0.3589,-0.3614,-0.3652,0.0,0.0,0.0,0.0,0.0,0.0,0.0,0.0,0.0,0.0,0.0,0.0,0.0,0.0,0.0,0.0,0.0,0.0,0.0,0.0,0.0,0.0,0.0,0.0,0.0,0.0,0.0,0.0,0.0,0.0,0.0,0.0,0.0,0.0,0.0,0.0,0.0,0.0,0.0,0.0,0.0,0.0,0.0,0.0,0.0,0.0,0.0,0.0,0.0,0.0,0.0,0.0,0.0,0.0,0.0,0.0,0.0,0.0,0.0,0.0,0.0,0.0,0.0,0.0,0.0,0.0,0.0,0.0,0.0,0.0,0.0,0.0,0.0,0.0,0.0,0.0,0.0,0.0,0.0,-0.2985,-0.2345,-0.2132,-0.3199,-0.3412,-0.3412,-0.3412,0.0,0.0,0.0,0.0,0.0,-0.3412,-0.3441,0.0,-0.3502,-0.3531,-0.3558,-0.3589,-0.3589,-0.3589,-0.3589,-0.3589,-0.3589,-0.3589,-0.3589,-0.3589,-0.3589,-0.3589,-0.3589,-0.3589,-0.3589,-0.3589,-0.3589,-0.3589,-0.3628,-0.3681,0.0,0.0,0.0,0.0,0.0,0.0,0.0,0.0,0.0,0.0,0.0,0.0,0.0,0.0,0.0,0.0,0.0,0.0,0.0,0.0,0.0,0.0,0.0,0.0,0.0,0.0,0.0,0.0,0.0,0.0,0.0,0.0,0.0,0.0,0.0,0.0,0.0,0.0,0.0,0.0,0.0,0.0,0.0,0.0,0.0,0.0,0.0,0.0,0.0,0.0,0.0,0.0,0.0,0.0,0.0,0.0,0.0,0.0,0.0,0.0,0.0,0.0,0.0,0.0,0.0,0.0,0.0,0.0,0.0,0.0,0.0,0.0,0.0,0.0,0.0,0.0,0.0,0.0,-0.0213,-0.1066,-0.2132,-0.2985,-0.3412,-0.3412,0.0,0.0,0.0,0.0,0.0,0.0,0.0,0.0,-0.3461,0.0,-0.3502,-0.3551,-0.358,-0.3589,-0.3589,-0.3589,-0.3589,-0.3589,-0.3589,-0.3589,-0.3589,-0.3589,-0.3589,-0.3589,-0.3589,-0.3589,-0.3589,-0.3589,-0.3589,-0.3589,-0.3628,-0.3681,0.0,0.0,0.0,0.0,0.0,0.0,0.0,0.0,0.0,0.0,0.0,0.0,0.0,0.0,0.0,0.0,0.0,0.0,0.0,0.0,0.0,0.0,0.0,0.0,0.0,0.0,0.0,0.0,0.0,0.0,0.0,0.0,0.0,0.0,0.0,0.0,0.0,0.0,0.0,0.0,0.0,0.0,0.0,0.0,0.0,0.0,0.0,0.0,0.0,0.0,0.0,0.0,0.0,0.0,0.0,0.0,0.0,0.0,0.0,0.0,0.0,0.0,0.0,0.0,0.0,0.0,0.0,0.0,0.0,0.0,0.0,0.0,0.0,0.0,0.0,0.0,0.0,0.0,0.0,0.0,0.0,0.0,0.0,-0.2985,-0.2772,0.0,0.0,0.0,0.0,0.0,0.0,-0.3429,-0.3476,0.0,-0.3516,-0.3565,-0.3589,-0.3589,-0.3589,-0.3589,-0.3589,-0.3589,-0.3589,-0.3589,-0.3589,-0.3589,-0.3589,-0.3589,-0.3589,-0.3589,-0.3589,-0.3589,-0.3589,-0.3589,-0.3628,-0.3681,0.0,0.0,0.0,0.0,0.0,0.0,0.0,0.0,0.0,0.0,0.0,0.0,0.0,0.0,0.0,0.0,0.0,0.0,0.0,0.0,0.0,0.0,0.0,0.0,0.0,0.0,0.0,0.0,0.0,0.0,0.0,0.0,0.0,0.0,0.0,0.0,0.0,0.0,0.0,0.0,0.0,0.0,0.0,0.0,0.0,0.0,0.0,0.0,0.0,0.0,0.0,0.0,0.0,0.0,0.0,0.0,0.0,0.0,0.0,0.0,0.0,0.0,0.0,0.0,0.0,0.0,0.0,0.0,0.0,0.0,0.0,0.0,0.0,0.0,0.0,0.0,0.0,0.0,0.0,0.0,0.0,0.0,0.0,-0.2345,-0.1706,0.0,0.0,0.0,0.0,0.0,-0.3641,-0.3456,-0.3707,-0.3737,-0.3544,-0.3576,-0.3589,-0.3589,-0.3589,-0.3589,-0.3589,-0.3589,-0.3589,-0.3589,-0.3589,-0.3589,-0.3589,-0.3589,-0.3589,-0.3589,-0.3589,-0.3589,-0.3589,-0.3589,-0.3628,-0.3681,0.0,0.0,0.0,0.0,0.0,0.0,0.0,0.0,0.0,0.0,0.0,0.0,0.0,0.0,0.0,0.0,0.0,0.0,0.0,0.0,0.0,0.0,0.0,0.0,0.0,0.0,0.0,0.0,0.0,0.0,0.0,0.0,0.0,0.0,0.0,0.0,0.0,0.0,0.0,0.0,0.0,0.0,0.0,0.0,0.0,0.0,0.0,0.0,0.0,0.0,0.0,0.0,0.0,0.0,0.0,0.0,0.0,0.0,0.0,0.0,0.0,0.0,0.0,0.0,0.0,0.0,0.0,0.0,0.0,0.0,0.0,0.0,0.0,0.0,0.0,0.0,0.0,0.0,0.0,0.0,0.0,-0.0213,-0.0853,-0.2132,-0.2558,0.0,0.0,0.0,0.0,-0.5162,-0.5381,-0.3457,-0.5256,-0.5303,-0.3544,-0.3576,-0.3589,-0.3589,-0.3589,-0.3589,-0.3589,-0.3589,-0.3589,-0.3589,-0.3589,-0.3589,-0.3589,-0.3589,-0.3589,-0.3589,-0.3589,-0.3589,-0.3589,-0.3589,-0.3628,-0.3681,0.0,0.0,0.0,0.0,0.0,0.0,0.0,0.0,0.0,0.0,0.0,0.0,0.0,0.0,0.0,0.0,0.0,0.0,0.0,0.0,0.0,0.0,0.0,0.0,0.0,0.0,0.0,0.0,0.0,0.0,0.0,0.0,0.0,0.0,0.0,0.0,0.0,0.0,0.0,0.0,0.0,0.0,0.0,0.0,0.0,0.0,0.0,0.0,0.0,0.0,0.0,0.0,0.0,0.0,0.0,0.0,0.0,0.0,0.0,0.0,0.0,0.0,0.0,0.0,0.0,0.0,0.0,0.0,0.0,0.0,0.0,0.0,0.0,0.0,0.0,0.0,0.0,0.0,0.0,0.0,0.0,0.0,0.0,-0.2132,-0.3204,-0.2573,-0.3003,0.0,-0.3476,-0.5663,-0.5892,-0.3495,-0.5945,-0.5986,-0.3565,-0.3583,-0.3589,-0.3589,-0.3589,-0.3589,-0.3589,-0.3589,-0.3589,-0.3589,-0.3589,-0.3589,-0.3589,-0.3589,-0.3589,-0.3589,-0.3589,-0.3589,-0.3589,-0.3589,-0.3628,-0.3681,0.0,0.0,0.0,0.0,0.0,0.0,0.0,0.0,0.0,0.0,0.0,0.0,0.0,0.0,0.0,0.0,0.0,0.0,0.0,0.0,0.0,0.0,0.0,0.0,0.0,0.0,0.0,0.0,0.0,0.0,0.0,0.0,0.0,0.0,0.0,0.0,0.0,0.0,0.0,0.0,0.0,0.0,0.0,0.0,0.0,0.0,0.0,0.0,0.0,0.0,0.0,0.0,0.0,0.0,0.0,0.0,0.0,0.0,0.0,0.0,0.0,0.0,0.0,0.0,0.0,0.0,0.0,0.0,0.0,0.0,0.0,0.0,0.0,0.0,0.0,0.0,0.0,0.0,0.0,0.0,0.0,0.0,0.0,-0.1927,-0.3221,-0.3463,-0.3464,-0.3478,-0.3506,-0.5729,-0.5979,-0.3551,-0.5764,-0.6004,-0.3589,-0.3589,-0.3589,-0.3589,-0.3589,-0.3589,-0.3589,-0.3589,-0.3589,-0.3589,-0.3589,-0.3589,-0.3589,-0.3589,-0.3589,-0.3589,-0.3589,-0.3589,-0.3589,-0.3589,-0.3625,-0.3674,0.0,0.0,0.0,0.0,0.0,0.0,0.0,0.0,0.0,0.0,0.0,0.0,0.0,0.0,0.0,0.0,0.0,0.0,0.0,0.0,0.0,0.0,0.0,0.0,0.0,0.0,0.0,0.0,0.0,0.0,0.0,0.0,0.0,0.0,0.0,0.0,0.0,0.0,0.0,0.0,0.0,0.0,0.0,0.0,0.0,0.0,0.0,0.0,0.0,0.0,0.0,0.0,0.0,0.0,0.0,0.0,0.0,0.0,0.0,0.0,0.0,0.0,0.0,0.0,0.0,0.0,0.0,0.0,0.0,0.0,0.0,0.0,0.0,0.0,0.0,0.0,0.0,0.0,0.0,0.0,0.0,0.0,0.0,-0.1308,-0.2399,-0.3495,-0.3495,-0.3509,-0.3538,-0.5747,-0.5993,-0.3583,-0.5815,-0.6046,-0.3589,-0.3589,-0.3589,-0.3589,-0.3589,-0.3589,-0.3589,-0.3589,-0.3589,-0.3589,-0.3589,-0.3589,-0.3589,-0.3589,-0.3589,-0.3589,-0.3589,-0.3589,-0.3589,-0.3589,-0.3611,-0.3645,0.0,0.0,0.0,0.0,0.0,0.0,0.0,0.0,0.0,0.0,0.0,0.0,0.0,0.0,0.0,0.0,0.0,0.0,0.0,0.0,0.0,0.0,0.0,0.0,0.0,0.0,0.0,0.0,0.0,0.0,0.0,0.0,0.0,0.0,0.0,0.0,0.0,0.0,0.0,0.0,0.0,0.0,0.0,0.0,0.0,0.0,0.0,0.0,0.0,0.0,0.0,0.0,0.0,0.0,0.0,0.0,0.0,0.0,0.0,0.0,0.0,0.0,0.0,0.0,0.0,0.0,0.0,0.0,0.0,0.0,0.0,0.0,0.0,0.0,0.0,0.0,0.0,0.0,0.0,0.0,0.0,0.0,0.0,-0.1094,-0.2193,-0.3527,-0.3527,-0.3538,-0.3569,-0.468,-0.4691,-0.3589,-0.4709,-0.4709,-0.3589,-0.3589,-0.3589,-0.3589,-0.3589,-0.3589,-0.3589,-0.3589,-0.3589,-0.3589,-0.3589,-0.3589,-0.3589,-0.3589,-0.3589,-0.3589,-0.3589,-0.3589,-0.3589,-0.3589,-0.3611,-0.3639,0.0,0.0,0.0,0.0,0.0,0.0,0.0,0.0,0.0,0.0,0.0,0.0,0.0,0.0,0.0,0.0,0.0,0.0,0.0,0.0,0.0,0.0,0.0,0.0,0.0,0.0,0.0,0.0,0.0,0.0,0.0,0.0,0.0,0.0,0.0,0.0,0.0,0.0,0.0,0.0,0.0,0.0,0.0,0.0,0.0,0.0,0.0,0.0,0.0,0.0,0.0,0.0,0.0,0.0,0.0,0.0,0.0,0.0,0.0,0.0,0.0,0.0,0.0,0.0,0.0,0.0,0.0,0.0,0.0,0.0,0.0,0.0,0.0,0.0,0.0,0.0,0.0,0.0,0.0,0.0,0.0,0.0,0.0,-0.1101,-0.2208,-0.3558,-0.3555,-0.3565,-0.3589,-0.3589,-0.3589,-0.3589,-0.3589,-0.3589,-0.3589,-0.3589,-0.3589,-0.3589,-0.3589,-0.3589,-0.3589,-0.3589,-0.3589,-0.3589,-0.3589,-0.3589,-0.3589,-0.3589,-0.3589,-0.3589,-0.3589,-0.3589,-0.3589,-0.3589,-0.3604,-0.3625,0.0,0.0,0.0,0.0,0.0,0.0,0.0,0.0,0.0,0.0,0.0,0.0,0.0,0.0,0.0,0.0,0.0,0.0,0.0,0.0,0.0,0.0,0.0,0.0,0.0,0.0,0.0,0.0,0.0,0.0,0.0,0.0,0.0,0.0,0.0,0.0,0.0,0.0,0.0,0.0,0.0,0.0,0.0,0.0,0.0,0.0,0.0,0.0,0.0,0.0,0.0,0.0,0.0,0.0,0.0,0.0,0.0,0.0,0.0,0.0,0.0,0.0,0.0,0.0,0.0,0.0,0.0,0.0,0.0,0.0,0.0,0.0,0.0,0.0,0.0,0.0,0.0,0.0,0.0,0.0,0.0,0.0,0.0,-0.112,-0.2241,-0.3589,-0.3587,-0.3587,-0.3589,-0.3589,-0.3589,-0.3589,-0.3589,-0.3589,-0.3589,-0.3589,-0.3589,-0.3589,-0.3589,-0.3589,-0.3589,-0.3589,-0.3589,-0.3589,-0.3589,-0.3589,-0.3589,-0.3589,-0.3589,-0.3589,-0.3589,-0.3589,-0.3589,-0.3589,-0.3589,-0.3596,0.0,0.0,0.0,0.0,0.0,0.0,0.0,0.0,0.0,0.0,0.0,0.0,0.0,0.0,0.0,0.0,0.0,0.0,0.0,0.0,0.0,0.0,0.0,0.0,0.0,0.0,0.0,0.0,0.0,0.0,0.0,0.0,0.0,0.0,0.0,0.0,0.0,0.0,0.0,0.0,0.0,0.0,0.0,0.0,0.0,0.0,0.0,0.0,0.0,0.0,0.0,0.0,0.0,0.0,0.0,0.0,0.0,0.0,0.0,0.0,0.0,0.0,0.0,0.0,0.0,0.0,0.0,0.0,0.0,0.0,0.0,0.0,0.0,0.0,0.0,0.0,0.0,0.0,0.0,0.0,0.0,0.0,0.0,-0.1122,-0.2245,-0.3594,-0.3589,-0.3589,-0.3589,-0.3589,-0.3589,-0.3589,-0.3589,-0.3589,-0.3589,-0.3589,-0.3589,-0.3589,-0.3589,-0.3589,-0.3589,-0.3589,-0.3589,-0.3589,-0.3589,-0.3589,-0.3589,-0.3589,-0.3589,-0.3589,-0.3589,-0.3589,-0.3589,-0.3589,-0.3589,-0.3814,0.0,0.0,0.0,0.0,0.0,0.0,0.0,0.0,0.0,0.0,0.0,0.0,0.0,0.0,0.0,0.0,0.0,0.0,0.0,0.0,0.0,0.0,0.0,0.0,0.0,0.0,0.0,0.0,0.0,0.0,0.0,0.0,0.0,0.0,0.0,0.0,0.0,0.0,0.0,0.0,0.0,0.0,0.0,0.0,0.0,0.0,0.0,0.0,0.0,0.0,0.0,0.0,0.0,0.0,0.0,0.0,0.0,0.0,0.0,0.0,0.0,0.0,0.0,0.0,0.0,0.0,0.0,0.0,0.0,0.0,0.0,0.0,0.0,0.0,0.0,0.0,0.0,0.0,0.0,0.0,0.0,-0.0224,-0.0449,-0.1347,-0.2245,-0.3594,-0.3589,-0.3589,-0.3589,-0.3589,-0.3589,-0.3589,-0.3589,-0.3589,-0.3589,-0.3589,-0.3589,-0.3589,-0.3589,-0.3589,-0.3589,-0.3589,-0.3589,-0.3589,-0.3589,-0.3589,-0.3589,-0.3589,-0.3589,-0.3589,-0.3589,-0.3589,-0.3589,-0.3589,-0.3589,-0.4039,0.0,0.0,0.0,0.0,0.0,0.0,0.0,0.0,0.0,0.0,0.0,0.0,0.0,0.0,0.0,0.0,0.0,0.0,0.0,0.0,0.0,0.0,0.0,0.0,0.0,0.0,0.0,0.0,0.0,0.0,0.0,0.0,0.0,0.0,0.0,0.0,0.0,0.0,0.0,0.0,0.0,0.0,0.0,0.0,0.0,0.0,0.0,0.0,0.0,0.0,0.0,0.0,0.0,0.0,0.0,0.0,0.0,0.0,0.0,0.0,0.0,0.0,0.0,0.0,0.0,0.0,0.0,0.0,0.0,0.0,0.0,0.0,0.0,0.0,0.0,0.0,0.0,0.0,0.0,0.0,0.0,-0.0449,-0.1572,-0.1796,-0.2245,-0.3594,-0.3589,-0.3589,-0.3589,-0.3589,-0.3589,-0.3589,-0.3589,-0.3589,-0.3589,-0.3589,-0.3589,-0.3589,-0.3589,-0.3589,-0.3589,-0.3589,-0.3589,-0.3589,-0.3589,-0.3589,-0.3589,-0.3589,-0.3589,-0.3589,-0.3589,-0.3589,-0.3589,-0.3589,-0.3589,-0.4039,0.0,0.0,0.0,0.0,0.0,0.0,0.0,0.0,0.0,0.0,0.0,0.0,0.0,0.0,0.0,0.0,0.0,0.0,0.0,0.0,0.0,0.0,0.0,0.0,0.0,0.0,0.0,0.0,0.0,0.0,0.0,0.0,0.0,0.0,0.0,0.0,0.0,0.0,0.0,0.0,0.0,0.0,0.0,0.0,0.0,0.0,0.0,0.0,0.0,0.0,0.0,0.0,0.0,0.0,0.0,0.0,0.0,0.0,0.0,0.0,0.0,0.0,0.0,0.0,0.0,0.0,0.0,0.0,0.0,0.0,0.0,0.0,0.0,0.0,0.0,0.0,0.0,0.0,0.0,0.0,0.0,-0.0449,-0.1572,-0.1796,-0.2245,-0.3594,-0.3589,-0.3589,-0.3589,-0.3589,-0.3589,-0.3589,-0.3589,-0.3589,-0.3589,-0.3589,-0.3589,-0.3589,-0.3589,-0.3589,-0.3589,-0.3589,-0.3589,-0.3589,-0.3589,-0.3589,-0.3589,-0.3589,-0.3589,-0.3589,-0.3589,-0.3589,-0.3589,-0.3589,-0.3589,-0.4259,0.0,0.0,0.0,0.0,0.0,0.0,0.0,0.0,0.0,0.0,0.0,0.0,0.0,0.0,0.0,0.0,0.0,0.0,0.0,0.0,0.0,0.0,0.0,0.0,0.0,0.0,0.0,0.0,0.0,0.0,0.0,0.0,0.0,0.0,0.0,0.0,0.0,0.0,0.0,0.0,0.0,0.0,0.0,0.0,0.0,0.0,0.0,0.0,0.0,0.0,0.0,0.0,0.0,0.0,0.0,0.0,0.0,0.0,0.0,0.0,0.0,0.0,0.0,0.0,0.0,0.0,0.0,0.0,0.0,0.0,0.0,0.0,0.0,0.0,0.0,0.0,0.0,0.0,0.0,0.0,0.0,-0.0449,-0.1572,-0.1796,-0.2245,-0.3594,-0.3589,-0.3589,-0.3589,-0.3589,-0.3589,-0.3589,-0.3589,-0.3589,-0.3589,-0.3589,-0.3589,-0.3589,-0.3589,-0.3589,-0.3589,-0.3589,-0.3589,-0.3589,-0.3589,-0.3589,-0.3589,-0.3589,-0.3589,-0.3589,-0.4709,-0.4933,-0.5157,-0.605,-0.6493,-0.6943,0.0,0.0,0.0,0.0,0.0,0.0,0.0,0.0,0.0,0.0,0.0,0.0,0.0,0.0,0.0,0.0,0.0,0.0,0.0,0.0,0.0,0.0,0.0,0.0,0.0,0.0,0.0,0.0,0.0,0.0,0.0,0.0,0.0,0.0,0.0,0.0,0.0,0.0,0.0,0.0,0.0,0.0,0.0,0.0,0.0,0.0,0.0,0.0,0.0,0.0,0.0,0.0,0.0,0.0,0.0,0.0,0.0,0.0,0.0,0.0,0.0,0.0,0.0,0.0,0.0,0.0,0.0,0.0,0.0,0.0,0.0,0.0,0.0,0.0,0.0,0.0,0.0,0.0,0.0,0.0,0.0,-0.0449,-0.1572,-0.1796,-0.247,-0.3589,-0.3589,-0.3589,-0.3589,-0.3589,-0.3589,-0.3589,-0.3589,-0.3589,-0.3589,-0.3589,-0.3589,-0.3589,-0.3589,-0.3589,-0.3589,-0.3589,-0.3589,-0.3589,-0.3589,-0.3589,-0.3589,-0.3589,-0.3814,-0.4039,-0.6277,-0.7393,-0.7834,-0.9843,-1.073,-1.0957,0.0,0.0,0.0,0.0,0.0,0.0,0.0,0.0,0.0,0.0,0.0,0.0,0.0,0.0,0.0,0.0,0.0,0.0,0.0,0.0,0.0,0.0,0.0,0.0,0.0,0.0,0.0,0.0,0.0,0.0,0.0,0.0,0.0,0.0,0.0,0.0,0.0,0.0,0.0,0.0,0.0,0.0,0.0,0.0,0.0,0.0,0.0,0.0,0.0,0.0,0.0,0.0,0.0,0.0,0.0,0.0,0.0,0.0,0.0,0.0,0.0,0.0,0.0,0.0,0.0,0.0,0.0,0.0,0.0,0.0,0.0,0.0,0.0,0.0,0.0,0.0,0.0,0.0,0.0,0.0,0.0,-0.0,-0.0449,-0.2021,-0.3369,-0.3589,-0.3589,-0.3589,-0.3589,-0.3589,-0.3589,-0.3589,-0.3589,-0.3589,-0.3589,-0.3589,-0.3589,-0.3589,-0.3589,-0.3589,-0.3589,-0.3589,-0.3589,-0.3589,-0.3589,-0.3589,-0.3589,-0.3589,-0.4709,-0.65,-0.6943,-0.8284,-1.0066,-1.0508,-1.073,-1.0957,0.0,0.0,0.0,0.0,0.0,0.0,0.0,0.0,0.0,0.0,0.0,0.0,0.0,0.0,0.0,0.0,0.0,0.0,0.0,0.0,0.0,0.0,0.0,0.0,0.0,0.0,0.0,0.0,0.0,0.0,0.0,0.0,0.0,0.0,0.0,0.0,0.0,0.0,0.0,0.0,0.0,0.0,0.0,0.0,0.0,0.0,0.0,0.0,0.0,0.0,0.0,0.0,0.0,0.0,0.0,0.0,0.0,0.0,0.0,0.0,0.0,0.0,0.0,0.0,0.0,0.0,0.0,0.0,0.0,0.0,0.0,0.0,0.0,0.0,0.0,0.0,0.0,0.0,0.0,0.0,0.0,0.0,0.0,-0.1572,-0.2919,-0.3589,-0.3589,-0.3589,-0.3589,-0.3589,-0.3589,-0.3589,-0.3589,-0.3589,-0.3589,-0.3589,-0.3589,-0.3589,-0.3589,-0.3589,-0.3589,-0.3589,-0.3589,-0.3589,-0.3589,-0.3589,-0.3589,-0.3589,-0.4933,-0.7393,-0.8507,-1.0281,-1.2511,-1.3632,-1.407,-1.4292,0.0,0.0,0.0,0.0,0.0,0.0,0.0,0.0,0.0,0.0,0.0,0.0,0.0,0.0,0.0,0.0,0.0,0.0,0.0,0.0,0.0,0.0,0.0,0.0,0.0,0.0,0.0,0.0,0.0,0.0,0.0,0.0,0.0,0.0,0.0,0.0,0.0,0.0,0.0,0.0,0.0,0.0,0.0,0.0,0.0,0.0,0.0,0.0,0.0,0.0,0.0,0.0,0.0,0.0,0.0,0.0,0.0,0.0,0.0,0.0,0.0,0.0,0.0,0.0,0.0,0.0,0.0,0.0,0.0,0.0,0.0,0.0,0.0,0.0,0.0,0.0,0.0,0.0,0.0,0.0,0.0,0.0,0.0,-0.1122,-0.2245,-0.3589,-0.3589,-0.3589,-0.3589,-0.3589,-0.3589,-0.3589,-0.3589,-0.3589,-0.3589,-0.3589,-0.3589,-0.3589,-0.3589,-0.3589,-0.3589,-0.3589,-0.3589,-0.3589,-0.3589,-0.3815,-0.4259,-0.4259,-0.5826,-0.8501,-1.0508,-1.2738,-1.5185,-1.7197,-1.786,-1.786,0.0,0.0,0.0,0.0,0.0,0.0,0.0,0.0,0.0,0.0,0.0,0.0,0.0,0.0,0.0,0.0,0.0,0.0,0.0,0.0,0.0,0.0,0.0,0.0,0.0,0.0,0.0,0.0,0.0,0.0,0.0,0.0,0.0,0.0,0.0,0.0,0.0,0.0,0.0,0.0,0.0,0.0,0.0,0.0,0.0,0.0,0.0,0.0,0.0,0.0,0.0,0.0,0.0,0.0,0.0,0.0,0.0,0.0,0.0,0.0,0.0,0.0,0.0,0.0,0.0,0.0,0.0,0.0,0.0,0.0,0.0,0.0,0.0,0.0,0.0,0.0,0.0,0.0,0.0,0.0,0.0,0.0,0.0,-0.1122,-0.2245,-0.3594,-0.3589,-0.3589,-0.3589,-0.3589,-0.3589,-0.3589,-0.3589,-0.3589,-0.3589,-0.3589,-0.3589,-0.3589,-0.3589,-0.3589,-0.3589,-0.3589,-0.3589,-0.3589,-0.3589,-0.4709,-0.6719,-0.6719,-0.94,-1.3399,-1.3632,-1.5185,-1.7405,-1.786,-1.786,-1.786,0.0,0.0,0.0,0.0,0.0,0.0,0.0,0.0,0.0,0.0,0.0,0.0,0.0,0.0,0.0,0.0,0.0,0.0,0.0,0.0,0.0,0.0,0.0,0.0,0.0,0.0,0.0,0.0,0.0,0.0,0.0,0.0,0.0,0.0,0.0,0.0,0.0,0.0,0.0,0.0,0.0,0.0,0.0,0.0,0.0,0.0,0.0,0.0,0.0,0.0,0.0,0.0,0.0,0.0,0.0,0.0,0.0,0.0,0.0,0.0,0.0,0.0,0.0,0.0,0.0,0.0,0.0,0.0,0.0,0.0,0.0,0.0,0.0,0.0,0.0,0.0,0.0,0.0,0.0,0.0,0.0,0.0,0.0,-0.1122,-0.2245,-0.3594,-0.3589,-0.3589,-0.3589,-0.3589,-0.3589,-0.3589,-0.3589,-0.3589,-0.3589,-0.3589,-0.3589,-0.3589,-0.3589,-0.3589,-0.3589,-0.3589,-0.3589,-0.3589,-0.4933,-0.6274,-0.7393,-0.8724,-1.1172,-1.4292,-1.4292,-1.585,-1.786,-1.786,-1.786,-1.786]}]]